[[{"header":{"parameterUnit":"m.s-1","parameterCategory":1,"la1":30.6,"la2":29.2853,"lo1":-89.7004,"lo2":-87.6739,"dy":0.0162,"dx":0.0183,"nx":112,"ny":82,"refTime":"2026-02-27T12:00:00:Z","depth":0,"parameterNumber":2,"parameterNumberName":"U-component_of_WINDS"},"data":[0.0,0.0,0.0,0.0,0.0,0.0,0.0,0.0,0.0,0.0,0.0,0.0,0.0,0.0,0.0,0.0,0.0,0.0,0.0,0.0,0.0,0.0,0.0,0.0,0.0,0.0,0.0,0.0,0.0,0.0,0.0,0.0,0.0,0.0,0.0,0.0,0.0,0.0,0.0,0.0,0.0,0.0,0.0,0.0,0.0,0.0,0.0,0.0,0.0,0.0,0.0,0.0,0.0,0.0,0.0,0.0,0.0,0.0,0.0,0.0,0.0,0.0,0.0,0.0,0.0,0.0,0.0,0.0,0.0,0.0,0.0,0.0,0.0,0.0,0.0,0.0,0.0,0.0,0.0,0.0,0.0,0.0,0.0,0.0,0.0,0.0,0.0,0.0,0.0,0.0,-1.541,-1.6835,-1.8278,-1.9058,-1.8882,-1.8053,-1.6617,-1.4537,0.0,0.0,0.0,0.0,0.0,0.0,0.0,0.0,0.0,0.0,0.0,0.0,0.0,0.0,0.0,0.0,0.0,0.0,0.0,0.0,0.0,0.0,0.0,0.0,0.0,0.0,0.0,0.0,0.0,0.0,0.0,0.0,0.0,0.0,0.0,0.0,0.0,0.0,0.0,0.0,0.0,0.0,0.0,0.0,0.0,0.0,0.0,0.0,0.0,0.0,0.0,0.0,0.0,0.0,0.0,0.0,0.0,0.0,0.0,0.0,0.0,0.0,0.0,0.0,0.0,0.0,0.0,0.0,0.0,0.0,0.0,0.0,0.0,0.0,0.0,0.0,0.0,0.0,0.0,0.0,0.0,0.0,0.0,0.0,0.0,0.0,0.0,0.0,0.0,0.0,0.0,0.0,0.0,0.0,0.0,0.0,0.0,0.0,0.0,0.0,0.0,0.0,0.0,0.0,-1.5356,-1.8329,-1.9258,-1.9309,-1.8405,-1.8179,-1.7127,-1.4956,0.0,0.0,0.0,0.0,0.0,0.0,0.0,0.0,0.0,0.0,0.0,0.0,0.0,0.0,0.0,0.0,0.0,0.0,0.0,0.0,0.0,0.0,0.0,0.0,0.0,0.0,0.0,0.0,0.0,0.0,0.0,0.0,0.0,0.0,0.0,0.0,0.0,0.0,0.0,0.0,0.0,0.0,0.0,0.0,0.0,0.0,0.0,0.0,0.0,0.0,0.0,0.0,0.0,0.0,0.0,0.0,0.0,0.0,0.0,0.0,0.0,0.0,0.0,0.0,0.0,0.0,0.0,0.0,0.0,0.0,0.0,0.0,0.0,0.0,0.0,0.0,0.0,0.0,0.0,0.0,0.0,0.0,0.0,0.0,0.0,0.0,0.0,0.0,0.0,0.0,0.0,0.0,0.0,0.0,0.0,0.0,0.0,0.0,0.0,0.0,0.0,0.0,0.0,-1.4758,-1.6321,-1.8732,-1.9484,-1.9258,-1.7944,-1.8062,-1.7047,-1.4357,-1.3563,0.0,0.0,0.0,0.0,0.0,0.0,0.0,0.0,0.0,0.0,0.0,0.0,0.0,0.0,0.0,0.0,0.0,0.0,0.0,0.0,0.0,0.0,0.0,0.0,0.0,0.0,0.0,0.0,0.0,0.0,0.0,0.0,0.0,0.0,0.0,0.0,0.0,0.0,0.0,0.0,0.0,0.0,0.0,0.0,0.0,0.0,0.0,0.0,0.0,0.0,0.0,0.0,0.0,0.0,0.0,0.0,0.0,0.0,0.0,0.0,0.0,0.0,0.0,0.0,0.0,0.0,0.0,0.0,0.0,0.0,0.0,0.0,0.0,0.0,0.0,0.0,0.0,0.0,0.0,0.0,0.0,0.0,0.0,0.0,0.0,0.0,0.0,0.0,0.0,0.0,0.0,0.0,0.0,0.0,0.0,0.0,0.0,0.0,0.0,0.0,0.0,0.0,-1.6321,-1.7428,-1.8857,-1.9484,-1.9207,-1.78,-1.789,-1.6786,-1.3933,-1.3222,0.0,0.0,0.0,0.0,0.0,0.0,0.0,0.0,0.0,0.0,0.0,0.0,0.0,0.0,0.0,0.0,0.0,0.0,0.0,0.0,0.0,0.0,0.0,0.0,0.0,0.0,0.0,0.0,0.0,0.0,0.0,0.0,0.0,0.0,0.0,0.0,0.0,0.0,0.0,0.0,0.0,0.0,0.0,0.0,0.0,0.0,0.0,0.0,0.0,0.0,0.0,0.0,0.0,0.0,0.0,0.0,0.0,0.0,0.0,0.0,0.0,0.0,0.0,0.0,0.0,0.0,0.0,0.0,0.0,0.0,0.0,0.0,0.0,0.0,0.0,0.0,0.0,0.0,0.0,0.0,0.0,0.0,0.0,0.0,0.0,0.0,0.0,0.0,0.0,0.0,0.0,0.0,0.0,0.0,0.0,0.0,0.0,0.0,0.0,0.0,0.0,0.0,-1.6773,-1.8329,-1.8933,-1.9484,-1.9334,-1.8232,-1.7727,-1.6545,-1.4397,-1.2901,0.0,0.0,0.0,0.0,0.0,0.0,0.0,0.0,0.0,0.0,0.0,0.0,0.0,0.0,0.0,0.0,0.0,0.0,0.0,0.0,0.0,0.0,0.0,0.0,0.0,0.0,0.0,0.0,0.0,0.0,0.0,0.0,0.0,0.0,0.0,0.0,0.0,0.0,0.0,0.0,0.0,0.0,0.0,0.0,0.0,0.0,0.0,0.0,0.0,0.0,0.0,0.0,0.0,0.0,0.0,0.0,0.0,0.0,0.0,0.0,0.0,0.0,0.0,0.0,0.0,0.0,0.0,0.0,0.0,0.0,0.0,0.0,0.0,0.0,0.0,0.0,0.0,0.0,0.0,0.0,0.0,0.0,0.0,0.0,0.0,0.0,0.0,0.0,0.0,0.0,0.0,0.0,0.0,0.0,0.0,0.0,0.0,0.0,0.0,0.0,0.0,0.0,-1.6543,-1.8028,0.0,-1.9484,-1.9382,-1.8339,-1.8038,-1.6995,-1.4856,0.0,0.0,0.0,0.0,0.0,0.0,0.0,0.0,0.0,0.0,0.0,0.0,0.0,0.0,0.0,0.0,0.0,0.0,0.0,0.0,0.0,0.0,0.0,0.0,0.0,0.0,0.0,0.0,0.0,0.0,0.0,0.0,0.0,0.0,0.0,0.0,0.0,0.0,0.0,0.0,0.0,0.0,0.0,0.0,0.0,0.0,0.0,0.0,0.0,0.0,0.0,0.0,0.0,0.0,0.0,0.0,0.0,0.0,0.0,0.0,0.0,0.0,0.0,0.0,0.0,0.0,0.0,0.0,0.0,0.0,0.0,0.0,0.0,0.0,0.0,0.0,0.0,0.0,0.0,0.0,0.0,0.0,0.0,0.0,0.0,0.0,0.0,0.0,0.0,0.0,0.0,0.0,0.0,0.0,0.0,0.0,0.0,0.0,0.0,0.0,0.0,0.0,-1.4959,-1.6769,-1.8129,0.0,-1.9233,-1.9058,-1.7824,-1.7494,-1.6479,-1.4377,0.0,0.0,0.0,0.0,0.0,0.0,0.0,0.0,0.0,0.0,0.0,0.0,0.0,0.0,0.0,0.0,0.0,0.0,0.0,0.0,0.0,0.0,0.0,0.0,0.0,0.0,0.0,0.0,0.0,0.0,0.0,0.0,0.0,0.0,0.0,0.0,0.0,0.0,0.0,0.0,0.0,0.0,0.0,0.0,0.0,0.0,0.0,0.0,0.0,0.0,0.0,0.0,0.0,0.0,0.0,0.0,0.0,0.0,0.0,0.0,0.0,0.0,0.0,0.0,0.0,0.0,0.0,0.0,0.0,0.0,0.0,0.0,0.0,0.0,0.0,0.0,0.0,0.0,0.0,0.0,0.0,0.0,0.0,0.0,0.0,0.0,0.0,0.0,0.0,0.0,0.0,0.0,0.0,0.0,0.0,0.0,0.0,0.0,0.0,0.0,0.0,0.0,-1.5567,-1.7629,-1.8782,-1.8279,-1.8682,-1.8331,-1.6651,-1.5957,-1.4755,0.0,0.0,0.0,0.0,0.0,0.0,0.0,0.0,0.0,0.0,0.0,0.0,0.0,0.0,0.0,0.0,0.0,0.0,0.0,0.0,0.0,0.0,0.0,0.0,0.0,0.0,0.0,0.0,0.0,0.0,0.0,0.0,0.0,0.0,0.0,0.0,0.0,0.0,0.0,0.0,0.0,0.0,0.0,0.0,0.0,0.0,0.0,0.0,0.0,0.0,0.0,0.0,0.0,0.0,0.0,0.0,0.0,0.0,0.0,0.0,0.0,0.0,0.0,0.0,0.0,0.0,0.0,0.0,0.0,0.0,0.0,0.0,0.0,0.0,0.0,0.0,0.0,0.0,0.0,0.0,0.0,0.0,0.0,0.0,0.0,0.0,0.0,0.0,0.0,0.0,0.0,0.0,0.0,0.0,0.0,0.0,0.0,0.0,0.0,0.0,0.0,0.0,0.0,-1.6095,-1.7551,-1.8506,-1.8732,-1.8459,-1.7984,-1.72,-1.6532,-1.5446,-1.3765,0.0,0.0,0.0,0.0,0.0,0.0,0.0,0.0,0.0,0.0,0.0,0.0,0.0,0.0,0.0,0.0,0.0,0.0,0.0,0.0,0.0,0.0,0.0,0.0,0.0,0.0,0.0,0.0,0.0,0.0,0.0,0.0,0.0,0.0,0.0,0.0,0.0,0.0,0.0,0.0,0.0,0.0,0.0,0.0,0.0,0.0,0.0,0.0,0.0,0.0,0.0,0.0,0.0,0.0,0.0,0.0,0.0,0.0,0.0,0.0,0.0,0.0,0.0,0.0,0.0,0.0,0.0,0.0,0.0,0.0,0.0,0.0,0.0,0.0,0.0,0.0,0.0,0.0,0.0,0.0,0.0,0.0,0.0,0.0,0.0,0.0,0.0,0.0,0.0,0.0,0.0,0.0,0.0,0.0,0.0,0.0,0.0,0.0,0.0,0.0,0.0,0.0,-1.6214,-1.7563,-1.8411,-1.851,-1.8164,-1.7545,-1.6666,-1.5984,-1.4923,-1.3396,0.0,0.0,0.0,0.0,0.0,0.0,0.0,0.0,0.0,0.0,0.0,0.0,0.0,0.0,0.0,0.0,0.0,0.0,0.0,0.0,0.0,0.0,0.0,0.0,0.0,0.0,0.0,0.0,0.0,0.0,0.0,0.0,0.0,0.0,0.0,0.0,0.0,0.0,0.0,0.0,0.0,0.0,0.0,0.0,0.0,0.0,0.0,0.0,0.0,0.0,0.0,0.0,0.0,0.0,0.0,0.0,0.0,0.0,0.0,0.0,0.0,0.0,0.0,0.0,0.0,0.0,0.0,0.0,0.0,0.0,0.0,0.0,0.0,0.0,0.0,0.0,0.0,0.0,0.0,0.0,0.0,0.0,0.0,0.0,0.0,0.0,0.0,0.0,0.0,0.0,0.0,0.0,0.0,0.0,0.0,0.0,0.0,0.0,0.0,0.0,0.0,0.0,-1.6065,-1.7502,-1.8216,-1.7847,-1.7725,-1.7087,-1.5585,-1.4894,-1.388,-1.2356,0.0,0.0,0.0,0.0,0.0,0.0,0.0,0.0,0.0,0.0,0.0,0.0,0.0,0.0,0.0,0.0,0.0,0.0,0.0,0.0,0.0,0.0,0.0,0.0,0.0,0.0,0.0,0.0,0.0,0.0,0.0,0.0,0.0,0.0,0.0,0.0,0.0,0.0,0.0,0.0,0.0,0.0,0.0,0.0,0.0,0.0,0.0,0.0,0.0,0.0,0.0,0.0,0.0,0.0,0.0,0.0,0.0,0.0,0.0,0.0,-1.7268,-1.5924,0.0,0.0,0.0,0.0,0.0,0.0,0.0,0.0,0.0,0.0,0.0,0.0,0.0,0.0,0.0,0.0,0.0,0.0,0.0,0.0,0.0,0.0,0.0,0.0,0.0,0.0,0.0,0.0,0.0,0.0,0.0,0.0,0.0,0.0,0.0,0.0,0.0,0.0,0.0,0.0,-1.5951,-1.6495,-1.6987,-1.7724,-1.7335,-1.6748,-1.6102,-1.5801,-1.5004,-1.346,-1.1997,0.0,0.0,0.0,0.0,0.0,0.0,0.0,0.0,0.0,0.0,0.0,0.0,0.0,0.0,0.0,0.0,0.0,0.0,0.0,0.0,0.0,0.0,0.0,0.0,0.0,0.0,0.0,0.0,0.0,0.0,0.0,0.0,0.0,0.0,0.0,0.0,0.0,0.0,0.0,0.0,0.0,0.0,0.0,0.0,0.0,0.0,0.0,0.0,0.0,0.0,0.0,0.0,0.0,0.0,0.0,0.0,0.0,0.0,0.0,-2.0058,-1.8783,0.0,0.0,0.0,0.0,0.0,0.0,0.0,0.0,0.0,0.0,0.0,0.0,0.0,0.0,0.0,0.0,0.0,0.0,0.0,0.0,0.0,0.0,0.0,0.0,0.0,0.0,0.0,0.0,0.0,0.0,0.0,0.0,0.0,0.0,0.0,0.0,0.0,0.0,0.0,0.0,-1.5822,-1.6266,-1.6608,-1.7168,-1.6903,-1.6613,-1.6391,-1.584,-1.5166,-1.4361,-1.2846,0.0,0.0,0.0,0.0,0.0,0.0,0.0,0.0,0.0,0.0,0.0,0.0,0.0,0.0,0.0,0.0,0.0,0.0,0.0,0.0,0.0,0.0,0.0,0.0,0.0,0.0,0.0,0.0,0.0,0.0,0.0,0.0,0.0,0.0,0.0,0.0,0.0,0.0,0.0,0.0,0.0,0.0,0.0,0.0,0.0,0.0,0.0,0.0,0.0,0.0,0.0,0.0,0.0,-2.349,-2.423,-2.3593,-2.5591,-2.5644,-2.4071,-2.3626,-2.248,-2.0848,-2.0301,0.0,0.0,0.0,0.0,0.0,0.0,0.0,0.0,0.0,0.0,0.0,0.0,0.0,0.0,0.0,0.0,0.0,0.0,0.0,0.0,0.0,0.0,-1.7651,-1.8012,-1.8374,-1.8037,-1.5846,0.0,0.0,0.0,0.0,0.0,0.0,0.0,0.0,0.0,0.0,0.0,-1.5816,-1.6473,-1.6739,-1.6739,-1.6739,-1.6715,-1.6619,-1.5852,-1.5348,-1.5157,-1.3876,-1.2632,0.0,0.0,0.0,0.0,0.0,0.0,0.0,0.0,0.0,0.0,0.0,0.0,0.0,0.0,0.0,0.0,0.0,0.0,0.0,0.0,0.0,0.0,0.0,0.0,0.0,0.0,0.0,0.0,0.0,0.0,0.0,0.0,-1.4792,-1.5023,0.0,0.0,0.0,0.0,0.0,0.0,0.0,0.0,0.0,0.0,0.0,0.0,0.0,-2.0707,-2.2902,-2.4489,-2.546,-2.5816,-2.723,-2.8052,-2.8362,-2.8251,-2.8283,-2.8457,-2.8395,0.0,-2.197,-2.1696,0.0,0.0,0.0,0.0,0.0,0.0,0.0,0.0,0.0,0.0,0.0,0.0,0.0,0.0,0.0,0.0,0.0,0.0,0.0,0.0,0.0,0.0,-2.1356,-2.0971,-2.0586,-2.0201,-1.9841,-1.7195,-1.4722,-1.4108,-1.2908,-1.209,0.0,0.0,0.0,0.0,0.0,0.0,-1.6305,-1.6955,-1.7291,-1.7291,-1.7291,-1.7099,-1.6643,-1.6907,-1.6691,-1.5756,-1.5061,-1.4292,-1.338,-1.2277,0.0,0.0,0.0,0.0,0.0,0.0,0.0,0.0,0.0,0.0,0.0,0.0,0.0,0.0,0.0,0.0,0.0,0.0,0.0,0.0,0.0,0.0,0.0,0.0,0.0,0.0,0.0,0.0,0.0,-1.4819,-1.5969,-1.5877,-1.6026,-1.5708,0.0,0.0,0.0,0.0,0.0,0.0,0.0,0.0,0.0,-2.034,-2.1381,-2.2666,-2.4273,-2.588,-2.6903,-2.7381,-2.8428,-2.9368,-3.0305,-3.0288,-3.0384,-3.0751,-3.1308,-2.9856,-2.7005,-2.5027,-2.3944,-2.3391,0.0,0.0,0.0,0.0,-2.1217,-2.1716,-2.2582,-2.2534,-2.2125,-2.2349,0.0,0.0,0.0,0.0,0.0,0.0,0.0,-2.0298,-2.0057,-2.1308,-2.2582,-2.2342,-2.2342,-2.2318,-2.2005,-2.0173,-1.8084,-1.6353,-1.5704,-1.5052,-1.3819,-1.3216,0.0,0.0,0.0,-1.5367,-1.7267,-1.77,-1.7845,-1.7845,-1.7845,-1.7652,-1.7099,-1.7243,-1.7195,-1.6739,-1.59,-1.5284,-1.4894,-1.3536,-1.2573,0.0,0.0,0.0,0.0,0.0,0.0,0.0,0.0,0.0,0.0,0.0,0.0,0.0,0.0,0.0,0.0,0.0,0.0,0.0,0.0,0.0,0.0,0.0,0.0,0.0,0.0,0.0,0.0,-1.5984,-1.7048,-1.6783,-1.7362,-1.7177,0.0,0.0,0.0,0.0,0.0,0.0,-1.8825,-1.9955,-2.1341,-2.2918,-2.4292,-2.5543,-2.6693,-2.8073,-2.885,-2.9079,-2.9883,-3.0827,-3.1833,-3.1972,-3.2158,-3.2392,-3.3052,-3.2627,-3.1344,-2.8298,-2.6756,-2.6129,-2.3964,-2.3465,-2.3977,-2.3833,-2.3953,-2.4362,-2.5516,-2.5625,-2.5264,-2.5059,-2.3809,-2.2149,-2.0803,0.0,0.0,0.0,0.0,-2.2221,-2.2366,-2.3087,-2.3785,-2.3785,-2.4011,-2.4059,-2.3496,-2.2654,-2.126,-1.8708,-1.8205,-1.7628,-1.5798,-1.5268,0.0,0.0,0.0,-1.6595,-1.8205,-1.8638,-1.8758,-1.8614,-1.8494,-1.8181,-1.7652,-1.7579,-1.7556,-1.7387,-1.6643,-1.6163,-1.6018,-1.4646,-1.3703,-1.3318,0.0,0.0,0.0,0.0,0.0,0.0,0.0,0.0,0.0,0.0,0.0,0.0,0.0,0.0,0.0,0.0,0.0,0.0,0.0,0.0,0.0,0.0,0.0,0.0,0.0,0.0,0.0,0.0,0.0,-1.7799,-1.8913,0.0,0.0,0.0,0.0,-1.8119,-1.8935,-2.0064,-2.1438,-2.2339,-2.4111,-2.6934,-2.8357,-2.9851,-3.1364,-3.2437,-3.2768,-3.2277,-3.2816,-3.336,-3.3839,-3.3407,-3.3455,-3.3887,-3.3454,-3.3284,-3.3021,-3.0788,-2.9605,-2.8883,-2.6729,-2.6225,-2.6633,-2.6142,-2.6598,-2.745,-2.7546,-2.7546,-2.7633,-2.8114,-2.6839,-2.5011,-2.4376,-2.3568,0.0,0.0,-2.3544,-2.4448,-2.4987,-2.5516,-2.5949,-2.5949,-2.5588,-2.5083,-2.4554,-2.4025,-2.3047,-2.0875,-1.9239,-1.8326,-1.8686,0.0,-1.7436,-1.7965,-1.847,-1.8831,-1.8927,-1.9865,-2.0298,-1.9772,-1.9239,-1.8734,-1.8205,-1.8157,-1.7941,-1.7411,-1.7339,-1.7075,-1.6595,-1.5516,-1.4917,-1.4893,-1.2866,0.0,0.0,0.0,0.0,0.0,0.0,0.0,0.0,0.0,0.0,0.0,0.0,0.0,0.0,0.0,0.0,0.0,0.0,0.0,0.0,0.0,0.0,0.0,0.0,0.0,0.0,0.0,0.0,-1.9736,-2.0903,0.0,-1.9261,-1.9721,-2.0126,-2.0085,-2.1096,-2.2407,-2.3975,-2.4612,-2.5508,-2.6803,-2.7844,-2.8462,-2.8655,-2.9545,-3.0863,-3.2472,-3.1979,-3.3096,-3.5495,-3.4304,-3.4211,-3.4967,-3.4511,-3.4294,-3.4198,-3.3092,-3.213,-3.1216,-2.9749,-2.9292,-2.9412,-2.8859,-2.8907,-2.9244,-2.9244,-2.9244,-2.9172,-2.8667,-2.7536,-2.6225,-2.5709,-2.5276,-2.4987,-2.4987,-2.5516,-2.6081,-2.6273,-2.6465,-2.6609,-2.6609,-2.6465,-2.6177,-2.5661,-2.5131,-2.4434,-2.3352,-2.1861,-2.061,-2.0129,-1.9432,-1.8999,-1.9191,-1.9411,-1.9744,-2.0466,-2.0875,-2.1043,-2.0851,-2.0658,-2.0057,-1.8806,-1.9023,-1.871,-1.7459,-1.7387,-1.7147,-1.6619,-1.5564,-1.4866,-1.457,-1.3149,-1.2065,0.0,0.0,0.0,0.0,0.0,0.0,0.0,0.0,0.0,0.0,0.0,0.0,0.0,0.0,0.0,0.0,0.0,0.0,0.0,0.0,0.0,0.0,0.0,0.0,0.0,-1.9385,-2.0969,-2.1077,-2.2491,-2.2815,-2.1255,-2.1731,-2.2135,-2.2135,-2.3033,-2.4214,-2.5718,-2.6327,-2.6937,-2.7635,-2.8593,-2.8996,-2.8834,-2.9679,-3.1114,-3.3112,-3.2577,-3.3643,-3.6105,-3.5113,-3.5051,-3.5707,-3.5471,-3.5256,-3.5015,-3.4679,-3.4006,-3.3188,-3.2106,-3.1697,-3.1693,-3.1288,-3.1168,-3.1144,-3.0951,-3.0663,-3.023,-2.9532,-2.8715,-2.7921,-2.756,-2.744,-2.744,-2.744,-2.7584,-2.769,-2.769,-2.7609,-2.7378,-2.721,-2.7162,-2.7018,-2.6502,-2.5949,-2.5468,-2.5131,-2.3785,-2.251,-2.1789,-2.1235,-2.088,-2.088,-2.0735,-2.088,-2.1572,-2.1668,-2.1668,-2.1668,-2.15,-2.0971,-1.9889,-1.9793,-1.9363,-1.8277,-1.77,-1.7243,-1.6883,-1.5828,-1.513,-1.4811,-1.3583,-1.2619,-1.1897,0.0,0.0,0.0,0.0,0.0,0.0,0.0,0.0,0.0,0.0,0.0,0.0,0.0,0.0,0.0,0.0,0.0,0.0,0.0,0.0,0.0,0.0,0.0,-1.8742,-2.0497,-2.1778,-2.1815,-2.3639,-2.4225,-2.263,-2.3547,-2.4293,-2.4293,-2.4679,-2.5381,-2.6609,-2.746,-2.8509,-2.9806,-3.097,-3.1918,-3.2459,-3.3338,-3.3966,-3.4283,-3.486,-3.5276,-3.5662,-3.5924,-3.6026,-3.6077,-3.6309,-3.6122,-3.5641,-3.5641,-3.5328,-3.4703,-3.3717,-3.3308,-3.3308,-3.3308,-3.3284,-3.3212,-3.2707,-3.1817,-3.0927,-3.0927,-3.0567,-3.011,-3.011,-3.011,-3.0086,-3.0086,-2.9725,-2.9316,-2.9316,-2.8931,-2.8402,-2.7858,-2.7714,-2.757,-2.7042,-2.6526,-2.6142,-2.6117,-2.4867,-2.3866,-2.3842,-2.3384,-2.3047,-2.3047,-2.2558,0.0,-2.2221,-2.2221,-2.2221,-2.2221,-2.174,-2.1428,-2.1428,-2.0418,-1.982,-1.9796,-1.8277,-1.7387,-1.7387,-1.6403,-1.5804,-1.5804,-1.4329,-1.3023,-1.1945,0.0,0.0,0.0,0.0,0.0,0.0,0.0,0.0,0.0,0.0,0.0,0.0,0.0,0.0,0.0,0.0,0.0,0.0,0.0,0.0,0.0,-1.9127,-2.0429,-2.0808,-2.2392,-2.3822,-2.4684,-2.5821,-2.6334,-2.5894,-2.6151,-2.6407,-2.6407,-2.6774,-2.7364,-2.8312,-2.918,-2.9884,-3.0214,-3.1498,-3.1961,-3.1497,-3.242,-3.3446,-3.4406,-3.4984,-3.5872,-3.7038,-3.6711,-3.6677,-3.686,-3.6528,-3.6314,-3.6194,-3.6194,-3.5881,-3.5304,-3.4198,-3.379,-3.3789,-3.3428,-3.3284,-3.326,-3.3116,-3.2635,-3.2058,-3.2058,-3.1432,-3.0663,-3.0663,-3.0398,-3.0086,-3.0086,-2.9989,-2.9869,-2.9869,-2.9484,-2.9051,-2.8907,-2.857,-2.8138,-2.7594,-2.7354,-2.7031,-2.6262,-2.5757,-2.5204,-2.4434,-2.3881,-2.3577,-2.3577,-2.3457,0.0,-2.2823,-2.2775,-2.2775,-2.2775,-2.2294,-2.1981,-2.1981,-2.1,-2.0061,-1.9263,-1.8085,-1.7387,-1.7387,-1.6739,-1.6211,-1.5804,-1.501,-1.4093,0.0,0.0,0.0,0.0,0.0,0.0,0.0,0.0,0.0,0.0,0.0,0.0,0.0,0.0,0.0,0.0,0.0,0.0,0.0,0.0,0.0,0.0,-2.1291,-2.2703,-2.3639,-2.4427,-2.5359,-2.6407,-2.7031,-2.7416,-2.7416,-2.7416,-2.7416,-2.7416,-2.8032,-2.8672,-2.9296,-3.0178,-3.0817,-3.1111,-3.207,-3.244,-3.2307,-3.3008,-3.3944,-3.4969,-3.5356,-3.6068,-3.7036,-3.6838,-3.6856,-3.6991,-3.6787,-3.6629,-3.6542,-3.6542,-3.6333,-3.5857,0.0,0.0,0.0,0.0,-3.3789,-3.3597,-3.3597,-3.326,-3.2827,-3.2827,-3.225,-3.1553,-3.1553,-3.1168,-3.0759,-3.0759,-3.0591,-3.0422,-3.0422,-3.0037,-2.9629,-2.9629,-2.922,-2.8763,-2.845,-2.8041,-2.7536,-2.6911,-2.6598,0.0,-2.5324,-2.4578,-2.4145,-2.4386,-2.4083,-2.377,-2.364,-2.3481,-2.3336,-2.3336,-2.2879,-2.2534,-2.2534,-2.1554,0.0,0.0,0.0,-1.7869,-1.7436,-1.7099,0.0,0.0,0.0,0.0,0.0,0.0,0.0,0.0,-1.3583,-1.339,0.0,0.0,0.0,0.0,0.0,0.0,0.0,0.0,0.0,0.0,0.0,0.0,0.0,0.0,0.0,0.0,-2.3565,-2.4973,-2.6554,-2.6517,-2.6554,-2.7233,-2.7655,-2.7969,-2.7969,-2.8008,-2.8065,-2.795,-2.8804,-2.9467,-2.9834,-3.0747,0.0,0.0,0.0,-3.3367,-3.4134,-3.4525,-3.5046,-3.5808,-3.5895,-3.6114,-3.6386,-3.6712,-3.682,-3.6874,-3.7089,-3.7098,-3.6959,-3.6959,-3.6729,-3.6435,-3.5833,-3.5328,-3.4847,-3.4799,-3.4486,-3.4078,-3.4078,0.0,0.0,-3.338,-3.302,-3.2587,-3.2587,-3.225,-3.1886,-3.1813,-3.1476,-3.1091,-3.1019,-3.0518,-3.0086,-3.0086,-2.9677,-2.9292,-2.922,-2.8522,-2.7834,-2.7714,-2.7306,-2.6801,-2.6286,-2.5372,-2.4843,-2.5252,-2.453,-2.4107,-2.4424,-2.4121,-2.389,-2.389,0.0,0.0,-2.3159,-2.2125,-2.1284,-2.0827,-1.9768,-1.8734,-1.7724,-1.7724,-1.7724,-1.7676,-1.7676,-1.7652,-1.7579,-1.7579,-1.7869,-1.8326,-1.5871,-1.5509,0.0,0.0,0.0,0.0,0.0,0.0,0.0,0.0,0.0,0.0,0.0,0.0,0.0,0.0,0.0,-2.3492,-2.4863,-2.6241,-2.782,-2.7967,-2.7985,-2.8132,-2.8517,-2.8755,-2.8755,-2.9442,-2.9559,-2.8796,-2.9617,-3.018,-3.0257,-3.1377,-3.239,-3.3289,-3.4323,-3.4958,-3.5124,-3.5676,-3.5895,-3.5785,-3.6495,0.0,-3.6982,-3.7251,-3.7518,-3.7761,-3.7814,-3.782,-3.7777,-3.7777,-3.7464,-3.694,-3.5978,-3.5545,-3.54,-3.4943,-3.4703,-3.4631,-3.4631,-3.4294,-3.3838,-3.3838,-3.3549,-3.314,-3.314,-3.3068,0.0,-3.2466,-3.2274,-3.2082,-3.1669,-3.085,-3.0086,-3.0086,-2.9677,-2.9172,-2.8763,-2.8835,-2.8739,-2.7897,-2.7594,-2.7354,-2.6825,-2.6238,-2.5685,-2.5348,-2.5131,-2.4891,-2.452,-2.4434,-2.4386,-2.4386,-2.3929,-2.3785,-2.4194,-2.2871,-2.2005,-2.1885,-2.0899,-2.0009,-1.936,-1.9744,-1.9793,-1.9336,-1.9338,-1.9119,-1.8686,-1.8686,-1.8951,-1.9459,-1.8085,-1.7845,0.0,0.0,0.0,0.0,0.0,0.0,0.0,0.0,0.0,0.0,0.0,-1.9934,-2.09,0.0,-2.3785,-2.5451,-2.6388,-2.727,-2.826,-2.8572,-2.8682,-2.8682,-2.9279,-2.9509,-2.9035,-2.9863,-3.0216,-2.9745,-3.0157,-3.0606,-3.1073,-3.2374,-3.3398,-3.4218,-3.5499,-3.6162,-3.617,-3.6502,-3.6475,-3.6059,-3.6657,-3.6928,-3.6904,-3.7197,-3.7269,-3.7191,-3.7191,-3.713,-3.7024,-3.7128,-3.7036,-3.6723,-3.593,-3.5785,-3.5978,-3.5713,-3.528,-3.4775,-3.4775,-3.4318,-3.3693,-3.391,-3.3693,-3.3332,-3.3597,-3.3501,-3.3236,-3.2971,-3.2899,-3.2779,-3.2226,-3.148,-3.0807,-3.0543,-2.9869,-2.9292,-2.9292,-2.91,-2.8835,-2.857,-2.8306,-2.7906,-2.7378,-2.7103,-2.6719,-2.6153,-2.5877,-2.5612,-2.5348,-2.5083,-2.4915,-2.4915,-2.4458,-2.4242,-2.4472,-2.3328,-2.2582,-2.2582,-2.1596,-2.0899,-2.061,-2.061,-2.0461,-2.0201,-2.0201,-2.0057,-1.9796,-1.9793,-2.0201,-2.0971,-2.0442,-2.0057,0.0,0.0,0.0,0.0,0.0,0.0,0.0,0.0,-1.8797,-2.0099,-2.1273,-2.2483,-2.3828,-2.4739,-2.5729,-2.7178,-2.7746,-2.8171,-2.8462,-2.8847,-2.9067,-2.8993,-2.9686,-2.9804,-2.9035,-2.9863,-3.0333,-3.0157,-3.0567,-3.1132,-3.1868,-3.3302,-3.4423,-3.5149,-3.6391,-3.7042,-3.7117,-3.7173,-3.6966,-3.6576,-3.6827,-3.6944,-3.6851,-3.7122,-3.7026,-3.6638,-3.6596,-3.6398,-3.6105,-3.6309,-3.6411,-3.6362,-3.593,-3.6026,-3.6386,-3.629,-3.5785,-3.5087,-3.5087,-3.4535,-3.3789,-3.4054,-3.3837,-3.3501,-3.3789,-3.3621,-3.3284,-3.3284,-3.3284,-3.3188,-3.2755,-3.2154,-3.1573,-3.1043,-3.0158,-2.9508,-2.9725,-2.9268,-2.8907,-2.9244,-2.8955,-2.8522,-2.8114,-2.7906,-2.7618,-2.6994,-2.655,-2.6262,-2.6262,-2.5805,-2.5468,-2.5468,-2.4987,-2.4592,-2.4496,-2.3761,-2.3232,-2.3168,-2.2342,-2.1861,-2.1861,-2.1452,-2.1235,-2.1235,-2.1235,-2.1211,-2.1217,-2.1211,-2.162,-2.2342,-2.2342,-2.1885,-1.9146,-1.7917,-1.7587,-1.821,-1.8412,-1.918,0.0,0.0,-2.2245,-2.384,-2.4882,-2.5635,-2.6151,-2.6609,-2.7215,-2.8113,-2.859,-2.8865,-2.8902,-2.925,-2.9379,-2.903,-2.9094,-2.9094,-2.8975,-2.9863,-3.0039,-2.9213,-3.1073,-3.2292,-3.2409,-3.3993,-3.5438,-3.664,-3.7029,-3.7372,-3.7701,-3.7701,-3.7678,-3.7609,-3.7891,-3.7827,-3.7409,-3.766,-3.7706,-3.7423,-3.7211,-3.684,-3.636,-3.6411,-3.6411,-3.6386,-3.6338,-3.6362,-3.6338,-3.5881,-3.593,-3.6218,-3.6218,-3.5857,-3.528,-3.4823,-3.4342,-3.3838,-3.3501,-3.3332,-3.3284,-3.3284,-3.3284,-3.3284,-3.3212,-3.2488,-3.1573,-3.1043,-3.0422,-2.9749,-2.8883,-2.934,-2.9797,-2.9388,-2.9244,-2.9196,-2.9124,-2.8739,-2.8089,-2.7042,-2.6849,-2.6801,-2.6801,-2.6358,-2.6021,-2.6021,-2.554,-2.5035,-2.452,-2.441,-2.4145,-2.3746,-2.3601,-2.3529,-2.3529,-2.3481,-2.3457,-2.3457,-2.3457,-2.3457,-2.3433,-2.3457,-2.3264,-2.2927,-2.2927,-2.2855,-2.1229,-2.0393,-2.0113,-2.0936,-2.1302,-2.1961,-2.384,-2.417,-2.4427,-2.5601,-2.6517,-2.7197,-2.7563,-2.7967,-2.8407,0.0,-2.9214,-2.9324,-2.9324,-2.947,-2.9342,-2.8718,-2.9359,-2.9627,-2.9035,-3.0314,-3.1053,-3.0645,-3.1819,-3.2822,-3.3501,-3.48,-3.5854,-3.6758,-3.7691,-3.818,-3.8252,-3.8252,-3.8091,-3.7793,-3.8076,-3.8073,-3.792,-3.8222,-3.8029,-3.7471,-3.6796,-3.6282,-3.593,-3.5418,-3.5348,-3.5497,-3.5497,-3.5665,-3.6002,-3.6386,-3.629,-3.5978,-3.629,-3.5857,-3.5184,-3.5256,-3.4871,-3.4414,-3.4246,-3.3958,-3.3669,-3.338,-3.3284,-3.3284,-3.3284,-3.2731,-3.2106,-3.1865,-3.1168,-3.0422,-2.9989,-2.9989,-3.0013,-2.9797,-2.9749,-2.9749,-2.9749,-2.9316,-2.8811,-2.8378,-2.7777,-2.7354,-2.7354,-2.6873,-2.6574,-2.6574,-2.6345,-2.5985,-2.5492,-2.5444,-2.5228,-2.4699,-2.4386,-2.4218,-2.4218,-2.3962,-2.3794,-2.3794,-2.3794,-2.3794,-2.3794,-2.3794,-2.3842,-2.3881,-2.3881,-2.3881,-2.219,-2.198,-2.2217,-2.3041,-2.3749,-2.4427,-2.5252,-2.5748,-2.6278,-2.694,-2.7636,-2.8187,-2.8498,-2.8792,-2.9067,-2.936,-2.9599,-2.9672,-2.9452,-2.9507,-2.9389,-2.883,-2.9293,-2.956,-2.9204,-3.0529,-3.1516,-3.1805,-3.2446,-3.3358,-3.4444,-3.5795,-3.6731,-3.7281,-3.8253,-3.883,-3.878,-3.878,-3.8654,-3.8321,-3.8549,-3.8594,-3.8568,-3.8765,-3.8446,-3.7685,-3.703,-3.6398,-3.5759,-3.5177,-3.4892,-3.4775,-3.4775,-3.5015,-3.5497,-3.6411,-3.6362,-3.5905,-3.6435,-3.6026,-3.5328,-3.5713,-3.5473,-3.4967,-3.4823,-3.4414,-3.391,-3.3597,-3.3404,-3.3284,-3.3284,-3.2899,-3.2491,-3.2491,-3.1769,-3.1139,-3.1139,-3.0826,-3.0518,-3.0518,-3.0398,-3.0302,-3.0302,-2.9869,-2.9508,-2.9508,-2.8859,-2.821,-2.7777,-2.721,-2.6825,-2.6681,-2.6801,-2.6729,-2.6358,-2.6334,-2.6166,-2.5781,-2.5396,-2.5144,-2.5144,-2.4843,-2.465,-2.465,-2.465,-2.465,-2.465,-2.465,-2.4675,-2.4712,-2.4712,-2.4578,-2.1255,-2.1961,-2.3059,-2.3963,-2.5065,-2.6149,-2.6921,-2.7473,-2.782,-2.826,-2.8663,-2.8957,-2.8957,-2.8975,-2.8993,-2.8993,-2.9672,-2.991,-2.9104,-2.9324,-2.9568,-2.9604,-2.8595,-2.8349,-2.947,-3.0064,-3.084,-3.1747,-3.2944,-3.4108,-3.5035,-3.7147,-3.8455,-3.873,-3.8789,-3.899,-3.9285,-3.9285,-3.9462,-3.9755,-3.9755,-3.9674,-3.9447,-3.9291,-3.8856,-3.8411,-3.8605,-3.7853,-3.6386,-3.6362,-3.5761,-3.4775,-3.4775,-3.4799,-3.4871,-3.5473,-3.5978,-3.6459,-3.6988,-3.6819,-3.6362,-3.6362,-3.6026,-3.5497,-3.4943,-3.4414,-3.3982,-3.3982,-3.3669,-3.3284,-3.3284,-3.2899,-3.2491,-3.2491,-3.2058,-3.1693,-3.1693,-3.1669,-3.1669,-3.1669,-3.1235,-3.0898,-3.0898,-3.0422,-3.0062,-3.0062,-3.0037,-2.946,-2.7921,-2.721,-2.6681,-2.619,-2.6598,-2.6898,-2.6873,-2.6873,-2.6873,-2.6849,-2.6825,-2.6825,-2.6825,-2.6801,-2.6801,-2.6801,-2.6801,-2.6801,-2.6801,-2.6801,-2.6273,-2.5276,-2.5276,-2.4747,-2.2868,-2.3639,-2.4611,-2.6499,-2.7123,-2.7491,-2.8575,-2.8663,-2.8608,-2.8755,-2.8462,-2.8168,-2.8168,-2.8024,-2.7967,-2.8498,-2.9269,-2.969,-2.9415,-3.0256,-3.0294,-2.8631,-2.9863,0.0,0.0,-3.0591,-3.114,-3.1727,-3.4096,-3.5736,-3.628,-3.7798,-3.8812,-3.9108,-3.9108,-3.919,-3.9308,-3.9308,-3.9367,-3.9485,-3.9485,-3.9627,-3.9964,-3.9915,-3.9708,-3.9379,-3.9157,-3.8677,-3.795,-3.702,-3.6569,-3.6362,-3.6002,-3.5665,-3.5376,-3.5545,-3.5497,-3.5545,-3.6771,-3.7084,-3.6988,-3.7348,-3.7084,-3.6555,-3.6026,-3.5497,-3.4895,-3.4198,-3.3862,-3.3742,-3.3742,-3.3404,-3.3116,-3.3452,-3.3116,-3.2635,-3.2298,-3.2491,-3.2539,-3.1837,-3.1817,-3.1841,-3.15,-3.0995,-3.0374,-2.9677,-2.9556,-2.9364,-2.8835,-2.7993,-2.7354,-2.72,-2.6994,-2.6898,-2.6898,-2.6898,-2.6898,-2.6898,-2.6898,-2.6898,-2.6898,-2.6898,-2.6898,-2.6898,-2.6898,-2.6898,-2.6898,-2.6513,-2.619,-2.5829,-2.5468,-2.5131,-2.4404,-2.5267,-2.6114,-2.8113,-2.8407,-2.8407,-2.9177,-2.9159,-2.8902,-2.8608,-2.8079,-2.7528,-2.7234,-2.6683,-2.6683,-2.7783,-2.8498,-2.9145,-2.9507,-3.033,-3.0471,-2.9298,-3.0074,-3.0746,0.0,0.0,0.0,-3.2223,-3.456,-3.6049,-3.6374,-3.7893,-3.893,-3.9308,-3.9308,-3.9308,-3.9308,-3.9308,-3.9367,-3.9485,-3.9603,-3.9814,-4.0223,-4.0223,-4.0151,-3.9992,-3.9798,-3.9324,-3.8581,-3.7833,-3.7264,-3.6867,-3.6531,-3.6194,-3.5905,-3.5905,-3.5569,-3.528,-3.6483,-3.6916,-3.7036,-3.7733,-3.7757,-3.7421,-3.7084,-3.6603,-3.6002,-3.5136,-3.4703,-3.4462,-3.4078,-3.3789,-3.3597,-3.3741,-3.3525,-3.3236,-3.3092,-3.3164,-3.314,-3.2611,-3.2659,-3.2611,-3.2058,-3.1548,-3.097,-3.0254,-2.9989,-2.9653,-2.91,-2.8595,-2.821,-2.8017,-2.7834,-2.7666,-2.7474,-2.745,-2.7378,-2.7186,-2.7186,-2.709,-2.6898,-2.7066,-2.7186,-2.7186,-2.7354,-2.745,-2.745,-2.6935,-2.6574,-2.6382,-2.5853,-2.5588,-2.5672,-2.6719,-2.7581,-2.8773,-2.9048,-2.9012,-2.9048,-2.8975,-2.87,-2.795,-2.7343,-2.6756,0.0,0.0,-2.5286,-2.694,-2.7564,-2.83,-2.9517,-2.9702,-3.0216,0.0,0.0,0.0,0.0,0.0,0.0,-3.3105,-3.4429,-3.5291,-3.5583,-3.7621,-3.893,-3.9308,-3.9308,-3.9308,-3.9308,-3.9308,-3.9485,-3.9802,-4.0071,-4.0165,-4.0223,-4.0223,-4.0223,-4.0223,-4.0595,-3.9855,-3.8428,-3.8701,-3.795,-3.6531,-3.6507,-3.6459,-3.6435,-3.6435,-3.6122,-3.5737,-3.6266,-3.6411,-3.6531,-3.7565,-3.7902,-3.7902,-3.7902,-3.7565,-3.7084,-3.6555,-3.6074,-3.5449,-3.4366,-3.4102,-3.3934,-3.3477,-3.3356,-3.3477,-3.3862,-3.3669,-3.3501,-3.3862,-3.3621,-3.314,-3.2635,-3.2082,-3.1741,-3.1741,-3.1284,-3.0326,-2.8835,-2.9027,-2.91,-2.8619,-2.8979,-2.9076,-2.8595,-2.8546,-2.8354,-2.7834,-2.781,-2.757,-2.7066,-2.7546,-2.781,-2.781,-2.833,-2.8595,-2.8595,-2.8026,-2.7498,-2.697,-2.643,-2.6166,-2.6921,-2.8171,-2.9177,-3.0094,-2.9874,-2.9507,-2.9819,-2.8957,-2.793,-2.7491,-2.5803,-2.4409,0.0,0.0,0.0,-2.647,-2.7865,0.0,-3.0433,-3.1498,0.0,-3.0294,0.0,-3.2612,-3.2145,-3.3048,0.0,-3.4572,-3.5511,-3.6377,-3.7022,-3.8177,-3.893,-3.9308,-3.9308,-3.9308,-3.9308,-3.9308,-3.9485,-3.9802,-3.9603,-3.9755,-4.0223,-4.0223,-4.0363,-4.0595,-4.0942,-4.0602,-3.9834,-3.9506,-3.8936,-3.8166,-3.7733,-3.7348,-3.6988,-3.6988,-3.6651,-3.6266,-3.6819,-3.6483,-3.593,-3.6603,-3.6819,-3.6819,-3.6819,-3.6988,-3.7084,-3.6555,-3.6603,-3.6651,-3.5978,-3.5497,-3.5088,-3.4559,-3.4438,-3.427,-3.3621,-3.3982,-3.4246,-3.3597,-3.338,-3.326,-3.3116,-3.2635,-3.2298,-3.2298,-3.148,-3.0778,-3.0326,-2.9701,-2.9244,-2.91,-2.8859,-2.8811,-2.9076,-2.91,-2.922,-2.946,-2.9484,-2.9436,-2.9292,-2.9412,-2.9484,-2.9484,-2.9605,-2.9677,-2.9677,-2.9148,-2.8619,-2.8089,-2.756,-2.7066,-2.8388,-2.9324,-3.0002,-3.0626,-3.0167,-2.9452,-2.8975,-2.804,-2.683,-2.5362,-2.3822,-2.2547,-2.2016,-2.2053,-2.2917,0.0,0.0,0.0,-3.0362,-3.1306,-3.1684,0.0,-3.2494,0.0,-3.3637,-3.4301,-3.497,-3.5505,-3.61,-3.6617,-3.7199,-3.8222,-3.893,-3.9308,-3.9308,-3.9308,-3.9308,-3.9308,-3.9367,-3.9567,-3.9367,-3.9485,-3.9814,-3.9954,-4.013,-4.0328,-4.0792,-4.0655,-4.0161,-3.977,-3.9296,-3.8767,-3.819,-3.7805,-3.7541,-3.7541,-3.7204,-3.6795,-3.7084,-3.6651,-3.605,-3.6579,-3.6603,-3.6411,-3.6411,-3.6603,-3.6795,-3.6483,-3.6627,-3.6723,-3.6194,-3.6002,-3.5785,-3.4967,-3.4775,-3.4679,-3.4078,-3.4246,-3.4342,-3.403,-3.3789,-3.3621,-3.3621,-3.3188,-3.2851,-3.2851,-3.213,-3.1577,-3.1577,-3.0663,-2.9989,-2.9989,-2.9725,-2.9581,-2.9629,-2.9653,-2.9677,-2.9749,-2.9749,-2.9629,-2.9412,-2.9605,-2.9749,-2.9749,-2.9965,-2.9965,-2.9749,-2.922,-2.8691,-2.8162,-2.7594,-2.7306,-2.9855,-3.0314,-3.0442,-3.0791,-3.0204,-2.9159,-2.76,-2.6738,-2.5491,-2.2722,0.0,-2.09,-1.9912,-2.0173,-2.1353,-2.3943,0.0,-2.7179,-2.9928,-3.0458,-3.1323,-3.3269,-3.2869,-3.3196,-3.5108,-3.5361,-3.5725,-3.6475,-3.6597,-3.6706,-3.6971,-3.8148,-3.893,-3.9308,-3.9308,-3.9308,-3.9308,-3.9308,-3.9308,-3.9308,-3.9239,-3.9239,-3.9367,-3.9674,-3.9791,-3.9978,-4.0503,-4.0459,-3.9935,-3.9786,-3.9393,-3.8864,-3.8383,-3.8142,-3.8094,-3.8094,-3.7805,-3.7421,-3.7421,-3.7108,-3.6771,-3.7012,-3.6771,-3.6411,-3.6411,-3.6411,-3.6411,-3.6411,-3.6411,-3.629,-3.5833,-3.6122,-3.6266,-3.528,-3.5088,-3.5112,-3.4968,-3.4462,-3.4246,-3.4775,-3.4414,-3.4006,-3.4078,-3.3669,-3.3308,-3.338,-3.2875,-3.2539,-3.2587,-3.1649,-3.0995,-3.0922,-3.0922,-3.0663,-3.0134,-3.0086,-2.9893,-2.9436,-2.9412,-2.9196,-2.8739,-2.9148,-2.9412,-2.9412,-2.9845,-2.9869,-2.9412,-2.8955,-2.845,-2.7921,-2.7426,-2.7426,-3.0424,-3.0919,-3.1194,-3.1267,-3.0424,-2.9292,-2.8005,-2.6113,0.0,0.0,-1.9952,-1.874,-1.8907,-1.9787,-2.1528,-2.4746,-2.6517,-2.8253,-3.0534,-3.1875,-3.257,0.0,-3.4752,-3.6259,-3.6164,-3.6762,0.0,0.0,-3.7988,-3.7979,-3.8394,-3.8684,-3.893,-3.9308,-3.9308,-3.9308,-3.9308,-3.9308,-3.9308,-3.9308,-3.8895,-3.9058,-3.972,-3.9592,-3.9904,-4.0561,-4.0966,-4.0827,-4.0322,-4.0306,-3.9946,-3.9465,-3.9369,-3.9056,-3.8671,-3.8671,-3.8623,-3.8527,-3.8527,-3.8479,-3.819,-3.694,-3.6483,-3.6411,-3.6411,-3.6411,-3.6411,-3.6411,-3.6411,-3.6386,-3.629,-3.6651,-3.6892,-3.6266,-3.6459,-3.6555,-3.5665,-3.5015,-3.4799,-3.5376,-3.4655,-3.4126,-3.4558,-3.3909,-3.3428,-3.379,-3.3092,-3.2659,-3.3092,-3.2202,-3.1404,-3.097,-3.0922,-3.0663,-3.0134,-3.0086,-3.0037,-2.9965,-2.9941,-2.9917,-2.9821,-2.9893,-2.9941,-2.9941,-3.0037,-3.0037,-2.9941,-2.9869,-2.9532,-2.9027,-2.8931,-2.8715,-3.0882,-3.1231,-3.1322,-3.1121,-3.0167,-2.8663,-2.6462,0.0,0.0,0.0,-1.799,-1.7203,-1.744,-1.8449,0.0,-2.3275,-2.4433,-2.6101,-2.9355,-3.0587,-3.1662,-3.315,-3.4778,-3.6185,-3.7352,-3.7336,-3.765,-3.873,-3.8785,-3.8798,-3.9049,-3.9049,-3.9108,-3.9308,-3.9308,-3.9308,-3.9308,-3.9308,-3.9308,-3.9308,-3.9078,-3.9277,-3.9802,-3.9814,-4.0185,-4.0735,-4.1081,-4.1028,-4.0787,-4.0499,-4.0234,-3.9994,-3.9705,-3.9441,-3.9224,-3.9224,-3.9224,-3.9224,-3.9224,-3.9224,-3.9104,-3.8334,-3.7493,-3.6819,-3.6819,-3.6627,-3.6411,-3.6411,-3.6411,-3.6338,-3.6074,-3.6386,-3.6723,-3.6459,-3.6603,-3.6579,-3.5785,-3.5425,-3.5255,-3.5569,-3.5425,-3.5256,-3.5256,-3.4607,-3.4174,-3.4366,-3.3573,-3.3092,-3.3621,-3.2996,-3.2418,-3.2154,-3.213,-3.2034,-3.1769,-3.1504,-3.1336,-3.1336,-3.1072,-3.0946,-3.0946,-3.0639,-3.0494,-3.0494,-3.023,-2.9941,-2.9677,-2.9677,-2.9412,-2.8883,-2.8883,-2.8763,-3.1011,-3.1304,-3.1286,-3.0882,-2.9874,-2.8132,-2.4937,-2.2832,0.0,0.0,-1.6395,-1.6083,-1.6175,0.0,-1.873,0.0,-2.2087,-2.3721,-2.7786,-2.9176,-3.0869,0.0,-3.4739,0.0,-3.8201,-3.7736,0.0,-3.873,-3.9108,-3.9308,-3.9308,-3.9308,-3.9308,-3.9308,-3.9308,-3.9262,-3.9147,-3.9147,-3.9147,-3.9147,-3.9033,-3.9277,-3.9919,-4.0012,-4.0303,-4.085,-4.1081,-4.1172,-4.1148,-4.0739,-4.0571,-4.0523,-4.0114,-3.9874,-3.9777,-3.9777,-3.9777,-3.9777,-3.9777,-3.985,-3.9946,-3.9946,-3.8936,-3.7709,-3.7709,-3.7348,-3.6892,-3.6771,-3.6675,-3.6459,-3.593,-3.617,-3.6579,-3.6579,-3.6483,-3.629,-3.5881,-3.5689,-3.5641,-3.5761,-3.593,-3.5978,-3.5665,-3.5184,-3.4775,-3.4775,-3.403,-3.3645,-3.4102,-3.3765,-3.3501,-3.3597,-3.3308,-3.3068,-3.2947,-3.2563,-3.2322,-3.2322,-3.1958,-3.1717,-3.1717,-3.1308,-3.1091,-3.1091,-3.0518,-3.0037,-2.9629,-2.9532,-2.9244,-2.8859,-2.8859,-2.8859,-3.0516,-3.1102,-3.1286,-3.0882,-2.9874,-2.8132,-2.4937,0.0,-2.0246,-1.7037,-1.5753,-1.5331,-1.568,-1.645,0.0,0.0,0.0,-2.3345,-2.6387,-2.9358,-3.1852,-3.353,0.0,0.0,-3.838,-3.8537,-3.8693,-3.8812,-3.9108,-3.9308,-3.9308,-3.9308,-3.9308,-3.9308,-3.9308,-3.9101,-3.8665,-3.8642,-3.8642,-3.8642,-3.816,-3.87,-4.0165,-3.9753,-4.0168,-4.1196,-4.1196,-4.1172,0.0,-4.1124,-4.1124,-4.11,-4.1052,-4.0739,-4.0331,-4.0331,-4.0331,-4.0331,-4.0331,-4.0643,-4.1028,-4.1028,-4.0282,-3.9393,-3.9393,-3.9008,-3.8503,-3.7974,-3.7493,-3.6988,-3.6459,-3.6723,-3.7132,-3.7132,-3.6747,-3.6386,-3.6338,-3.5954,-3.5761,-3.6242,-3.5593,-3.5112,-3.5545,-3.5184,-3.4775,-3.4775,-3.4294,-3.4102,-3.4631,-3.4246,-3.4102,-3.4583,-3.3428,-3.237,-3.191,-3.1813,-3.1789,-3.1789,-3.1741,-3.1717,-3.1717,-3.1669,-3.1645,-3.1645,-3.1115,-3.0783,-3.0778,-3.0254,-2.9989,-2.9941,-2.9941,-2.9941,-3.0112,-3.0717,-3.0919,-3.0534,-2.9159,-2.7105,-2.4115,0.0,-1.9237,-1.6505,-1.5294,-1.4873,-1.5258,-1.5606,-1.6659,0.0,0.0,0.0,-2.4162,-2.6345,-2.8737,-3.1861,-3.3197,0.0,0.0,0.0,-3.7089,-3.7872,-3.7992,-3.7992,-3.7834,-3.8752,-3.9308,-3.9308,-3.9033,-3.878,-3.8596,-3.8275,-3.8114,-3.8114,-3.8206,-3.8827,-3.9776,-3.9894,-4.0405,-4.1172,-4.1172,-4.1172,0.0,-4.1172,-4.1172,-4.1172,-4.1172,-4.1052,-4.086,-4.086,-4.086,-4.086,-4.086,-4.1004,-4.1172,-4.1172,-4.0908,-4.0499,-4.0186,-3.9705,-3.9248,-3.9032,-3.8815,-3.8527,-3.7998,-3.7757,-3.7589,-3.7276,-3.6795,-3.6411,-3.6411,-3.5978,-3.5689,-3.5881,-3.5833,-3.5737,-3.5641,-3.5449,-3.5304,-3.5304,-3.5112,-3.5015,-3.5231,-3.4799,-3.4414,-3.4318,-3.4078,-3.3813,-3.3573,-3.3284,-3.2971,-3.2659,-3.2346,-3.2054,-3.1717,-3.1404,-3.1235,-3.1235,-3.0663,-3.0398,-3.0398,-3.0182,-3.0086,-3.0086,-3.0086,-3.0086,-2.947,-3.0296,-3.0644,-3.0002,-2.8498,-2.6408,0.0,-2.0961,-1.8614,-1.6193,-1.5056,-1.4598,-1.4873,-1.5019,-1.5803,-1.7999,-1.7948,-1.8877,-2.2397,-2.411,-2.631,0.0,0.0,-3.2615,-3.6391,-3.6122,-3.6175,-3.7248,-3.6946,-3.6664,-3.6441,-3.7533,-3.8455,-3.9108,-3.8905,-3.8665,-3.8344,-3.7976,-3.7793,-3.7793,-3.816,-3.8793,-3.9614,-3.9907,-4.0363,-4.0884,-4.1,-4.1081,0.0,-4.1172,-4.1172,-4.1172,-4.1172,-4.1172,-4.1172,-4.1172,-4.1172,-4.1172,-4.1172,-4.1172,-4.1172,-4.1172,-4.1172,-4.1076,-4.0547,-4.0138,-3.9801,-3.9657,-3.9369,-3.908,-3.8864,-3.8286,-3.7685,-3.7469,-3.6916,-3.6362,-3.6218,-3.5881,-3.5617,-3.5617,-3.593,-3.6098,-3.5881,-3.5857,-3.5857,-3.5857,-3.5713,-3.5665,-3.5833,-3.54,-3.4919,-3.4703,-3.5064,-3.504,-3.4438,-3.3982,-3.3669,-3.3308,-3.2947,-3.2563,-3.2199,-3.1793,-3.1601,-3.1601,-3.1072,-3.0807,-3.0807,-3.0639,-3.0543,-3.0543,-3.0543,-3.0543,-2.8572,-2.9874,-3.0497,-2.9287,-2.8077,-2.6316,-2.307,-2.0759,-1.8614,-1.6193,-1.5056,-1.4506,-1.4524,-1.4836,-1.5368,-1.6193,-1.7294,0.0,-2.1401,-2.3594,-2.5732,0.0,0.0,-3.2007,-3.3845,-3.5473,-3.6664,-3.7248,-3.6154,-3.5438,-3.5438,-3.5438,-3.6481,-3.873,-3.9108,-3.8803,-3.7816,-3.7793,-3.7793,-3.7793,-3.7793,-3.8493,-3.9802,-3.9802,-3.9954,-4.0223,-4.0537,-4.0735,0.0,-4.1057,-4.1172,-4.1172,-4.1172,-4.1172,-4.1172,-4.1172,-4.1172,-4.1172,-4.1172,-4.1172,-4.1172,-4.1172,-4.1172,-4.1076,-4.0547,-4.0403,-4.0282,-3.9753,-3.8839,-3.8118,-3.8671,-3.8022,-3.7324,-3.7853,-3.718,-3.6266,-3.5737,-3.5617,-3.5617,-3.5617,-3.5617,-3.5785,-3.6314,-3.6386,-3.6386,-3.6386,-3.5954,-3.5809,-3.6314,-3.593,-3.5809,-3.6314,-3.6386,-3.5545,-3.3477,-3.3308,-3.3308,-3.3284,-3.3284,-3.3284,-3.326,-3.326,-3.326,-3.326,-3.2755,-3.2491,-3.2466,-3.1913,-3.1693,-3.1693,-3.1693,-3.1693,-2.5472,-2.6627,-2.7326,-2.6334,-2.5197,-2.3682,-2.1585,-1.9751,-1.7972,-1.6083,-1.5056,-1.4506,-1.4506,-1.4616,-1.5331,-1.7203,-1.7844,0.0,0.0,0.0,0.0,-2.7012,-3.0641,-3.3405,0.0,-3.5106,-3.5438,-3.5664,-3.4674,-3.3945,-3.3694,-3.3945,-3.5129,-3.7413,-3.7443,-3.7605,-3.7975,-3.7839,-3.7793,-3.7793,-3.816,-3.8678,-3.9268,-3.9639,-3.9954,-4.0223,-4.0281,-4.0479,-4.0735,-4.0792,-4.1024,-4.1172,-4.1172,-4.1172,-4.1172,-4.1172,-4.1172,-4.1172,-4.1172,-4.1172,-4.1124,-4.0763,-4.0884,-4.1076,-4.0547,-4.0403,-4.0282,-3.9753,-3.9369,-3.9056,-3.8864,-3.8575,-3.8359,-3.8503,-3.7733,-3.6988,-3.7204,-3.6675,-3.605,-3.5689,-3.5617,-3.5545,-3.5352,-3.593,-3.6411,-3.6411,-3.6867,-3.7156,-3.6964,-3.6483,-3.6074,-3.5881,-3.5545,-3.5064,-3.439,-3.4342,-3.3885,-3.2827,-3.2755,-3.2587,-3.2247,-3.2223,-3.2223,-3.2223,-3.2054,-3.1937,-3.1937,-3.1789,-3.1717,-3.1717,-3.1717,-3.1717,-2.3253,-2.4592,-2.5378,-2.4519,-2.3352,-2.2016,-2.0387,-1.8815,-1.7238,-1.5771,-1.4964,-1.4506,-1.4506,-1.4634,-1.5221,-1.6709,-1.7495,0.0,0.0,0.0,0.0,-2.6737,0.0,0.0,0.0,-3.4143,-3.4195,-3.432,-3.3316,-3.2575,-3.2384,-3.2511,-3.3694,-3.5869,-3.6544,-3.7281,-3.8086,-3.8137,-3.8091,-3.8091,-3.8436,-3.8781,-3.9117,-3.9464,-3.972,-3.9873,-4.0013,-4.0188,0.0,-4.0479,-4.0711,-4.1024,-4.1024,-4.1081,-4.1172,-4.1172,-4.1172,-4.1172,-4.1172,-4.1172,-4.11,-4.0571,-4.0355,-4.0234,-3.9898,-3.9946,-3.9946,-3.92,-3.9008,-3.896,-3.8839,-3.8671,-3.8599,-3.9008,-3.8455,-3.7902,-3.8214,-3.7781,-3.7108,-3.6362,-3.6218,-3.605,-3.5521,-3.5978,-3.6411,-3.6411,-3.7132,-3.7565,-3.7228,-3.7084,-3.6867,-3.6555,-3.6218,-3.5857,-3.5449,-3.5015,-3.4366,-3.3428,-3.338,-3.3236,-3.2875,-3.2851,-3.2851,-3.2851,-3.2659,-3.2563,-3.2563,-3.237,-3.2319,-3.2319,-3.2319,-3.2319,0.0,-2.34,-2.4134,-2.3297,-2.2217,-2.0955,-1.9476,-1.7935,0.0,-1.5331,-1.4781,-1.4524,-1.4549,-1.4873,-1.5166,-1.5331,-1.6633,0.0,0.0,-2.0979,0.0,0.0,-2.893,0.0,-3.2569,-3.2737,-3.2936,-3.3316,-3.2128,-3.1377,-3.1377,-3.1377,-3.232,-3.432,-3.6194,-3.7471,-3.8096,-3.8445,-3.8642,-3.8642,-3.8642,-3.8872,-3.9308,-3.9308,-3.9308,-3.9308,-3.9626,-3.9802,-3.9802,-4.0071,-4.0363,-4.0735,-4.0735,-4.0908,-4.1172,-4.1172,-4.1172,-4.1172,-4.1172,-4.1172,-4.11,-4.0571,-3.9681,-3.8815,-3.8815,-3.9128,-3.9272,-3.8262,-3.7974,-3.8094,-3.8623,-3.8359,-3.8262,-3.9345,-3.92,-3.8839,-3.8912,-3.8888,-3.8575,-3.7517,-3.73,-3.7132,-3.6603,-3.6555,-3.6555,-3.6531,-3.694,-3.7228,-3.7204,-3.7589,-3.7878,-3.7878,-3.7878,-3.7469,-3.6483,-3.5497,-3.4847,-3.4775,-3.4775,-3.4775,-3.4775,-3.4775,-3.4775,-3.4775,-3.4294,-3.403,-3.3982,-3.3573,-3.3332,-3.3284,-3.3284,-3.3284,-1.8009,0.0,-1.9641,-1.9399,-1.8667,-1.7935,0.0,-1.6688,-1.5808,-1.5221,-1.4781,-1.4689,-1.5294,-1.5239,-1.5698,-1.7568,-1.843,-1.9421,-2.09,-2.3639,0.0,-2.9623,-3.0325,-3.1213,-3.2685,-3.2213,-3.2128,-3.2936,-3.2001,-3.1377,-3.1377,-3.1377,-3.232,-3.432,-3.5355,-3.6621,-3.832,-3.8853,-3.9124,-3.9124,-3.9124,-3.9193,-3.9308,-3.9308,-3.9308,-3.9308,-3.9367,-3.9544,-3.9802,-3.9861,-4.0211,-4.0735,-4.0735,-4.0908,-4.1172,-4.1172,-4.1172,-4.1172,-4.1172,-4.1172,-4.11,-4.0571,-3.9681,-3.8815,-3.8815,-3.8599,-3.831,-3.8046,-3.7974,-3.8022,-3.8142,-3.807,-3.8262,-3.9345,-3.92,-3.9032,-3.985,-3.9705,-3.9224,-3.8575,-3.8431,-3.8262,-3.7709,-3.7974,-3.8118,-3.7685,-3.7709,-3.7637,-3.7252,-3.694,-3.6771,-3.6771,-3.6771,-3.6675,-3.6435,-3.617,-3.5689,-3.4823,-3.4775,-3.4775,-3.4775,-3.4775,-3.4775,-3.4775,-3.4655,-3.439,-3.3982,-3.3862,-3.3669,-3.3284,-3.3284,-3.3284,-1.6523,-1.7459,-1.8319,-1.8174,-1.7642,-1.7128,-1.6945,-1.6138,-1.5349,-1.5148,0.0,-1.4763,-1.5551,-1.5515,-1.5918,-1.7605,-1.8687,0.0,0.0,0.0,-2.7696,-3.0021,-3.0606,-3.1191,-3.2155,-3.1699,-3.1635,-3.2192,-3.1699,-3.1377,-3.1377,-3.1377,-3.2128,-3.3694,-3.4195,-3.5746,-3.838,-3.9012,-3.9308,-3.9308,-3.9308,-3.9308,-3.9308,-3.9308,-3.9308,-3.9308,-3.9308,-3.9426,-3.9567,-3.9743,-4.0095,-4.0479,-4.0677,-4.0908,-4.1172,-4.1172,-4.1172,-4.1172,-4.1172,-4.086,-4.0403,-4.0138,-3.9296,-3.8431,-3.8431,-3.8214,-3.7974,-3.7974,-3.7974,-3.7974,-3.7974,-3.7974,-3.819,-3.9056,-3.9224,-3.9393,-4.021,-4.0355,-4.0186,-3.9657,-3.9537,-3.9296,-3.8503,-3.8623,-3.8623,-3.807,-3.819,-3.8262,-3.7974,-3.7685,-3.7421,-3.7156,-3.6916,-3.6675,-3.6435,-3.6411,-3.617,-3.5593,-3.5545,-3.5545,-3.5545,-3.5545,-3.5449,-3.5184,-3.5184,-3.4871,-3.4366,-3.4366,-3.427,-3.4006,-3.4006,-3.4006,-1.6376,-1.7587,-1.8595,-1.8064,-1.7623,-1.722,-1.689,0.0,0.0,0.0,0.0,0.0,0.0,-1.601,0.0,0.0,0.0,0.0,-2.4666,-2.6481,-2.8022,-2.958,-3.0424,-3.1011,-3.1341,-3.1377,-3.1377,-3.1377,-3.1377,-3.1377,-3.1377,-3.1377,-3.1873,-3.2873,-3.3253,-3.4819,-3.7818,-3.8395,-3.8871,-3.9131,-3.9049,-3.9049,-3.9249,-3.9308,-3.9308,-3.9308,-3.9308,0.0,-3.9308,-3.9684,-3.9954,-4.0223,-4.0537,-4.0908,-4.1172,-4.1172,-4.1172,-4.1172,-4.1172,-4.0547,-3.9705,-3.9633,-3.8936,-3.8094,-3.7998,-3.7974,-3.7974,-3.7974,-3.7974,-3.7974,-3.7974,-3.7974,-3.8142,-3.8791,-3.9272,-3.9777,-4.0379,-4.0812,-4.0932,-4.0475,-4.0331,-3.9994,-3.9104,-3.8936,-3.8743,-3.819,-3.8431,-3.8671,-3.8575,-3.8503,-3.8262,-3.7781,-3.7348,-3.6892,-3.6435,-3.6338,-3.629,-3.629,-3.6362,-3.6411,-3.6411,-3.6411,-3.6194,-3.5737,-3.5737,-3.5473,-3.4895,-3.4895,-3.4847,-3.4775,-3.4775,-3.4775,-1.711,-1.799,-1.8449,-1.7367,-1.6798,-1.6486,-1.6413,-1.5991,0.0,0.0,0.0,0.0,0.0,-1.7513,-1.8247,0.0,0.0,-2.4257,0.0,0.0,-2.9177,-3.0442,0.0,-3.1304,-3.1377,-3.1377,-3.1377,-3.1377,-3.1377,-3.1377,-3.1377,-3.1377,-3.1873,-3.2873,-3.3253,-3.407,-3.5438,-3.5807,-3.6868,-3.8559,-3.7894,-3.8052,-3.8871,-3.919,-3.9308,-3.9308,0.0,-3.9308,-3.9308,-3.9684,-3.9954,-4.0223,-4.0537,-4.0908,-4.1172,-4.1172,-4.1172,-4.1172,-4.1172,-4.0787,-4.0186,-3.9753,-3.92,-3.8599,-3.8118,-3.7974,-3.7974,-3.7974,-3.7974,-3.7974,-3.7974,-3.7974,-3.8238,-3.9248,-3.9561,-3.9874,-4.086,-4.0787,-4.0499,-4.0403,-4.0042,-3.9681,-3.9513,-3.9489,-3.932,-3.8767,-3.8359,-3.795,-3.7493,-3.706,-3.6747,-3.6651,-3.6579,-3.6483,-3.6411,-3.6002,-3.5737,-3.5737,-3.617,-3.6411,-3.6411,-3.6411,-3.6362,-3.629,-3.629,-3.6026,-3.5497,-3.5497,-3.5256,-3.4775,-3.4775,-3.4775,-1.7018,-1.7605,-1.8027,-1.7917,-1.7899,-1.788,-1.766,-1.7293,0.0,0.0,0.0,0.0,0.0,0.0,-2.0173,-2.2447,0.0,-2.5819,-2.7581,-2.8498,-2.9434,-3.0644,-3.1139,-3.1377,-3.1377,-3.1377,-3.1377,-3.1377,-3.1377,-3.1377,-3.1377,-3.1377,-3.1635,-3.2065,-3.2256,-3.281,-3.3819,-3.3442,-3.4445,-3.6746,-3.642,-3.6785,-3.7774,-3.8074,-3.8492,-3.9049,0.0,-3.9308,-3.9308,-3.9684,-3.9954,-4.0223,-4.0537,-4.0908,-4.1172,-4.1172,-4.1172,-4.1172,-4.1172,-4.0836,-4.0306,-3.9777,-3.9248,-3.8719,-3.8142,-3.7974,-3.7974,-3.7974,-3.7974,-3.7974,-3.7974,-3.7974,-3.8094,-3.8599,-3.896,-3.932,-3.9801,-3.9946,-3.997,-3.997,-3.9777,-3.9609,-3.9609,-3.9609,-3.9537,-3.9272,-3.9032,-3.8767,-3.8527,-3.8046,-3.7589,-3.73,-3.7012,-3.6819,-3.6819,-3.6603,-3.6098,-3.5256,-3.5425,-3.5545,-3.5545,-3.5545,-3.5545,-3.5545,-3.5545,-3.5425,-3.5184,-3.5184,-3.5015,-3.4775,-3.4775,-3.4775,-1.7165,-1.7403,-1.7715,-1.8632,-1.8944,-1.9072,-1.9237,-1.8889,-1.8667,0.0,0.0,0.0,0.0,-2.0778,0.0,-2.4666,-2.6021,-2.7197,-2.848,-2.9085,-2.9782,-3.0809,-3.1194,-3.1377,-3.1377,-3.1377,-3.1377,-3.1377,-3.1377,-3.1377,-3.1377,-3.1377,-3.1377,-3.1377,-3.1286,-3.1615,-3.2422,-3.1522,-3.2511,-3.5191,-3.5253,-3.5807,-3.6807,-3.7391,-3.8052,-3.8812,-3.9167,-3.9308,-3.9308,-3.9684,-3.9919,-4.013,-4.0537,-4.0908,-4.1172,-4.1172,-4.1172,-4.1172,-4.1172,-4.0908,-4.0475,-3.9826,-3.932,-3.8864,-3.819,-3.7974,-3.7974,-3.7974,-3.7974,-3.7974,-3.7974,-3.7974,-3.8022,-3.8142,-3.8503,-3.8839,-3.8984,-3.9224,-3.9417,-3.9417,-3.932,-3.9224,-3.9224,-3.9224,-3.9224,-3.9224,-3.9224,-3.9224,-3.9224,-3.8864,-3.8455,-3.8022,-3.7613,-3.7372,-3.7372,-3.7493,-3.7012,-3.5641,-3.5449,-3.5328,-3.5208,-3.5039,-3.5016,-3.5016,-3.4847,-3.4775,-3.4775,-3.4775,-3.4775,-3.4775,-3.4775,-3.4895,-1.8265,-1.8045,-1.777,-1.8962,-1.8724,-1.8649,-2.0521,-2.0356,0.0,-2.1229,0.0,0.0,0.0,-2.3162,-2.4776,-2.5782,-2.7508,-2.8938,-2.9415,-3.0167,-3.0827,-3.1286,-3.1359,-3.1377,-3.1377,-3.1377,-3.1377,-3.1377,-3.1377,-3.1377,-3.1377,-3.1377,-3.1377,-3.1377,-3.1029,-3.0891,-3.0954,-3.0523,-3.1688,-3.4507,-3.4819,-3.5438,-3.6502,-3.8014,-3.873,-3.8812,-3.9167,-3.9308,-3.9308,-3.9684,-3.9802,-3.9861,-4.0503,-4.0908,-4.1172,-4.1172,-4.1172,-4.1172,-4.1172,-4.1148,-4.0956,-3.9946,-3.9585,-3.9345,-3.8286,-3.7974,-3.7974,-3.7974,-3.7974,-3.7974,-3.7974,-3.7974,-3.8118,-3.8623,-3.8791,-3.896,-3.9441,-3.92,-3.8864,-3.8864,-3.8455,-3.8094,-3.8094,-3.8094,-3.8094,-3.8094,-3.8094,-3.8094,-3.8094,-3.807,-3.8022,-3.7998,-3.795,-3.7926,-3.7926,-3.8407,-3.8431,-3.7781,-3.73,-3.6795,-3.6314,-3.5833,-3.5569,-3.5569,-3.5039,-3.4775,-3.4775,-3.4775,-3.4775,-3.4775,-3.4775,-3.5088,-1.7403,-1.7532,-1.7789,-1.8999,-1.9457,0.0,0.0,-2.2043,-2.2758,-2.3474,-2.3694,0.0,0.0,0.0,-2.5837,-2.6646,-2.8205,-2.9489,-2.991,-3.0442,-3.0937,-3.1322,-3.1377,-3.1377,-3.1377,-3.1377,-3.1377,-3.1377,-3.1377,-3.1377,-3.1377,-3.1139,-3.1011,-3.1011,-3.0626,-3.0424,-3.0424,-3.0277,-3.1015,-3.264,-3.3099,-3.4207,-3.5994,-3.7101,-3.8074,-3.8812,-3.9167,-3.9308,-3.9308,-3.9426,-3.9626,-3.9861,-4.0444,-4.0693,-4.0691,-4.0691,-4.0475,-4.0258,-4.0571,-4.0475,-4.0138,-3.9729,-3.9393,-3.9032,-3.8623,-3.8503,-3.8575,-3.8912,-3.8984,-3.8839,-3.8166,-3.7974,-3.8046,-3.8238,-3.831,-3.8359,-3.8551,-3.8431,-3.831,-3.831,-3.8118,-3.7974,-3.7974,-3.7974,-3.7974,-3.7974,-3.7974,-3.7974,-3.7974,-3.7974,-3.7974,-3.7974,-3.8286,-3.8503,-3.8503,-3.9296,-3.9561,-3.9032,-3.8166,-3.7445,-3.6916,-3.6699,-3.6435,-3.6122,-3.5905,-3.5809,-3.5809,-3.5809,-3.5978,-3.629,-3.5954,-3.6098,-1.6872,-1.7018,-1.744,-1.8779,0.0,0.0,-2.219,-2.3455,-2.4624,-2.5381,-2.5546,-2.5617,-2.5617,0.0,0.0,0.0,-2.8718,-2.991,-3.0332,-3.0717,-3.1066,-3.1341,-3.1377,-3.1377,-3.1377,-3.1377,-3.1322,-3.1194,-3.1194,-3.1139,-3.1011,-3.0754,-3.0607,-3.0607,-3.0222,-3.0002,-3.0002,-2.9874,-3.0471,-3.1639,-3.219,-3.3639,-3.5738,-3.6801,-3.7821,-3.8812,-3.9167,-3.9308,-3.9308,-3.9308,-3.9451,-3.9744,-4.0316,-4.0364,-4.0162,-4.0331,-4.0066,-3.9657,-4.0018,-3.9898,-3.9585,-3.9417,-3.9104,-3.8815,-3.8815,-3.8815,-3.8936,-3.9465,-3.9609,-3.9441,-3.8695,-3.8503,-3.8455,-3.8286,-3.8383,-3.8407,-3.8046,-3.8118,-3.819,-3.8022,-3.7974,-3.7974,-3.7974,-3.7974,-3.7974,-3.7974,-3.7974,-3.7974,-3.7974,-3.7974,-3.7974,-3.7974,-3.8479,-3.8815,-3.8815,-3.9633,-3.9994,-3.9633,-3.8912,-3.8334,-3.7974,-3.7805,-3.7541,-3.718,-3.6988,-3.6916,-3.6916,-3.6916,-3.7012,-3.718,-3.6819,-3.6843,-1.7,-1.6615,-1.6691,-1.832,0.0,0.0,-2.3669,-2.4551,-2.5252,-2.6866,-2.6609,-2.6039,-2.6039,-2.637,0.0,-2.7693,-2.914,-3.0332,-3.0736,-3.1121,-3.1377,-3.1377,-3.1377,-3.1377,-3.1377,-3.1377,-3.1212,-3.0809,-3.0791,-3.0607,-3.0222,-3.0204,-3.0185,-3.0185,-2.9782,-2.9562,-2.9562,-2.9177,-2.9962,-3.1805,-3.2519,-3.3862,-3.5776,-3.7361,-3.8358,-3.8789,-3.9167,-3.9308,-3.9308,-3.9308,-3.936,-3.9541,-4.0035,-3.9931,-3.9657,-4.0186,-4.0042,-3.9585,-3.9585,-3.9585,-3.9513,-3.8984,-3.8815,-3.8815,-3.8815,-3.8815,-3.8936,-3.9465,-3.9609,-3.9633,-3.9633,-3.9633,-3.9489,-3.896,-3.9224,-3.932,-3.8238,-3.8431,-3.8671,-3.8094,-3.7998,-3.7998,-3.7998,-3.7998,-3.7974,-3.7998,-3.7974,-3.7974,-3.7974,-3.7974,-3.7974,-3.7974,-3.8479,-3.8815,-3.8815,-3.9296,-3.9609,-3.9609,-3.9609,-3.9609,-3.9609,-3.9104,-3.8815,-3.8815,-3.8262,-3.7998,-3.7998,-3.7998,-3.7733,-3.7204,-3.7204,-3.7204,-1.623,-1.6798,0.0,-1.8871,0.0,0.0,0.0,-2.58,0.0,0.0,-2.8223,-2.7673,-2.7673,-2.7526,0.0,-2.8113,-2.9324,-3.0332,-3.0736,-3.1121,-3.1377,-3.1377,-3.1377,-3.1267,-3.0992,-3.0974,-3.0791,-3.0406,-3.0369,-3.0332,-3.0204,-2.991,-2.9764,-2.9764,-2.936,-2.9159,-2.9159,-2.9048,-2.9962,-3.1805,-3.2424,-3.3853,-3.6073,-3.7479,-3.8293,-3.8686,-3.9089,-3.9308,-3.9308,-3.9308,-3.9243,-3.9127,-3.929,-3.8991,-3.843,-3.8595,-3.8311,-3.7932,-3.8288,-3.8169,-3.7909,-3.8364,-3.8227,-3.8066,-3.8641,-3.908,-3.9489,-4.0018,-4.0427,-4.0715,-4.0715,-4.0715,-4.0499,-3.9585,-3.9489,-3.9513,-3.92,-3.9248,-3.932,-3.9152,-3.8815,-3.8695,-3.9056,-3.8503,-3.8118,-3.8503,-3.8238,-3.7974,-3.7974,-3.7974,-3.7974,-3.7974,-3.8142,-3.8238,-3.8238,-3.8743,-3.9056,-3.9056,-3.9393,-3.9441,-3.908,-3.8912,-3.8815,-3.8815,-3.8647,-3.8767,-3.9128,-3.8743,-3.8671,-3.8864,-3.8094,-3.795,-1.6541,-1.7477,0.0,-1.9769,-2.1988,-2.439,-2.6315,0.0,0.0,0.0,-2.8938,-2.8443,-2.859,-2.815,0.0,-2.8535,-2.9379,-3.0094,-3.0497,-3.0754,-3.0919,-3.0919,-3.0919,-3.0809,-3.0589,-3.0552,-3.0387,-2.9984,-2.9947,-2.9892,-2.9727,-2.947,-2.9342,-2.9342,-2.9104,-2.8975,-2.8975,-2.939,-3.0314,-3.1805,-3.2244,-3.3416,-3.5254,-3.6883,-3.7897,-3.8298,-3.8803,-3.9124,-3.9308,-3.9308,-3.907,-3.871,-3.8919,-3.8414,-3.7613,-3.7825,-3.7566,-3.7136,-3.7496,-3.7402,-3.719,-3.7736,-3.7726,-3.7744,-3.8431,-3.9067,-3.9705,-4.0234,-4.0787,-4.1172,-4.1172,-4.1172,-4.098,-4.0114,-4.009,-4.0114,-3.9705,-3.9777,-3.985,-3.9657,-3.9345,-3.9224,-3.9561,-3.9056,-3.8743,-3.908,-3.8839,-3.8551,-3.8334,-3.831,-3.8238,-3.7998,-3.7974,-3.7974,-3.7974,-3.8286,-3.8479,-3.8479,-3.8791,-3.8815,-3.8503,-3.8912,-3.9128,-3.9128,-3.9128,-3.9296,-3.9609,-3.9296,-3.8957,-3.8532,-3.7871,-3.7418,-1.744,-1.8412,-1.9714,-2.0961,-2.2612,0.0,-2.727,-2.848,-2.914,-2.9489,0.0,-2.8608,-2.8975,-2.8407,-2.8189,-2.8902,-2.9342,-2.9727,-3.0149,-3.0204,-3.0204,-3.0204,-3.0204,-3.0185,-3.0149,-3.0149,-2.9965,-2.9544,-2.9586,-2.936,-2.9012,-2.8975,-2.8975,-2.8975,-2.8975,-2.8975,-2.8975,-2.9922,-3.084,-3.169,-3.2015,-3.2644,-3.3537,-3.5725,-3.6951,-3.7508,-3.8067,-3.8605,-3.9062,-3.918,-3.8781,-3.8235,-3.8699,-3.8125,-3.7082,-3.7551,-3.7434,-3.7012,-3.7012,-3.7012,-3.7012,-3.7089,-3.7304,-3.7637,-3.8214,-3.8957,-3.9705,-4.0234,-4.0787,-4.1172,-4.1172,-4.1172,-4.1076,-4.0595,-4.0836,-4.0932,-3.997,-4.0138,-4.0331,-3.985,-3.9705,-3.9705,-3.9753,-3.9657,-3.9609,-3.9609,-3.9609,-3.9441,-3.896,-3.8888,-3.8695,-3.819,-3.8094,-3.8046,-3.8046,-3.8022,-3.7974,-3.7974,-3.7974,-3.7974,-3.7974,-3.8936,-3.9489,-3.9537,-3.9537,-3.9561,-3.9609,-3.9561,-3.8698,-3.7155,-3.6999,-3.6115,-1.7037,-1.8614,0.0,-2.2126,-2.4721,-2.7178,-2.8443,-2.9104,-2.947,-2.9562,-2.9434,-2.9342,-2.9494,-2.9048,-2.8883,-2.936,-2.9525,-2.9727,-3.0149,-3.0204,-3.0204,-3.0204,-3.0204,-3.0075,-2.9745,-2.9709,-2.9544,-2.914,-2.9104,-2.9067,-2.8993,-2.8975,-2.8975,-2.8975,-2.8975,-2.8975,-2.8975,-2.9922,-3.049,-3.0723,-3.1727,-3.2301,-3.255,-3.3639,-3.445,-3.4933,-3.5786,-3.656,-3.7318,-3.8046,-3.8171,-3.7906,-3.8021,-3.7432,-3.6495,-3.661,-3.6587,-3.6495,-3.6495,-3.6495,-3.6495,-3.6712,-3.6982,-3.7345,-3.816,-3.8957,-3.9705,-4.0234,-4.0787,-4.1172,-4.1172,-4.1172,-4.1148,-4.1052,-4.11,-4.1124,-4.0884,-4.0932,-4.098,-4.086,-4.0499,-4.0355,-4.0763,-4.0162,-3.9609,-3.9609,-3.9609,-3.9561,-3.9441,-3.9441,-3.9393,-3.9272,-3.8888,-3.8647,-3.8647,-3.8238,-3.7974,-3.7974,-3.7974,-3.7974,-3.7974,-3.8214,-3.8527,-3.8984,-3.8984,-3.92,-3.9609,-3.92,-3.8748,-3.8411,-3.7037,-3.6182,-1.7513,0.0,0.0,-2.4335,0.0,-2.8042,-2.8792,-2.914,-2.9287,-2.9287,-2.9494,-2.9562,-2.9562,-2.925,-2.9048,-2.925,-2.9287,-2.936,-2.958,-2.9617,-2.9617,-2.9617,-2.9617,-2.9525,-2.9305,-2.9287,-2.9195,-2.8993,-2.8975,-2.8975,-2.8975,-2.8975,-2.8975,-2.8975,-2.8975,-2.8975,-2.8975,-2.9922,-3.0392,-3.0392,-3.1053,-3.1111,-3.0704,-3.2296,-3.3302,-3.3855,-3.473,-3.5591,-3.648,-3.7623,-3.7827,-3.7448,-3.7701,-3.7173,-3.6332,-3.6332,-3.6332,-3.6332,-3.6332,-3.6332,-3.6332,-3.6495,-3.6712,-3.7075,-3.7918,-3.8737,-3.9539,-4.0178,-4.0787,-4.1172,-4.1172,-4.1172,-4.1172,-4.1172,-4.1172,-4.1172,-4.1172,-4.1172,-4.1172,-4.1172,-4.0956,-4.086,-4.1124,-4.0739,-4.0355,-4.0355,-4.0355,-4.0258,-4.0018,-3.9994,-3.9898,-3.9633,-3.9369,-3.92,-3.92,-3.8936,-3.8767,-3.8767,-3.8767,-3.8647,-3.8383,-3.8383,-3.8383,-3.8407,-3.8407,-3.8281,-3.7997,-3.766,-3.6974,-3.5848,-3.4969,-3.419,-1.7807,0.0,-2.273,-2.6224,-2.7416,0.0,-2.8718,-2.8938,-2.8975,-2.8975,-2.925,-2.947,-2.947,-2.9195,-2.8975,-2.8975,-2.8975,-2.8975,-2.8975,-2.8975,-2.8975,-2.8975,-2.8975,-2.8975,-2.8975,-2.8975,-2.8975,-2.8975,-2.8975,-2.8975,-2.8975,-2.8975,-2.8975,-2.8975,-2.8975,-2.8975,-2.8975,-2.9922,-3.0333,-3.0157,-3.0157,-2.9745,-2.9035,-3.1091,-3.2197,-3.2679,-3.3607,-3.4575,-3.5591,-3.7027,-3.7393,-3.7107,-3.7632,-3.7219,-3.6392,-3.63,-3.6332,-3.6332,-3.6332,-3.6332,-3.6332,-3.6332,-3.6495,-3.6882,-3.7911,-3.8635,-3.9419,-4.0362,-4.0851,-4.1196,-4.1139,-4.1172,-4.1172,-4.1172,-4.1172,-4.1172,-4.1172,-4.1172,-4.1172,-4.1172,-4.1172,-4.1172,-4.1172,-4.1172,-4.1172,-4.1172,-4.1172,-4.1028,-4.0595,-4.0523,-4.0355,-3.9922,-3.9801,-3.9753,-3.9753,-3.9657,-3.9609,-3.9609,-3.9609,-3.9417,-3.8984,-3.896,-3.8695,-3.8142,-3.7862,-3.7227,-3.6177,-3.6013,-3.4891,-3.297,-3.2799,-3.219,-1.6376,0.0,-2.337,0.0,-2.7215,-2.795,0.0,0.0,-2.8975,0.0,-2.903,-2.9067,-2.9067,-2.9012,-2.8975,-2.8975,-2.8975,-2.8975,-2.8975,-2.8975,-2.8975,-2.8975,-2.8975,-2.8975,-2.8975,-2.8975,-2.8975,-2.8975,-2.8975,-2.8975,-2.8975,-2.8975,-2.8975,-2.8975,-2.8975,-2.8975,-2.8975,-2.9922,-2.9981,-2.9213,-2.9213,-2.9094,-2.8975,-2.9331,-2.9527,-2.9643,-3.0567,-3.1856,-3.3451,-3.5162,-3.6454,-3.736,-3.7713,-3.7425,-3.6874,-3.6438,-3.6332,-3.6332,-3.6332,-3.6332,-3.6332,-3.6332,-3.6495,-3.7022,-3.8756,-3.9282,-3.9507,-4.0959,-4.1253,-4.1115,-4.085,-4.0942,-4.1172,-4.1172,-4.1172,-4.1172,-4.1172,-4.1172,-4.1172,-4.1172,-4.1172,-4.1172,-4.1172,-4.1172,-4.1172,-4.1172,-4.1172,-4.1148,-4.1076,-4.1076,-4.1052,-4.098,-4.0571,-4.0282,-4.0282,-3.9874,-3.9609,-3.9609,-3.9609,-3.9585,-3.9513,-3.9513,-3.9248,-3.8719,-3.7192,-3.634,-3.6177,-3.5168,-3.4503,-3.4168,-3.3176,-3.2628,-1.7623,-2.0387,-2.3187,0.0,-2.6848,-2.7325,-2.8205,-2.8535,-2.8718,-2.8938,-2.8975,-2.8975,-2.8975,-2.8975,-2.8975,-2.8975,-2.8975,-2.8975,-2.8975,-2.8975,-2.8975,-2.8975,-2.8975,-2.8975,-2.8975,-2.8975,-2.8975,-2.8975,-2.8975,-2.8975,-2.8975,-2.8975,-2.8975,-2.8975,-2.8975,-2.8975,-2.8975,-2.939,-2.939,-2.8975,-2.8975,-2.8975,-2.8975,-2.8975,-2.8975,-2.9035,-2.9981,-3.0879,-3.1856,-3.372,-3.4689,-3.5114,-3.609,-3.5777,-3.4954,-3.558,-3.5566,-3.5378,-3.584,-3.6114,-3.6332,-3.6332,-3.657,-3.7142,-3.8731,-3.9192,-3.94,-4.0822,-4.094,-4.0595,-4.0479,-4.0537,-4.0653,-4.0653,-4.0653,-4.0653,-4.0653,-4.0942,-4.1172,-4.1172,-4.1172,-4.1172,-4.1172,-4.1172,-4.0942,-4.0199,-4.0083,-4.0083,-4.0083,-4.0083,-4.0374,-4.1115,-4.098,-4.0526,-3.9812,-4.0197,-4.0192,-3.9403,-4.0078,-3.9992,-3.8981,-3.8924,-3.8328,-3.7065,-3.6809,-3.6177,-3.5168,-3.4022,-3.3119,-3.2457,-3.1903,-3.1672,0.0,0.0,-2.197,-2.4922,-2.5968,-2.6573,0.0,0.0,-2.8352,0.0,-2.8828,-2.8865,-2.8975,-2.8975,-2.8975,-2.8975,-2.8975,-2.8975,-2.8975,-2.8975,-2.8975,-2.8975,-2.8975,-2.8975,-2.8975,-2.8975,-2.8975,-2.8975,-2.8975,-2.8975,-2.8975,-2.8975,-2.8975,-2.8975,-2.8975,-2.8975,-2.8975,-2.8975,-2.8975,-2.8975,-2.8975,-2.8975,-2.8975,-2.8975,-2.8975,-2.9035,-2.9745,-3.0314,-3.082,-3.2394,-3.3168,-3.3417,-3.4466,-3.4286,-3.3489,-3.435,-3.4547,-3.4413,-3.4858,-3.5323,-3.5708,-3.5708,-3.6193,-3.7065,-3.8643,-3.914,-3.9465,-4.0727,-4.0657,-4.0165,-4.013,-4.0165,-4.0223,-4.0223,-3.9989,-3.9791,-4.0106,-4.0571,-4.0942,-4.0942,-4.0942,-4.0942,-4.0942,-4.0687,-4.0141,-3.9239,-3.8803,-3.8625,-3.8684,-3.8744,-3.9098,-4.0083,-4.0513,-4.0141,-3.8803,-3.9966,-4.0141,-3.8803,-3.965,-3.9546,-3.8199,-3.8118,-3.7426,-3.5947,-3.6232,-3.5688,-3.4138,-3.2841,-3.1787,-3.0898,-3.0898,-3.0898,0.0,-1.7972,0.0,-2.2291,-2.4299,-2.5708,0.0,0.0,-2.7969,-2.8333,-2.8425,-2.8535,-2.892,-2.8975,-2.8975,-2.8975,-2.8975,-2.8975,-2.8975,-2.8975,-2.8975,-2.8975,-2.8975,-2.8975,-2.8975,-2.8975,-2.8975,-2.8975,-2.8975,-2.8975,-2.8975,-2.8975,-2.8975,-2.8975,-2.8975,-2.8975,-2.8975,-2.8975,-2.8975,-2.8975,-2.8975,-2.8975,-2.8975,-2.8975,-2.8975,-2.8975,-2.9035,-2.9568,-3.047,-3.1368,-3.2435,-3.3592,-3.3534,-3.3675,-3.3844,-3.3069,-3.3325,-3.3888,-3.3077,-3.336,-3.4134,-3.4134,-3.4989,-3.6471,-3.8706,-3.9556,-3.9965,-4.0964,-4.0761,-4.0106,-3.9919,-4.0013,-4.0223,-4.0223,-3.9298,-3.8744,-3.9908,-4.0223,-4.0223,-4.0223,-4.0223,-4.0223,-4.0223,-3.9239,-3.8506,-3.8789,-3.773,-3.7045,-3.7369,-3.7429,-3.7429,-3.7489,-3.8566,-3.8803,-3.7489,-3.8566,-3.8744,-3.7489,-3.7489,-3.7467,-3.7385,-3.7385,-3.7106,-3.6507,-3.5392,-3.4354,-3.3364,-3.1756,-3.0957,-3.0898,-3.0898,-3.0898,0.0,0.0,0.0,-2.0863,-2.2565,-2.4097,-2.5179,-2.6243,-2.7123,-2.7526,-2.782,-2.8113,-2.8535,-2.881,-2.8975,-2.8975,-2.8975,-2.8975,-2.8975,-2.8975,-2.8975,-2.8975,-2.8755,-2.8608,-2.8608,-2.837,-2.8263,-2.8263,-2.8263,-2.8263,-2.8263,-2.8263,-2.8263,-2.8263,-2.8462,-2.8718,-2.8975,-2.8975,-2.8975,-2.8975,-2.8975,-2.8975,-2.8975,-2.8975,-2.8975,-2.8975,-2.8975,-2.9213,-2.9546,-3.0118,-3.0774,-3.1482,-3.176,-3.1738,-3.1587,-3.1933,-3.2015,-3.1957,-3.2223,-3.268,-3.314,-3.3377,-3.4017,-3.5007,-3.6424,-3.6907,-3.7097,-3.7786,-3.7566,-3.727,-3.7796,-3.8134,-3.8328,-3.8328,-3.7369,-3.6581,-3.7006,-3.8588,-3.9989,-4.0165,-4.0223,-3.9908,-3.9121,-3.9474,-3.8944,-3.6338,-3.6642,-3.6803,-3.5909,-3.5971,-3.6399,-3.7248,-3.773,-3.7489,-3.6215,-3.7248,-3.7429,-3.6154,-3.6824,-3.6946,-3.6093,-3.6093,-3.5601,-3.4512,-3.3818,-3.3558,-3.3664,-3.2077,-3.1289,-3.1289,-3.1016,-3.0898,-1.5184,0.0,0.0,0.0,0.0,-2.2053,-2.428,-2.5179,-2.5839,-2.6793,-2.7196,-2.7545,-2.8077,-2.8407,-2.8627,-2.8773,-2.8663,-2.8572,-2.8572,-2.8572,-2.8572,-2.8572,-2.8352,-2.8187,-2.8187,-2.7987,-2.7822,-2.7822,-2.7822,-2.7822,-2.7822,-2.7822,-2.7822,-2.7822,-2.804,-2.837,-2.8773,-2.8792,-2.8847,-2.8975,-2.8975,-2.8975,-2.8975,-2.8975,-2.8975,-2.8975,-2.8975,-2.8975,-2.9012,-2.9269,-2.9709,-3.0211,-3.0306,-3.0256,-3.0217,-3.068,-3.0781,-3.0723,-3.1053,-3.1439,-3.1923,-3.247,-3.3093,-3.3861,-3.5067,-3.5542,-3.5707,-3.5998,-3.577,-3.5561,-3.6197,-3.6542,-3.6581,-3.6072,-3.5602,-3.5129,-3.4819,-3.6642,-3.835,-3.8529,-3.8588,-3.835,-3.761,-3.791,-3.7369,-3.4798,-3.5046,-3.517,-3.4195,-3.4278,-3.4757,-3.5725,-3.6215,-3.6032,-3.4819,-3.5909,-3.6093,-3.4819,-3.554,-3.5602,-3.4757,-3.4715,-3.434,-3.3418,-3.3144,-3.3223,-3.3761,-3.2414,-3.1738,-3.1738,-3.1445,-3.1328,0.0,0.0,0.0,0.0,0.0,0.0,-2.3675,0.0,-2.3974,-2.6078,-2.6499,-2.6756,-2.76,-2.7803,-2.7932,-2.8297,-2.8022,-2.7822,-2.7822,-2.7822,-2.7822,-2.7822,-2.7803,-2.7803,-2.7803,-2.7803,-2.7785,-2.7785,-2.7785,-2.7785,-2.7785,-2.7785,-2.7803,-2.7803,-2.7803,-2.8005,-2.837,-2.8388,-2.859,-2.8975,-2.8975,-2.8975,-2.8975,-2.8975,-2.8975,-2.8975,-2.8975,-2.8975,-2.8975,-2.8975,-2.947,-3.0112,-2.9305,-2.9489,-3.0094,-2.9287,-2.9568,-3.0216,-2.9331,-2.9568,-3.0487,-3.1293,-3.2138,-3.3139,-3.4871,-3.564,-3.5934,-3.5934,-3.5645,-3.5314,-3.5314,-3.5314,-3.5005,-3.3694,-3.4133,-3.4507,-3.3568,-3.4383,-3.5314,-3.5376,-3.5376,-3.55,-3.5746,-3.4507,-3.3694,-3.4258,-3.2975,-3.2038,-3.2358,-3.2422,-3.2549,-3.2848,-3.409,-3.4445,-3.3481,-3.457,-3.4777,-3.3481,-3.3355,-3.3355,-3.3355,-3.3355,-3.3355,-3.3355,-3.3355,-3.3355,-3.3355,-3.2598,-3.2248,-3.2248,-3.2229,-3.2229,-1.4488,0.0,0.0,0.0,0.0,0.0,0.0,0.0,-2.154,-2.3865,-2.434,-2.4996,-2.6976,-2.7105,-2.705,-2.7453,-2.7655,-2.7822,-2.7822,-2.7822,-2.7822,-2.7822,-2.7508,-2.7399,-2.7399,-2.7086,-2.6921,0.0,-2.6921,-2.6921,-2.6921,-2.6921,-2.705,-2.7325,-2.7399,-2.7526,-2.793,-2.8242,-2.8443,-2.8553,-2.8847,-2.8975,-2.8975,-2.8975,-2.8975,-2.8975,-2.8975,-2.8975,-2.8975,-2.8975,-2.947,-3.0112,-2.9305,-2.9489,-3.0094,-2.9287,-2.9153,-2.9331,-2.9094,-2.9338,-2.9911,-3.0451,-3.0941,-3.1558,-3.232,-3.2599,-3.2727,-3.2727,-3.2587,-3.2746,-3.3694,-3.3757,-3.3568,-3.3442,-3.2873,-3.232,-3.2001,-3.2256,-3.3063,-3.5005,-3.5376,-3.5129,-3.4258,-3.4654,-3.4467,-3.2492,-3.3063,-3.3272,-3.2166,-3.223,-3.2549,-3.2848,-3.3228,-3.3418,-3.3418,-3.3733,-3.3796,-3.3418,-3.3165,-3.3038,-3.3038,-3.2804,-3.2804,-3.3038,-3.2804,-3.2804,-3.3038,-3.2766,-3.2617,-3.2617,-3.2305,-3.2229,-1.4854,0.0,0.0,0.0,0.0,0.0,-1.8926,-1.9531,-2.0369,0.0,-2.3499,-2.4029,-2.5858,-2.5986,-2.6023,-2.6627,-2.6921,-2.7123,-2.7307,-2.727,-2.727,-2.727,-2.7068,-2.694,-2.694,-2.6719,-2.6591,-2.6591,-2.6591,-2.6591,-2.6591,-2.6591,-2.6701,-2.6921,-2.694,-2.7123,-2.7564,-2.793,-2.8223,-2.8407,-2.8792,-2.8975,-2.8975,-2.8975,-2.8975,-2.8975,-2.8975,-2.8975,-2.8993,-2.9159,-2.9617,-3.013,-2.9489,-2.9617,-3.0094,-2.9287,-2.8975,-2.8975,-2.8975,-2.9232,-2.9672,-3.0259,-3.0607,-3.0901,-3.1469,-3.1524,-3.1377,-3.1377,-3.1377,-3.157,-3.2384,-3.2447,-3.232,-3.2511,-3.1937,-3.1377,-3.1377,-3.1377,-3.1873,-3.3442,-3.3757,-3.3505,-3.2892,-3.3422,-3.3422,-3.1827,-3.2511,-3.2829,-3.1846,-3.1846,-3.2102,-3.2422,-3.2613,-3.2804,-3.2975,-3.3228,-3.3292,-3.2975,-3.2912,-3.2867,-3.2676,-3.2485,-3.2485,-3.2676,-3.2485,-3.2485,-3.2676,-3.2681,-3.2628,-3.2628,-3.2378,-3.2386,-1.557,-1.5661,0.0,0.0,-1.6395,0.0,-1.9677,-1.9714,-1.9787,0.0,-2.2968,-2.3261,-2.4317,-2.4556,-2.4794,-2.5506,-2.58,-2.6113,-2.6518,-2.6591,-2.6591,-2.6591,-2.6591,-2.6591,-2.6591,-2.6591,-2.6591,-2.6591,-2.6591,-2.6591,-2.6591,-2.6591,-2.6591,-2.6591,-2.6591,-2.6756,-2.7105,-2.7601,-2.7948,-2.8333,-2.8773,-2.8975,-2.8975,-2.8975,-2.8975,-2.8975,-2.8975,-2.8975,-2.9012,-2.9452,-2.9855,-3.0167,-2.9727,-2.9837,-3.0094,-2.9287,-2.8975,-2.8993,-2.903,-2.9305,-2.9764,-3.0534,-3.0827,-3.0992,-3.1726,-3.1671,-3.1377,-3.1377,-3.1377,-3.1377,-3.1377,-3.1377,-3.1377,-3.1377,-3.1377,-3.1377,-3.1377,-3.1377,-3.1377,-3.1377,-3.1377,-3.1506,-3.1782,-3.1589,-3.1506,-3.1782,-3.157,-3.1377,-3.1377,-3.1377,-3.1506,-3.1846,-3.2166,-3.2358,-3.2422,-3.2912,-3.3038,-3.2422,-3.2676,-3.2676,-3.2358,-3.2294,-3.2294,-3.2358,-3.2358,-3.2358,-3.2294,-3.2358,-3.2422,-3.2422,-3.2422,-3.2549,-1.7073,-1.733,-1.7477,-1.6743,0.0,0.0,-1.6468,-1.6835,-1.7807,0.0,-1.9659,-2.0301,-2.241,-2.3041,-2.3206,-2.307,-2.4409,-2.58,-2.6481,-2.6591,-2.6591,-2.6591,-2.6591,-2.6591,-2.6591,-2.6591,-2.6591,-2.6591,-2.6591,-2.6591,-2.6591,-2.6591,-2.6591,-2.6591,-2.6591,-2.6628,-2.6701,-2.7473,-2.7858,-2.795,-2.8627,-2.8975,-2.8975,-2.8975,-2.8975,-2.8975,-2.8975,-2.8975,-2.9048,-2.9764,-3.013,-3.0167,-2.9727,-2.9837,-3.0094,-2.9287,-2.8975,-2.903,-2.9342,-2.9727,-3.0149,-3.0626,-3.1011,-3.1286,-3.1451,-3.1433,-3.1377,-3.1377,-3.1377,-3.1377,-3.1377,-3.1377,-3.1377,-3.1377,-3.1377,-3.1377,-3.1377,-3.1377,-3.1377,-3.1377,-3.1377,-3.1442,-3.1506,-3.1442,-3.1442,-3.1506,-3.1442,-3.1377,-3.1377,-3.1377,-3.1506,-3.1846,-3.1974,-3.2102,-3.2358,-3.2549,-3.2549,-3.2422,-3.223,-3.2038,-3.1974,-3.1717,-3.1699,-3.1974,-3.1974,-3.1846,-3.157,-3.2166,-3.2422,-3.2422,-3.2422,-3.2422,-1.7972,-1.7972,-1.799,-1.7623,0.0,0.0,0.0,-1.6908,-1.7367,-1.8981,-1.8834,-1.8942,-2.0753,-2.1083,-2.1284,-2.1888,-2.3235,-2.4372,-2.4977,-2.5949,-2.6591,-2.6591,-2.6591,-2.6591,-2.6591,-2.6591,-2.6591,-2.6591,-2.6591,-2.6591,-2.6591,-2.6591,-2.6591,-2.6591,-2.6591,-2.6591,-2.6591,-2.7417,-2.7822,-2.784,-2.859,-2.8975,-2.8975,-2.8975,-2.8975,-2.8975,-2.8975,-2.8975,-2.9048,-2.9855,-3.0204,-3.0185,-2.9965,-2.9892,-2.9819,-2.9214,-2.8975,-2.9048,-2.9434,-2.9855,-3.0259,-3.0662,-3.1047,-3.1377,-3.1377,-3.1377,-3.1377,-3.1377,-3.1377,-3.1377,-3.1377,-3.1377,-3.1377,-3.1377,-3.1377,-3.1377,-3.1377,-3.1377,-3.1377,-3.1377,-3.1377,-3.1377,-3.1377,-3.1377,-3.1377,-3.1377,-3.1377,-3.1377,-3.1377,-3.1377,-3.1442,-3.1653,-3.1782,-3.191,-3.1891,-3.223,-3.2294,-3.1891,-3.191,-3.1846,-3.1653,-3.1506,-3.1506,-3.1653,-3.1653,-3.157,-3.1377,-3.1763,-3.1891,-3.1891,-3.1891,-3.1974,0.0,0.0,0.0,0.0,0.0,-1.7807,0.0,0.0,0.0,0.0,0.0,0.0,0.0,0.0,0.0,-2.0662,0.0,0.0,0.0,-2.4537,0.0,-2.5986,-2.6206,-2.6353,-2.6353,-2.6206,-2.6224,-2.6444,-2.6243,-2.6224,-2.6463,-2.6554,-2.6591,-2.6591,-2.6591,-2.6591,-2.6591,-2.7417,-2.7822,-2.784,-2.859,-2.8975,-2.8975,-2.8975,-2.8975,-2.8975,-2.8975,-2.8975,-2.9048,-2.9855,-3.0149,-3.0094,-3.0167,-2.9984,-2.9635,-2.9159,-2.8975,-2.9048,-2.9525,-2.991,-3.0277,-3.0754,-3.1121,-3.1377,-3.1377,-3.1377,-3.1377,-3.1377,-3.1377,-3.1377,-3.1377,-3.1377,-3.1377,-3.1377,-3.1377,-3.1377,-3.1377,-3.1377,-3.1377,-3.1377,-3.1377,-3.1377,-3.1377,-3.1377,-3.1377,-3.1377,-3.1377,-3.1377,-3.1377,-3.1377,-3.1377,-3.1377,-3.1653,-3.1717,-3.1442,-3.1891,-3.1955,-3.1442,-3.1653,-3.1653,-3.1377,-3.1377,-3.1377,-3.1377,-3.1377,-3.1377,-3.1377,-3.1377,-3.1377,-3.1377,-3.1377,-3.157,0.0,0.0,0.0,0.0,-1.9677,0.0,0.0,0.0,-1.7715,-1.6874,0.0,0.0,0.0,0.0,0.0,0.0,0.0,0.0,-2.0332,-2.1723,-2.3023,-2.3755,-2.4849,-2.5561,-2.5561,-2.49,-2.4918,-2.6002,-2.5084,-2.4955,-2.6021,-2.6389,-2.6591,-2.6591,-2.6591,-2.6591,-2.6591,-2.7417,-2.7822,-2.784,-2.859,-2.8975,-2.8975,-2.8975,-2.8975,-2.8975,-2.8975,-2.8975,-2.9048,-2.9855,-2.9984,-2.9672,-3.0057,-3.0167,-3.0039,-2.9269,-2.8975,-2.9085,-2.9855,-3.0167,-3.0332,-3.1066,-3.1341,-3.1377,-3.1377,-3.1377,-3.1377,-3.1377,-3.1377,-3.1377,-3.1377,-3.1377,-3.1377,-3.1377,-3.1377,-3.1377,-3.1377,-3.1377,-3.1377,-3.1377,-3.1377,-3.1377,-3.1377,-3.1377,-3.1377,-3.1377,-3.1377,-3.1377,-3.1377,-3.1377,-3.1377,-3.1377,-3.1442,-3.1442,-3.1377,-3.1442,-3.1506,-3.1377,-3.1442,-3.1442,-3.1377,-3.1377,-3.1377,-3.1377,-3.1377,-3.1377,-3.1377,-3.1377,-3.1377,-3.1377,-3.1377,-3.1442,0.0,0.0,0.0,0.0,0.0,0.0,-1.7789,0.0,-1.702,0.0,0.0,0.0,0.0,0.0,0.0,0.0,-1.8614,0.0,0.0,0.0,-2.1357,0.0,0.0,0.0,-2.3914,-2.3859,-2.4115,-2.49,-2.4225,-2.4335,-2.5598,-2.6058,-2.6334,-2.6591,-2.6591,-2.6591,-2.6591,-2.7417,-2.7822,-2.784,-2.859,-2.8975,-2.8975,-2.8975,-2.8975,-2.8975,-2.8975,-2.9104,-2.936,-2.9965,-3.0094,-2.9947,-3.013,-3.0057,-2.9764,-2.9195,-2.9122,-2.9415,-3.0002,-3.0351,-3.0626,-3.1194,-3.1377,-3.1377,-3.1377,-3.1377,-3.1377,-3.1377,-3.1377,-3.1377,-3.1377,-3.1377,-3.1377,-3.1377,-3.1377,-3.1377,-3.1377,-3.1377,-3.1377,-3.1377,-3.1377,-3.1377,-3.1377,-3.1377,-3.1377,-3.1377,-3.1377,-3.1377,-3.1377,-3.1377,-3.1377,-3.1377,-3.1377,-3.1377,-3.1377,-3.1377,-3.1377,-3.1377,-3.1377,-3.1377,-3.1377,-3.1377,-3.1377,-3.1377,-3.1377,-3.1377,-3.1377,-3.1377,-3.1377,-3.1377,-3.1377,-3.1377,-2.1559,0.0,0.0,0.0,0.0,0.0,0.0,0.0,0.0,0.0,0.0,0.0,0.0,0.0,0.0,0.0,0.0,-1.8412,0.0,-1.8484,0.0,0.0,0.0,0.0,0.0,-2.2602,-2.2858,-2.3767,-2.3143,-2.34,-2.501,-2.558,-2.6039,-2.6408,-2.6536,-2.6591,-2.6591,-2.7417,-2.7822,-2.784,-2.859,-2.8975,-2.8975,-2.8975,-2.8975,-2.8975,-2.8975,-2.9214,-2.9599,-3.002,-3.0204,-3.0204,-3.0204,-2.9947,-2.9525,-2.9122,-2.9232,-2.9635,-3.0057,-3.0534,-3.0992,-3.1286,-3.1377,-3.1377,-3.1377,-3.1377,-3.1377,-3.1377,-3.1377,-3.1377,-3.1377,-3.1377,-3.1377,-3.1377,-3.1469,-3.1543,-3.1543,-3.1634,-3.1708,-3.1708,-3.1708,-3.1708,-3.1708,-3.1524,-3.1377,-3.1377,-3.1377,-3.1377,-3.1377,-3.1377,-3.1377,-3.1377,-3.1377,-3.1377,-3.1377,-3.1377,-3.1377,-3.1377,-3.1377,-3.1377,-3.1377,-3.1377,-3.1377,-3.1377,-3.1377,-3.1377,-3.1377,-3.1377,-3.1377,-3.1377,-3.1377,-3.1377,0.0,0.0,0.0,-2.0631,0.0,0.0,0.0,0.0,-1.854,0.0,0.0,0.0,0.0,0.0,0.0,0.0,0.0,0.0,0.0,0.0,0.0,0.0,0.0,0.0,0.0,-2.09,-2.0827,0.0,-2.1467,-2.1658,-2.411,-2.501,-2.5617,-2.6021,-2.6371,-2.6591,-2.6591,-2.7417,-2.7822,-2.784,-2.859,-2.8975,-2.8975,-2.8975,-2.8975,-2.8975,-2.8975,-2.9214,-2.9599,-3.002,-3.0204,-3.0204,-3.0204,-2.9947,-2.9525,-2.9122,-2.9232,-2.9635,-3.0057,-3.0717,-3.1359,-3.1377,-3.1377,-3.1377,-3.1377,-3.1377,-3.1377,-3.1377,-3.1377,-3.1377,-3.1377,-3.1377,-3.1377,-3.1377,-3.1689,-3.1983,-3.1983,-3.2294,-3.2551,-3.2551,-3.2551,-3.2551,-3.2551,-3.1909,-3.1377,-3.1377,-3.1377,-3.1377,-3.1377,-3.1377,-3.1377,-3.1377,-3.1377,-3.1377,-3.1377,-3.1377,-3.1377,-3.1377,-3.1377,-3.1377,-3.1377,-3.1377,-3.1377,-3.1377,-3.1377,-3.1377,-3.1377,-3.1377,-3.1377,-3.1377,-3.1377,-3.1377,0.0,0.0,-2.479,-2.2153,0.0,0.0,0.0,0.0,0.0,0.0,0.0,0.0,0.0,0.0,0.0,0.0,0.0,0.0,0.0,0.0,0.0,0.0,0.0,0.0,0.0,0.0,0.0,-2.1229,-2.079,-2.1475,-2.3639,-2.4537,-2.5341,-2.5984,-2.6371,-2.6591,-2.6591,-2.7417,-2.7822,-2.784,-2.859,-2.8975,-2.8975,-2.8975,-2.8975,-2.8975,-2.8975,-2.936,-3.0002,-3.0149,-3.0204,-3.0204,-3.0204,-2.9782,-2.9195,-2.9324,-2.9635,-3.0075,-3.0754,-3.1157,-3.1377,-3.1377,-3.1377,-3.1377,-3.1377,-3.1377,-3.1377,-3.1377,-3.1579,-3.1799,-3.1799,-3.1983,-3.2184,-3.2184,-3.2294,-3.2404,-3.2404,-3.2496,-3.2588,-3.2588,-3.2588,-3.2588,-3.2588,-3.2368,-3.2093,-3.1836,-3.1799,-3.1689,-3.1414,-3.1377,-3.1377,-3.1377,-3.1377,-3.1377,-3.1377,-3.1377,-3.1377,-3.1377,-3.1377,-3.1377,-3.1377,-3.1377,-3.1377,-3.1377,-3.1377,-3.1377,-3.1377,-3.1377,-3.1377,-3.1377,-3.1377,-3.1377,-2.6149,-2.626,0.0,-2.373,-2.2887,0.0,-1.9857,0.0,-2.0704,0.0,0.0,0.0,0.0,0.0,0.0,0.0,0.0,0.0,0.0,-1.4726,0.0,0.0,0.0,0.0,0.0,0.0,-1.9125,-2.0429,-1.9948,-2.057,0.0,-2.395,-2.4918,-2.558,-2.6224,-2.6664,-2.6793,-2.7491,-2.7895,-2.8003,-2.8663,-2.8975,-2.8975,-2.8975,-2.8975,-2.8993,-2.914,-2.958,-3.0204,-3.0204,-3.0204,-3.0185,-3.0039,-2.9654,-2.9214,-2.947,-2.9929,-3.0497,-3.1157,-3.1377,-3.1377,-3.1377,-3.1377,-3.1377,-3.1377,-3.1377,-3.1414,-3.1561,-3.1799,-3.2038,-3.2184,-3.2404,-3.2588,-3.2588,-3.2716,-3.2826,-3.2826,-3.2936,-3.3028,-3.3028,-3.3028,-3.3028,-3.3028,-3.3028,-3.2845,-3.2294,-3.2221,-3.2111,-3.1836,-3.1689,-3.1598,-3.1598,-3.1469,-3.1377,-3.1377,-3.1377,-3.1377,-3.1377,-3.1377,-3.1377,-3.1377,-3.1377,-3.1377,-3.1377,-3.1377,-3.1377,-3.1377,-3.1377,-3.1377,-3.1377,-3.1377,-3.1377]},{"header":{"parameterUnit":"m.s-1","parameterCategory":1,"la1":30.6,"la2":29.2853,"lo1":-89.7004,"lo2":-87.6739,"dy":0.0162,"dx":0.0183,"nx":112,"ny":82,"refTime":"2026-02-27T12:00:00:Z","depth":0,"parameterNumber":3,"parameterNumberName":"V-component_of_WINDS"},"data":[0.0,0.0,0.0,0.0,0.0,0.0,0.0,0.0,0.0,0.0,0.0,0.0,0.0,0.0,0.0,0.0,0.0,0.0,0.0,0.0,0.0,0.0,0.0,0.0,0.0,0.0,0.0,0.0,0.0,0.0,0.0,0.0,0.0,0.0,0.0,0.0,0.0,0.0,0.0,0.0,0.0,0.0,0.0,0.0,0.0,0.0,0.0,0.0,0.0,0.0,0.0,0.0,0.0,0.0,0.0,0.0,0.0,0.0,0.0,0.0,0.0,0.0,0.0,0.0,0.0,0.0,0.0,0.0,0.0,0.0,0.0,0.0,0.0,0.0,0.0,0.0,0.0,0.0,0.0,0.0,0.0,0.0,0.0,0.0,0.0,0.0,0.0,0.0,0.0,0.0,1.8123,1.9886,2.1734,2.2763,2.2553,2.1515,2.0068,1.8235,0.0,0.0,0.0,0.0,0.0,0.0,0.0,0.0,0.0,0.0,0.0,0.0,0.0,0.0,0.0,0.0,0.0,0.0,0.0,0.0,0.0,0.0,0.0,0.0,0.0,0.0,0.0,0.0,0.0,0.0,0.0,0.0,0.0,0.0,0.0,0.0,0.0,0.0,0.0,0.0,0.0,0.0,0.0,0.0,0.0,0.0,0.0,0.0,0.0,0.0,0.0,0.0,0.0,0.0,0.0,0.0,0.0,0.0,0.0,0.0,0.0,0.0,0.0,0.0,0.0,0.0,0.0,0.0,0.0,0.0,0.0,0.0,0.0,0.0,0.0,0.0,0.0,0.0,0.0,0.0,0.0,0.0,0.0,0.0,0.0,0.0,0.0,0.0,0.0,0.0,0.0,0.0,0.0,0.0,0.0,0.0,0.0,0.0,0.0,0.0,0.0,0.0,0.0,0.0,1.822,2.1844,2.2951,2.3011,2.1934,2.1665,2.0456,1.7943,0.0,0.0,0.0,0.0,0.0,0.0,0.0,0.0,0.0,0.0,0.0,0.0,0.0,0.0,0.0,0.0,0.0,0.0,0.0,0.0,0.0,0.0,0.0,0.0,0.0,0.0,0.0,0.0,0.0,0.0,0.0,0.0,0.0,0.0,0.0,0.0,0.0,0.0,0.0,0.0,0.0,0.0,0.0,0.0,0.0,0.0,0.0,0.0,0.0,0.0,0.0,0.0,0.0,0.0,0.0,0.0,0.0,0.0,0.0,0.0,0.0,0.0,0.0,0.0,0.0,0.0,0.0,0.0,0.0,0.0,0.0,0.0,0.0,0.0,0.0,0.0,0.0,0.0,0.0,0.0,0.0,0.0,0.0,0.0,0.0,0.0,0.0,0.0,0.0,0.0,0.0,0.0,0.0,0.0,0.0,0.0,0.0,0.0,0.0,0.0,0.0,0.0,0.0,1.7549,1.945,2.2373,2.3221,2.3155,2.2061,2.1813,2.0726,1.8377,1.6712,0.0,0.0,0.0,0.0,0.0,0.0,0.0,0.0,0.0,0.0,0.0,0.0,0.0,0.0,0.0,0.0,0.0,0.0,0.0,0.0,0.0,0.0,0.0,0.0,0.0,0.0,0.0,0.0,0.0,0.0,0.0,0.0,0.0,0.0,0.0,0.0,0.0,0.0,0.0,0.0,0.0,0.0,0.0,0.0,0.0,0.0,0.0,0.0,0.0,0.0,0.0,0.0,0.0,0.0,0.0,0.0,0.0,0.0,0.0,0.0,0.0,0.0,0.0,0.0,0.0,0.0,0.0,0.0,0.0,0.0,0.0,0.0,0.0,0.0,0.0,0.0,0.0,0.0,0.0,0.0,0.0,0.0,0.0,0.0,0.0,0.0,0.0,0.0,0.0,0.0,0.0,0.0,0.0,0.0,0.0,0.0,0.0,0.0,0.0,0.0,0.0,0.0,1.945,2.0816,2.2523,2.3221,2.3197,2.2178,2.1702,2.0637,1.8701,1.6735,0.0,0.0,0.0,0.0,0.0,0.0,0.0,0.0,0.0,0.0,0.0,0.0,0.0,0.0,0.0,0.0,0.0,0.0,0.0,0.0,0.0,0.0,0.0,0.0,0.0,0.0,0.0,0.0,0.0,0.0,0.0,0.0,0.0,0.0,0.0,0.0,0.0,0.0,0.0,0.0,0.0,0.0,0.0,0.0,0.0,0.0,0.0,0.0,0.0,0.0,0.0,0.0,0.0,0.0,0.0,0.0,0.0,0.0,0.0,0.0,0.0,0.0,0.0,0.0,0.0,0.0,0.0,0.0,0.0,0.0,0.0,0.0,0.0,0.0,0.0,0.0,0.0,0.0,0.0,0.0,0.0,0.0,0.0,0.0,0.0,0.0,0.0,0.0,0.0,0.0,0.0,0.0,0.0,0.0,0.0,0.0,0.0,0.0,0.0,0.0,0.0,0.0,1.9989,2.1844,2.2613,2.3221,2.3092,2.1824,2.1126,2.0026,1.8345,1.6292,0.0,0.0,0.0,0.0,0.0,0.0,0.0,0.0,0.0,0.0,0.0,0.0,0.0,0.0,0.0,0.0,0.0,0.0,0.0,0.0,0.0,0.0,0.0,0.0,0.0,0.0,0.0,0.0,0.0,0.0,0.0,0.0,0.0,0.0,0.0,0.0,0.0,0.0,0.0,0.0,0.0,0.0,0.0,0.0,0.0,0.0,0.0,0.0,0.0,0.0,0.0,0.0,0.0,0.0,0.0,0.0,0.0,0.0,0.0,0.0,0.0,0.0,0.0,0.0,0.0,0.0,0.0,0.0,0.0,0.0,0.0,0.0,0.0,0.0,0.0,0.0,0.0,0.0,0.0,0.0,0.0,0.0,0.0,0.0,0.0,0.0,0.0,0.0,0.0,0.0,0.0,0.0,0.0,0.0,0.0,0.0,0.0,0.0,0.0,0.0,0.0,0.0,1.9672,2.1485,0.0,2.3221,2.3357,2.2697,2.1833,2.0617,1.8929,0.0,0.0,0.0,0.0,0.0,0.0,0.0,0.0,0.0,0.0,0.0,0.0,0.0,0.0,0.0,0.0,0.0,0.0,0.0,0.0,0.0,0.0,0.0,0.0,0.0,0.0,0.0,0.0,0.0,0.0,0.0,0.0,0.0,0.0,0.0,0.0,0.0,0.0,0.0,0.0,0.0,0.0,0.0,0.0,0.0,0.0,0.0,0.0,0.0,0.0,0.0,0.0,0.0,0.0,0.0,0.0,0.0,0.0,0.0,0.0,0.0,0.0,0.0,0.0,0.0,0.0,0.0,0.0,0.0,0.0,0.0,0.0,0.0,0.0,0.0,0.0,0.0,0.0,0.0,0.0,0.0,0.0,0.0,0.0,0.0,0.0,0.0,0.0,0.0,0.0,0.0,0.0,0.0,0.0,0.0,0.0,0.0,0.0,0.0,0.0,0.0,0.0,1.7788,1.9941,2.1605,0.0,2.2921,2.2966,2.2158,2.1269,2.008,1.8361,0.0,0.0,0.0,0.0,0.0,0.0,0.0,0.0,0.0,0.0,0.0,0.0,0.0,0.0,0.0,0.0,0.0,0.0,0.0,0.0,0.0,0.0,0.0,0.0,0.0,0.0,0.0,0.0,0.0,0.0,0.0,0.0,0.0,0.0,0.0,0.0,0.0,0.0,0.0,0.0,0.0,0.0,0.0,0.0,0.0,0.0,0.0,0.0,0.0,0.0,0.0,0.0,0.0,0.0,0.0,0.0,0.0,0.0,0.0,0.0,0.0,0.0,0.0,0.0,0.0,0.0,0.0,0.0,0.0,0.0,0.0,0.0,0.0,0.0,0.0,0.0,0.0,0.0,0.0,0.0,0.0,0.0,0.0,0.0,0.0,0.0,0.0,0.0,0.0,0.0,0.0,0.0,0.0,0.0,0.0,0.0,0.0,0.0,0.0,0.0,0.0,0.0,1.8553,2.1055,2.2433,2.1784,2.2313,2.1894,1.9887,1.9144,1.8059,0.0,0.0,0.0,0.0,0.0,0.0,0.0,0.0,0.0,0.0,0.0,0.0,0.0,0.0,0.0,0.0,0.0,0.0,0.0,0.0,0.0,0.0,0.0,0.0,0.0,0.0,0.0,0.0,0.0,0.0,0.0,0.0,0.0,0.0,0.0,0.0,0.0,0.0,0.0,0.0,0.0,0.0,0.0,0.0,0.0,0.0,0.0,0.0,0.0,0.0,0.0,0.0,0.0,0.0,0.0,0.0,0.0,0.0,0.0,0.0,0.0,0.0,0.0,0.0,0.0,0.0,0.0,0.0,0.0,0.0,0.0,0.0,0.0,0.0,0.0,0.0,0.0,0.0,0.0,0.0,0.0,0.0,0.0,0.0,0.0,0.0,0.0,0.0,0.0,0.0,0.0,0.0,0.0,0.0,0.0,0.0,0.0,0.0,0.0,0.0,0.0,0.0,0.0,1.9181,2.0917,2.2104,2.2373,2.2194,2.1624,2.0498,1.9834,1.8654,1.6698,0.0,0.0,0.0,0.0,0.0,0.0,0.0,0.0,0.0,0.0,0.0,0.0,0.0,0.0,0.0,0.0,0.0,0.0,0.0,0.0,0.0,0.0,0.0,0.0,0.0,0.0,0.0,0.0,0.0,0.0,0.0,0.0,0.0,0.0,0.0,0.0,0.0,0.0,0.0,0.0,0.0,0.0,0.0,0.0,0.0,0.0,0.0,0.0,0.0,0.0,0.0,0.0,0.0,0.0,0.0,0.0,0.0,0.0,0.0,0.0,0.0,0.0,0.0,0.0,0.0,0.0,0.0,0.0,0.0,0.0,0.0,0.0,0.0,0.0,0.0,0.0,0.0,0.0,0.0,0.0,0.0,0.0,0.0,0.0,0.0,0.0,0.0,0.0,0.0,0.0,0.0,0.0,0.0,0.0,0.0,0.0,0.0,0.0,0.0,0.0,0.0,0.0,1.9539,2.1212,2.2285,2.2405,2.2083,2.1379,2.0128,1.9476,1.8224,1.6142,0.0,0.0,0.0,0.0,0.0,0.0,0.0,0.0,0.0,0.0,0.0,0.0,0.0,0.0,0.0,0.0,0.0,0.0,0.0,0.0,0.0,0.0,0.0,0.0,0.0,0.0,0.0,0.0,0.0,0.0,0.0,0.0,0.0,0.0,0.0,0.0,0.0,0.0,0.0,0.0,0.0,0.0,0.0,0.0,0.0,0.0,0.0,0.0,0.0,0.0,0.0,0.0,0.0,0.0,0.0,0.0,0.0,0.0,0.0,0.0,0.0,0.0,0.0,0.0,0.0,0.0,0.0,0.0,0.0,0.0,0.0,0.0,0.0,0.0,0.0,0.0,0.0,0.0,0.0,0.0,0.0,0.0,0.0,0.0,0.0,0.0,0.0,0.0,0.0,0.0,0.0,0.0,0.0,0.0,0.0,0.0,0.0,0.0,0.0,0.0,0.0,0.0,1.9662,2.1565,2.2545,2.2039,2.1937,2.1147,1.9246,1.8599,1.741,1.5327,0.0,0.0,0.0,0.0,0.0,0.0,0.0,0.0,0.0,0.0,0.0,0.0,0.0,0.0,0.0,0.0,0.0,0.0,0.0,0.0,0.0,0.0,0.0,0.0,0.0,0.0,0.0,0.0,0.0,0.0,0.0,0.0,0.0,0.0,0.0,0.0,0.0,0.0,0.0,0.0,0.0,0.0,0.0,0.0,0.0,0.0,0.0,0.0,0.0,0.0,0.0,0.0,0.0,0.0,0.0,0.0,0.0,0.0,0.0,0.0,2.323,2.2325,0.0,0.0,0.0,0.0,0.0,0.0,0.0,0.0,0.0,0.0,0.0,0.0,0.0,0.0,0.0,0.0,0.0,0.0,0.0,0.0,0.0,0.0,0.0,0.0,0.0,0.0,0.0,0.0,0.0,0.0,0.0,0.0,0.0,0.0,0.0,0.0,0.0,0.0,0.0,0.0,1.9654,2.037,2.0977,2.1888,2.1599,2.0868,1.9884,1.9775,1.8862,1.6696,1.5015,0.0,0.0,0.0,0.0,0.0,0.0,0.0,0.0,0.0,0.0,0.0,0.0,0.0,0.0,0.0,0.0,0.0,0.0,0.0,0.0,0.0,0.0,0.0,0.0,0.0,0.0,0.0,0.0,0.0,0.0,0.0,0.0,0.0,0.0,0.0,0.0,0.0,0.0,0.0,0.0,0.0,0.0,0.0,0.0,0.0,0.0,0.0,0.0,0.0,0.0,0.0,0.0,0.0,0.0,0.0,0.0,0.0,0.0,0.0,2.7045,2.5268,0.0,0.0,0.0,0.0,0.0,0.0,0.0,0.0,0.0,0.0,0.0,0.0,0.0,0.0,0.0,0.0,0.0,0.0,0.0,0.0,0.0,0.0,0.0,0.0,0.0,0.0,0.0,0.0,0.0,0.0,0.0,0.0,0.0,0.0,0.0,0.0,0.0,0.0,0.0,0.0,1.9758,2.0403,2.088,2.1583,2.1394,2.1026,2.0653,2.0093,1.9281,1.8175,1.6186,0.0,0.0,0.0,0.0,0.0,0.0,0.0,0.0,0.0,0.0,0.0,0.0,0.0,0.0,0.0,0.0,0.0,0.0,0.0,0.0,0.0,0.0,0.0,0.0,0.0,0.0,0.0,0.0,0.0,0.0,0.0,0.0,0.0,0.0,0.0,0.0,0.0,0.0,0.0,0.0,0.0,0.0,0.0,0.0,0.0,0.0,0.0,0.0,0.0,0.0,0.0,0.0,0.0,3.2183,3.3045,3.3694,3.3883,3.4185,3.4456,3.1353,2.9033,2.7479,2.7498,0.0,0.0,0.0,0.0,0.0,0.0,0.0,0.0,0.0,0.0,0.0,0.0,0.0,0.0,0.0,0.0,0.0,0.0,0.0,0.0,0.0,0.0,2.2644,2.3106,2.3517,2.3086,2.0237,0.0,0.0,0.0,0.0,0.0,0.0,0.0,0.0,0.0,0.0,0.0,2.0062,2.1037,2.1473,2.1473,2.1473,2.1442,2.1319,2.0381,1.9734,1.9487,1.7761,1.6205,0.0,0.0,0.0,0.0,0.0,0.0,0.0,0.0,0.0,0.0,0.0,0.0,0.0,0.0,0.0,0.0,0.0,0.0,0.0,0.0,0.0,0.0,0.0,0.0,0.0,0.0,0.0,0.0,0.0,0.0,0.0,0.0,2.6279,2.6553,0.0,0.0,0.0,0.0,0.0,0.0,0.0,0.0,0.0,0.0,0.0,0.0,0.0,3.1358,3.2556,3.363,3.4565,3.537,3.5728,3.623,3.6879,3.6322,3.6446,3.7002,3.6507,0.0,3.1967,3.0347,0.0,0.0,0.0,0.0,0.0,0.0,0.0,0.0,0.0,0.0,0.0,0.0,0.0,0.0,0.0,0.0,0.0,0.0,0.0,0.0,0.0,0.0,2.7334,2.6842,2.6349,2.5857,2.5395,2.2058,1.8885,1.7976,1.6485,1.5439,0.0,0.0,0.0,0.0,0.0,0.0,2.087,2.175,2.2182,2.2182,2.2182,2.1935,2.135,2.1689,2.1411,2.0258,1.9364,1.8625,1.8041,1.6035,0.0,0.0,0.0,0.0,0.0,0.0,0.0,0.0,0.0,0.0,0.0,0.0,0.0,0.0,0.0,0.0,0.0,0.0,0.0,0.0,0.0,0.0,0.0,0.0,0.0,0.0,0.0,0.0,0.0,2.5994,2.8082,2.8134,2.8543,2.8049,0.0,0.0,0.0,0.0,0.0,0.0,0.0,0.0,0.0,3.3851,3.5322,3.6274,3.6586,3.8189,3.9052,3.9196,4.0131,4.0514,4.0308,4.0468,4.0689,4.0901,4.0526,3.962,3.8123,3.4446,3.1847,3.0007,0.0,0.0,0.0,0.0,2.7095,2.7796,2.8904,2.8842,2.8319,2.8541,0.0,0.0,0.0,0.0,0.0,0.0,0.0,2.598,2.5672,2.7272,2.8904,2.8596,2.8596,2.8565,2.8165,2.5879,2.3198,2.0931,2.01,1.9222,1.7608,1.684,0.0,0.0,0.0,1.9669,2.2101,2.2655,2.284,2.284,2.284,2.2594,2.1935,2.212,2.2058,2.1473,2.0443,1.9784,1.9542,1.7482,1.6202,0.0,0.0,0.0,0.0,0.0,0.0,0.0,0.0,0.0,0.0,0.0,0.0,0.0,0.0,0.0,0.0,0.0,0.0,0.0,0.0,0.0,0.0,0.0,0.0,0.0,0.0,0.0,0.0,2.8252,3.0209,3.0044,3.1242,3.0987,0.0,0.0,0.0,0.0,0.0,0.0,3.4672,3.628,3.7339,3.7861,3.9448,4.0094,3.9667,4.1328,4.2075,4.1917,4.2975,4.3218,4.2824,4.3207,4.3458,4.3576,4.2881,4.2616,4.2262,3.781,3.5107,3.3519,3.1586,3.0788,3.0689,3.0505,3.0658,3.1182,3.2659,3.2872,3.241,3.2074,3.0474,2.835,2.6626,0.0,0.0,0.0,0.0,2.8442,2.8627,2.955,3.0443,3.0443,3.0663,3.0725,3.0074,2.8996,2.7211,2.3999,2.3302,2.2563,2.0176,1.9499,0.0,0.0,0.0,2.1288,2.3302,2.3856,2.401,2.3825,2.3671,2.3271,2.2594,2.2551,2.2471,2.2305,2.135,2.0734,2.0549,1.8746,1.75,1.7008,0.0,0.0,0.0,0.0,0.0,0.0,0.0,0.0,0.0,0.0,0.0,0.0,0.0,0.0,0.0,0.0,0.0,0.0,0.0,0.0,0.0,0.0,0.0,0.0,0.0,0.0,0.0,0.0,0.0,3.2696,3.5291,0.0,0.0,0.0,0.0,3.3633,3.5057,3.7244,4.0319,4.0095,4.0426,4.1475,4.1843,4.1947,4.1906,4.2368,4.2705,4.3028,4.2767,4.2988,4.3507,4.2952,4.3013,4.3568,4.2915,4.2602,4.2361,3.9496,3.7892,3.6969,3.4289,3.3642,3.4166,3.346,3.4044,3.5213,3.5337,3.5337,3.5368,3.5984,3.4352,3.2013,3.127,3.0166,0.0,0.0,3.0135,3.1362,3.1982,3.2659,3.3213,3.3213,3.2752,3.2105,3.1428,3.0751,2.9433,2.6718,2.4625,2.3456,2.3917,0.0,2.2317,2.2994,2.364,2.4102,2.4225,2.5426,2.598,2.525,2.4625,2.3979,2.3302,2.324,2.2963,2.2336,2.2243,2.1904,2.1288,1.995,1.9179,1.9148,1.6468,0.0,0.0,0.0,0.0,0.0,0.0,0.0,0.0,0.0,0.0,0.0,0.0,0.0,0.0,0.0,0.0,0.0,0.0,0.0,0.0,0.0,0.0,0.0,0.0,0.0,0.0,0.0,0.0,3.6444,3.87,0.0,3.6035,3.6896,3.7654,3.7676,3.9572,4.1484,4.3253,4.3613,4.4181,4.5052,4.6112,4.6789,4.6991,4.8095,4.8098,4.7027,4.741,4.6829,4.5534,4.5316,4.5092,4.4856,4.4172,4.3895,4.3771,4.2355,4.1124,3.9955,3.8077,3.7492,3.7646,3.6938,3.6999,3.743,3.743,3.743,3.7338,3.6692,3.5245,3.3642,3.2906,3.2351,3.1982,3.1982,3.2659,3.3457,3.3704,3.395,3.4135,3.4135,3.395,3.3581,3.2844,3.2167,3.1274,2.9889,2.798,2.638,2.5764,2.4872,2.4317,2.4564,2.4789,2.5272,2.6195,2.6718,2.6934,2.6688,2.6441,2.5672,2.4071,2.4348,2.3948,2.2397,2.2305,2.1997,2.1319,2.0011,1.907,1.8607,1.6792,1.5408,0.0,0.0,0.0,0.0,0.0,0.0,0.0,0.0,0.0,0.0,0.0,0.0,0.0,0.0,0.0,0.0,0.0,0.0,0.0,0.0,0.0,0.0,0.0,0.0,0.0,3.5702,3.862,3.9227,4.1749,4.2462,3.9974,4.0871,4.163,4.163,4.332,4.4947,4.6396,4.6771,4.7369,4.8229,4.9029,4.9472,4.9567,5.0385,5.0157,4.886,4.9219,4.8496,4.6841,4.6809,4.6514,4.6012,4.5503,4.5126,4.4918,4.4486,4.3624,4.2479,4.1093,4.057,4.0474,4.0047,3.9893,3.9862,3.9616,3.9247,3.8692,3.78,3.6753,3.5737,3.5276,3.5122,3.5122,3.5122,3.5306,3.5521,3.5521,3.5337,3.5121,3.4905,3.4844,3.4659,3.3921,3.3213,3.2598,3.2167,3.0443,2.8812,2.7888,2.718,2.6665,2.6665,2.648,2.6665,2.7611,2.7734,2.7734,2.7734,2.7519,2.6842,2.5456,2.5333,2.4727,2.3394,2.2655,2.212,2.1658,2.035,1.9409,1.8915,1.7346,1.6116,1.5193,0.0,0.0,0.0,0.0,0.0,0.0,0.0,0.0,0.0,0.0,0.0,0.0,0.0,0.0,0.0,0.0,0.0,0.0,0.0,0.0,0.0,0.0,0.0,3.5249,3.8651,4.1067,4.1136,4.4458,4.5561,4.2561,4.4285,4.5569,4.5569,4.6293,4.7734,4.9913,4.9539,4.9755,5.0854,5.0291,4.9741,4.939,4.8849,4.8509,4.8286,4.7871,4.7565,4.7325,4.7029,4.695,4.6911,4.6683,4.6234,4.5618,4.5618,4.5218,4.4517,4.3156,4.2633,4.2633,4.2633,4.2602,4.2509,4.1863,4.0724,3.9585,3.9585,3.9123,3.8539,3.8539,3.8539,3.8508,3.8508,3.8046,3.7523,3.7523,3.703,3.6353,3.5737,3.5552,3.5367,3.469,3.3952,3.346,3.3429,3.1828,3.0479,3.0448,2.9863,2.9433,2.9433,2.8873,0.0,2.8442,2.8442,2.8442,2.8442,2.7827,2.7426,2.7426,2.6134,2.5312,2.5281,2.3394,2.2305,2.2305,2.1042,2.032,2.032,1.8299,1.6594,1.5255,0.0,0.0,0.0,0.0,0.0,0.0,0.0,0.0,0.0,0.0,0.0,0.0,0.0,0.0,0.0,0.0,0.0,0.0,0.0,0.0,0.0,3.5973,3.8422,3.9238,4.2112,4.4803,4.6424,4.8562,4.9528,4.87,4.9183,4.9533,4.9533,5.0223,5.0793,5.1076,5.0541,5.0355,5.0659,5.0653,5.0778,5.1022,5.1135,5.0892,5.0295,4.9847,4.926,4.8488,4.7951,4.7583,4.7392,4.6859,4.648,4.6326,4.6326,4.5926,4.5187,4.387,4.3347,4.3248,4.2786,4.2602,4.2571,4.2386,4.1771,4.1032,4.1032,4.0232,3.9247,3.9247,3.8908,3.8508,3.8508,3.8385,3.8231,3.8231,3.7738,3.7184,3.6999,3.6569,3.6014,3.5398,3.509,3.4599,3.3614,3.2967,3.2259,3.1274,3.0566,3.0109,3.0109,2.9956,0.0,2.9212,2.915,2.915,2.915,2.8535,2.8134,2.8134,2.6819,2.5619,2.4656,2.3148,2.2305,2.2305,2.1473,2.0795,2.032,1.9255,1.8038,0.0,0.0,0.0,0.0,0.0,0.0,0.0,0.0,0.0,0.0,0.0,0.0,0.0,0.0,0.0,0.0,0.0,0.0,0.0,0.0,0.0,0.0,4.0043,4.2699,4.4458,4.5941,4.7569,4.9533,5.0838,5.1563,5.1563,5.1563,5.1563,5.1563,5.1764,5.1859,5.1913,5.136,5.1162,5.1395,5.1448,5.1539,5.1576,5.1688,5.1406,5.0761,5.0493,4.9986,4.9372,4.8885,4.8578,4.8426,4.7942,4.7521,4.7194,4.7194,4.6713,4.5895,0.0,0.0,0.0,0.0,4.3248,4.3002,4.3002,4.2571,4.2017,4.2017,4.1278,4.0385,4.0385,3.9893,3.937,3.937,3.9154,3.8939,3.8939,3.8446,3.7923,3.7923,3.74,3.6815,3.6415,3.5891,3.5245,3.4445,3.4044,0.0,3.2413,3.1459,3.0905,3.1213,3.0755,3.0356,3.0258,2.9986,2.9802,2.9802,2.9218,2.8842,2.8842,2.7526,0.0,0.0,0.0,2.2871,2.2317,2.1935,0.0,0.0,0.0,0.0,0.0,0.0,0.0,0.0,1.7346,1.71,0.0,0.0,0.0,0.0,0.0,0.0,0.0,0.0,0.0,0.0,0.0,0.0,0.0,0.0,0.0,0.0,4.432,4.6845,4.9942,4.974,4.9809,5.1218,5.2011,5.2463,5.2463,5.2398,5.2368,5.2429,5.1965,5.1951,5.2597,5.2068,0.0,0.0,0.0,5.1875,5.1327,5.1065,5.0755,5.0317,5.0207,5.005,4.9852,4.9613,4.9533,4.9493,4.9331,4.8786,4.8057,4.8057,4.7543,4.6634,4.5865,4.5218,4.4702,4.4641,4.424,4.3716,4.3716,0.0,0.0,4.2725,4.2263,4.1709,4.1709,4.1278,4.072,4.0628,4.0197,3.9705,3.9613,3.9062,3.8508,3.8508,3.7984,3.7492,3.74,3.6507,3.5706,3.5552,3.5028,3.4382,3.3644,3.2475,3.1797,3.2321,3.1397,3.0786,3.1332,3.0874,3.0509,3.0509,0.0,0.0,2.9643,2.8319,2.7242,2.6657,2.5302,2.3979,2.2686,2.2736,2.2736,2.2624,2.2624,2.2594,2.2551,2.2551,2.2871,2.3456,2.0268,1.9806,0.0,0.0,0.0,0.0,0.0,0.0,0.0,0.0,0.0,0.0,0.0,0.0,0.0,0.0,0.0,4.4182,4.6638,4.9223,5.2321,5.2597,5.2632,5.2908,5.3632,5.408,5.408,5.3665,5.3601,5.4015,5.3569,5.3343,5.3479,5.2739,5.2215,5.1878,5.1247,5.0864,5.0749,5.0363,5.0207,5.0285,4.9773,0.0,4.9412,4.921,4.9006,4.8769,4.8728,4.8625,4.8461,4.8461,4.806,4.7281,4.6049,4.5495,4.5311,4.4825,4.4517,4.4425,4.4425,4.3994,4.3408,4.3408,4.294,4.2417,4.2417,4.2325,0.0,4.1555,4.1309,4.1063,4.0443,3.9398,3.8508,3.8508,3.7984,3.7338,3.6815,3.6907,3.6784,3.5707,3.5398,3.509,3.4412,3.3583,3.2875,3.2444,3.2167,3.1859,3.1455,3.1274,3.1213,3.1213,3.0628,3.0443,3.0966,2.9273,2.8165,2.8011,2.6749,2.561,2.4779,2.5272,2.5333,2.4748,2.4697,2.4471,2.3917,2.3917,2.4256,2.485,2.3148,2.284,0.0,0.0,0.0,0.0,0.0,0.0,0.0,0.0,0.0,0.0,0.0,3.7491,3.941,0.0,4.4734,4.7741,4.9499,5.1154,5.3149,5.3736,5.3942,5.3942,5.4065,5.4207,5.4463,5.4013,5.3816,5.4078,5.3849,5.355,5.3281,5.2959,5.2551,5.2067,5.1772,5.1406,5.0826,5.0588,5.0319,5.0089,4.9653,4.9452,4.9421,4.925,4.8901,4.8469,4.8469,4.8171,4.771,4.7629,4.7404,4.7004,4.5988,4.5803,4.6049,4.5711,4.5157,4.461,4.461,4.3925,4.3125,4.3501,4.3125,4.2663,4.3002,4.2879,4.254,4.2202,4.2109,4.1955,4.1247,4.0293,3.9431,3.9093,3.8231,3.7492,3.7492,3.7246,3.6907,3.6569,3.623,3.5799,3.5121,3.4691,3.4198,3.355,3.3121,3.2782,3.2444,3.2105,3.189,3.189,3.1305,3.1028,3.1393,2.9858,2.8904,2.8904,2.7642,2.6749,2.638,2.638,2.6248,2.5857,2.5857,2.5672,2.5281,2.5333,2.5857,2.6842,2.6164,2.5672,0.0,0.0,0.0,0.0,0.0,0.0,0.0,0.0,3.5352,3.7801,4.0008,4.2285,4.4932,4.6527,4.839,5.1114,5.2183,5.2843,5.3529,5.4253,5.4667,5.4529,5.411,5.4045,5.4463,5.4013,5.375,5.3849,5.3753,5.3517,5.3037,5.3165,5.3006,5.2481,5.258,5.2171,5.1204,5.1164,5.0879,5.0342,5.0111,4.9927,4.9801,4.96,4.9135,4.84,4.8235,4.765,4.6841,4.6683,4.6603,4.6542,4.5988,4.6111,4.6573,4.6449,4.5803,4.501,4.501,4.4202,4.3248,4.3685,4.331,4.2879,4.3248,4.3033,4.2602,4.2602,4.2602,4.2479,4.1925,4.1155,4.032,3.9644,3.86,3.7769,3.8046,3.7461,3.6999,3.743,3.7061,3.6507,3.5984,3.5799,3.5429,3.4628,3.3983,3.3614,3.3614,3.3029,3.2598,3.2598,3.1982,3.1547,3.1424,3.0412,2.9735,2.9587,2.8596,2.798,2.798,2.7457,2.718,2.718,2.718,2.7149,2.7095,2.7149,2.7673,2.8596,2.8596,2.8011,3.6008,3.3697,3.3076,3.4249,3.4628,3.6167,0.0,0.0,4.1836,4.4837,4.6672,4.8086,4.9183,5.0045,5.1183,5.2873,5.377,5.4287,5.4356,5.5012,5.5253,5.4598,5.4431,5.4431,5.4494,5.4013,5.3915,5.4367,5.4093,5.3876,5.3805,5.3746,5.3415,5.2693,5.2516,5.2272,5.1891,5.1891,5.1859,5.1764,5.1558,5.112,5.0555,5.0319,4.9698,4.8882,4.8059,4.7259,4.6643,4.6603,4.6603,4.6573,4.6511,4.6542,4.6511,4.5926,4.5988,4.6357,4.6357,4.5895,4.5157,4.4671,4.4055,4.3408,4.2879,4.2663,4.2602,4.2602,4.2602,4.2602,4.2509,4.1489,4.032,3.9644,3.8939,3.8077,3.6969,3.7554,3.8138,3.7615,3.743,3.7369,3.7277,3.6784,3.5953,3.469,3.4443,3.4382,3.4382,3.3737,3.3306,3.3306,3.269,3.2044,3.1455,3.1243,3.0905,3.0325,3.014,3.0048,3.0048,2.9986,2.9956,2.9956,2.9956,2.9956,2.9925,2.9956,2.971,2.9279,2.9279,2.9187,4.0032,3.8353,3.7927,3.9479,4.017,4.1412,4.4837,4.5458,4.5941,4.8148,4.974,5.1016,5.1839,5.2597,5.3425,0.0,5.4943,5.515,5.515,5.5426,5.5184,5.4011,5.3933,5.4143,5.4463,5.3716,5.3247,5.3483,5.3749,5.3692,5.3225,5.3972,5.417,5.3608,5.3579,5.3279,5.2649,5.2649,5.2428,5.2017,5.181,5.157,5.1246,5.1069,5.0237,4.8944,4.7738,4.6753,4.5988,4.5743,4.555,4.5434,4.5434,4.5649,4.608,4.6573,4.6449,4.6049,4.6449,4.5895,4.5033,4.5126,4.4733,4.4148,4.3833,4.3464,4.3094,4.2725,4.2602,4.2602,4.2602,4.1894,4.1093,4.0786,3.9893,3.8939,3.8385,3.8385,3.8415,3.8138,3.8077,3.8077,3.8077,3.7523,3.6876,3.6322,3.5553,3.509,3.509,3.4474,3.4014,3.4014,3.3796,3.3334,3.2628,3.2567,3.229,3.1613,3.1213,3.0997,3.0997,3.0602,3.0386,3.0386,3.0386,3.0386,3.0386,3.0386,3.0448,3.0566,3.0566,3.0566,4.1733,4.1447,4.1895,4.3448,4.4665,4.5941,4.7493,4.8424,4.9292,5.0666,5.1977,5.3011,5.3598,5.4149,5.4667,5.5219,5.5667,5.5805,5.5391,5.5495,5.4982,5.3376,5.3257,5.3466,5.3928,5.3414,5.2974,5.2802,5.3601,5.3775,5.3039,5.4209,5.4712,5.4244,5.4377,5.4063,5.3376,5.3376,5.3081,5.2503,5.2335,5.2156,5.1884,5.1443,5.0558,4.9223,4.815,4.7009,4.5873,4.5534,4.5063,4.461,4.461,4.4918,4.5434,4.6603,4.6542,4.5957,4.6634,4.6111,4.5218,4.5711,4.5403,4.4856,4.4671,4.4148,4.3501,4.3002,4.2756,4.2602,4.2602,4.2109,4.1586,4.1586,4.0662,3.9767,3.9767,3.9367,3.9062,3.9062,3.8908,3.8785,3.8785,3.8231,3.7769,3.7769,3.6938,3.6107,3.5553,3.4905,3.4412,3.4227,3.4382,3.4289,3.3737,3.3706,3.349,3.2998,3.2505,3.2256,3.2256,3.1797,3.1551,3.1551,3.1551,3.1551,3.1551,3.1551,3.1582,3.1701,3.1701,3.1459,3.9974,4.1412,4.3483,4.4949,4.7017,4.9051,5.0631,5.1533,5.2321,5.3149,5.3908,5.446,5.446,5.4494,5.4529,5.4529,5.5805,5.6253,5.4736,5.515,5.4886,5.2861,5.2392,5.2348,5.2622,5.3274,5.3416,5.2836,5.3892,5.432,5.382,5.443,5.4665,5.4423,5.438,5.4285,5.4071,5.4071,5.3942,5.3726,5.3726,5.3251,5.2348,5.1437,5.0638,4.9945,4.9747,4.845,4.6573,4.6542,4.5772,4.461,4.461,4.4641,4.4733,4.5403,4.6049,4.6665,4.7342,4.7127,4.6542,4.6542,4.6111,4.5434,4.4825,4.4148,4.3593,4.3593,4.3094,4.2602,4.2602,4.2109,4.1586,4.1586,4.1032,4.0474,4.0474,4.0443,4.0443,4.0443,3.989,3.9459,3.9459,3.8939,3.8477,3.8477,3.8446,3.7707,3.5737,3.4905,3.4227,3.3521,3.4044,3.4505,3.4474,3.4474,3.4474,3.4443,3.4412,3.4412,3.4412,3.4382,3.4382,3.4382,3.4382,3.4382,3.4382,3.4382,3.3704,3.2351,3.2351,3.1674,4.3009,4.4458,4.6286,4.9838,5.0878,5.1567,5.3601,5.3908,5.3804,5.408,5.3529,5.2977,5.2977,5.2567,5.2597,5.3598,5.5046,5.5839,5.5322,5.558,5.4935,5.2595,5.1725,0.0,0.0,5.1933,5.2471,5.2803,5.3264,5.3357,5.3036,5.3981,5.4412,5.42,5.42,5.4189,5.4103,5.4103,5.406,5.3974,5.3974,5.3675,5.3034,5.2729,5.2101,5.132,5.0801,4.9839,4.8573,4.7812,4.7123,4.6542,4.608,4.5649,4.528,4.5495,4.5434,4.5495,4.7065,4.7465,4.7342,4.7804,4.7465,4.6788,4.6111,4.5434,4.4764,4.387,4.3439,4.3285,4.3285,4.2756,4.2386,4.2817,4.2386,4.1771,4.134,4.1586,4.1648,4.0659,4.0724,4.0755,4.0228,3.9582,3.8877,3.7984,3.7831,3.7584,3.6907,3.583,3.509,3.4814,3.4628,3.4505,3.4505,3.4505,3.4505,3.4505,3.4505,3.4505,3.4505,3.4505,3.4505,3.4505,3.4505,3.4505,3.4505,3.4012,3.3521,3.3059,3.2598,3.2167,4.5776,4.7396,4.9114,5.2873,5.3425,5.3425,5.4874,5.4839,5.4356,5.3804,5.267,5.1636,5.1085,5.0183,5.0183,5.2252,5.3598,5.4669,5.5495,5.5717,5.4971,5.2718,5.1828,5.1296,0.0,0.0,0.0,5.2455,5.2964,5.3193,5.2924,5.3866,5.4327,5.4103,5.4103,5.4103,5.4103,5.4103,5.406,5.3974,5.3888,5.3683,5.3377,5.3377,5.304,5.2474,5.1983,5.1017,4.9716,4.8862,4.8018,4.7188,4.6757,4.6326,4.5957,4.5957,4.5526,4.5157,4.6696,4.725,4.7404,4.8296,4.8327,4.7896,4.7465,4.685,4.608,4.4972,4.4517,4.4209,4.3716,4.3248,4.3002,4.3187,4.291,4.254,4.2355,4.2448,4.2417,4.174,4.1801,4.174,4.1032,4.029,3.9551,3.8723,3.8385,3.7954,3.7246,3.6599,3.6107,3.5861,3.5706,3.5491,3.5244,3.5213,3.5121,3.4874,3.4874,3.4751,3.4505,3.472,3.4874,3.4874,3.509,3.5213,3.5213,3.4475,3.4014,3.3767,3.309,3.2752,4.8155,5.0119,5.1873,5.4115,5.4632,5.4563,5.4632,5.4494,5.3977,5.2429,5.1425,5.0321,0.0,0.0,4.7431,5.04,5.1705,5.3084,5.5223,5.5568,5.4934,0.0,0.0,0.0,0.0,0.0,0.0,5.2089,5.3142,5.3699,5.3506,5.4104,5.4327,5.4103,5.4103,5.4103,5.4103,5.4103,5.3974,5.3789,5.354,5.3421,5.3377,5.3377,5.3377,5.3377,5.3144,5.194,5.008,4.987,4.8573,4.6757,4.6726,4.6665,4.6634,4.6634,4.6234,4.5741,4.6419,4.6603,4.6757,4.8081,4.8512,4.8512,4.8512,4.8081,4.7465,4.6788,4.6172,4.5372,4.4086,4.3747,4.3531,4.2848,4.2694,4.2848,4.3439,4.3094,4.2879,4.3439,4.3033,4.2417,4.1771,4.1063,4.0536,4.0536,3.9951,3.8816,3.6907,3.7153,3.7246,3.663,3.7092,3.7215,3.6599,3.6538,3.6292,3.5706,3.5675,3.5367,3.472,3.5337,3.5675,3.5675,3.6261,3.6599,3.6599,3.5953,3.5275,3.4597,3.3829,3.349,5.0499,5.2843,5.4874,5.6598,5.6184,5.5495,5.6081,5.446,5.2528,5.1567,4.8528,4.5906,0.0,0.0,0.0,4.7631,5.1321,0.0,5.4903,5.511,0.0,5.4935,0.0,5.1938,5.3235,5.2125,0.0,5.3236,5.3272,5.3301,5.3616,5.4144,5.4327,5.4103,5.4103,5.4103,5.4103,5.4103,5.3974,5.3789,5.3888,5.3726,5.3377,5.3377,5.3321,5.3144,5.2877,5.2202,5.1215,5.0679,4.9835,4.885,4.8296,4.7804,4.7342,4.7342,4.6911,4.6419,4.7127,4.6696,4.5988,4.685,4.7127,4.7127,4.7127,4.7342,4.7465,4.6788,4.685,4.6911,4.6049,4.5434,4.491,4.4233,4.4079,4.3864,4.3033,4.3494,4.3833,4.3002,4.2725,4.2571,4.2386,4.1771,4.134,4.134,4.0293,3.9305,3.8816,3.8015,3.743,3.7246,3.6938,3.6876,3.7215,3.7246,3.74,3.7707,3.7738,3.7677,3.7492,3.7646,3.7738,3.7738,3.7892,3.7984,3.7984,3.7307,3.663,3.5953,3.5276,3.472,5.3391,5.515,5.6426,5.7598,5.6736,5.5391,5.4494,5.2735,5.0459,4.77,4.4803,4.2516,4.1516,4.1585,4.2762,0.0,0.0,0.0,5.5343,5.5758,5.5858,0.0,5.4347,0.0,5.3831,5.2946,5.2834,5.4026,5.3395,5.3278,5.3873,5.4208,5.4327,5.4103,5.4103,5.4103,5.4103,5.4103,5.406,5.3962,5.406,5.3974,5.3683,5.3627,5.3496,5.3396,5.3042,5.2507,5.1752,5.1018,5.0297,4.962,4.8881,4.8389,4.805,4.805,4.7619,4.7096,4.7465,4.6911,4.6142,4.6819,4.685,4.6603,4.6603,4.685,4.7096,4.6696,4.688,4.7004,4.6326,4.608,4.5803,4.4856,4.461,4.4387,4.3618,4.3833,4.4055,4.3556,4.3248,4.3033,4.3033,4.2479,4.2048,4.2048,4.1124,4.0416,4.0416,3.9247,3.8385,3.8385,3.8046,3.7861,3.7923,3.7954,3.7984,3.8077,3.8077,3.7923,3.7646,3.7892,3.8077,3.8077,3.8354,3.8354,3.8077,3.74,3.6722,3.6045,3.5398,3.5028,5.615,5.7012,5.7253,5.7909,5.6805,5.4839,5.1908,5.0287,4.7941,4.2733,0.0,3.941,3.7547,3.7939,4.0054,4.4561,0.0,5.0981,5.5845,5.6536,5.6509,5.634,5.5941,5.5247,5.4191,5.3934,5.3974,5.446,5.3624,5.3407,5.4172,5.4355,5.4327,5.4103,5.4103,5.4103,5.4103,5.4103,5.4103,5.4103,5.4008,5.4008,5.406,5.3738,5.3652,5.3659,5.3264,5.2608,5.1927,5.1154,5.042,4.9743,4.9127,4.882,4.8758,4.8758,4.8389,4.7896,4.7896,4.7496,4.7065,4.7373,4.7065,4.6603,4.6603,4.6603,4.6603,4.6603,4.6603,4.6449,4.5865,4.6234,4.6419,4.5157,4.491,4.4941,4.4756,4.4209,4.3932,4.461,4.4148,4.3624,4.3716,4.3094,4.2633,4.2725,4.2078,4.1648,4.1709,4.0509,3.9582,3.949,3.949,3.9247,3.8569,3.8508,3.8262,3.7677,3.7646,3.7369,3.6784,3.7307,3.7646,3.7646,3.82,3.8231,3.7646,3.7061,3.6415,3.5737,3.5183,3.5183,5.7219,5.815,5.8668,5.8806,5.7219,5.4945,5.2532,4.8982,0.0,0.0,3.7525,3.5338,3.5559,3.7215,3.9961,4.4075,4.8586,5.2444,5.4802,5.5209,5.5709,0.0,5.5345,5.4652,5.5555,5.4503,0.0,0.0,5.3751,5.3614,5.4326,5.4359,5.4327,5.4103,5.4103,5.4103,5.4103,5.4103,5.4103,5.4103,5.3534,5.3512,5.3801,5.302,5.2835,5.3219,5.2908,5.2373,5.1726,5.159,5.1128,5.0513,5.0389,4.9989,4.9497,4.9497,4.9435,4.9312,4.9312,4.9251,4.8881,4.7281,4.6696,4.6603,4.6603,4.6603,4.6603,4.6603,4.6603,4.6573,4.6449,4.6911,4.7219,4.6419,4.6665,4.6788,4.5649,4.4918,4.4641,4.528,4.4456,4.3778,4.4332,4.3402,4.2786,4.3347,4.2355,4.1801,4.2355,4.1217,4.0105,3.9551,3.949,3.9247,3.8569,3.8508,3.8446,3.8354,3.8323,3.8292,3.8169,3.8262,3.8323,3.8323,3.8446,3.8446,3.8323,3.8231,3.78,3.7153,3.703,3.6753,5.8081,5.8737,5.8909,5.853,5.6736,5.3908,4.9637,0.0,0.0,0.0,3.3835,3.2439,3.28,3.4697,0.0,4.1138,4.4651,4.8323,5.2552,5.3111,5.3886,5.6138,5.5928,5.5588,5.5377,5.4964,5.4654,5.4423,5.3999,5.3893,5.4242,5.4242,5.42,5.4103,5.4103,5.4103,5.4103,5.4103,5.4103,5.4103,5.3787,5.369,5.3789,5.3196,5.2965,5.3086,5.2819,5.2513,5.2206,5.1836,5.1498,5.119,5.082,5.0482,5.0205,5.0205,5.0205,5.0205,5.0205,5.0205,5.0051,4.9066,4.7989,4.7127,4.7127,4.688,4.6603,4.6603,4.6603,4.6511,4.6172,4.6573,4.7004,4.6665,4.685,4.6819,4.5803,4.5341,4.5226,4.5526,4.5341,4.5126,4.5126,4.4295,4.3741,4.4086,4.2971,4.2355,4.3033,4.2232,4.1494,4.1155,4.1124,4.1001,4.0662,4.0324,4.0108,4.0108,3.977,3.9521,3.9521,3.9216,3.9031,3.9031,3.8692,3.8323,3.7984,3.7984,3.7646,3.6969,3.6969,3.6815,5.8323,5.8875,5.884,5.8081,5.6184,5.2908,4.6776,4.294,0.0,0.0,3.0834,3.0248,3.042,0.0,3.4768,0.0,4.068,4.4148,5.0385,5.1308,5.2404,0.0,5.6274,0.0,5.4938,5.5164,0.0,5.4423,5.42,5.4103,5.4103,5.4103,5.4103,5.4103,5.4103,5.404,5.3882,5.3882,5.3882,5.3882,5.3724,5.369,5.3702,5.334,5.3121,5.2997,5.2819,5.2698,5.2667,5.2144,5.1929,5.1867,5.1344,5.1036,5.0913,5.0913,5.0913,5.0913,5.0913,5.1005,5.1128,5.1128,4.9835,4.8266,4.8266,4.7804,4.7219,4.7065,4.6942,4.6665,4.5988,4.6296,4.6819,4.6819,4.6696,4.6449,4.5926,4.568,4.5618,4.5772,4.5988,4.6049,4.5649,4.5033,4.461,4.461,4.3556,4.3063,4.3747,4.3217,4.2879,4.3002,4.2633,4.2325,4.2171,4.1678,4.137,4.137,4.0812,4.0505,4.0505,3.9982,3.9705,3.9705,3.9062,3.8446,3.7923,3.78,3.743,3.6938,3.6938,3.6938,5.7391,5.8495,5.884,5.8081,5.6184,5.2908,4.6776,0.0,3.8077,3.2041,2.9627,2.8834,2.9489,3.0938,0.0,0.0,0.0,4.3906,4.9367,5.0979,5.2362,5.4449,0.0,0.0,5.4813,5.4655,5.4497,5.4412,5.42,5.4103,5.4103,5.4103,5.4103,5.4103,5.4103,5.3818,5.3218,5.3186,5.3186,5.3186,5.2523,5.266,5.3421,5.2753,5.2585,5.2729,5.2729,5.2698,0.0,5.2637,5.2637,5.2606,5.2544,5.2144,5.1621,5.1621,5.1621,5.1621,5.1621,5.2021,5.2513,5.2513,5.1559,5.042,5.042,4.9928,4.9281,4.8604,4.7989,4.7342,4.6665,4.7004,4.7527,4.7527,4.7034,4.6573,4.6511,4.6018,4.5772,4.6388,4.5557,4.4941,4.5495,4.5033,4.461,4.461,4.3994,4.3747,4.4425,4.3932,4.3747,4.4363,4.2786,4.1432,4.0751,4.0628,4.0597,4.0597,4.0536,4.0505,4.0505,4.0443,4.0413,4.0413,3.9736,3.94,3.9305,3.8723,3.8385,3.8323,3.8323,3.8323,5.6633,5.7771,5.815,5.7426,5.4839,5.0976,4.5354,0.0,3.618,3.1041,2.8765,2.7971,2.8696,2.9351,3.1003,0.0,0.0,0.0,4.4042,4.5862,4.7946,5.1486,5.3645,0.0,0.0,0.0,5.5507,5.4975,5.4893,5.4893,5.5049,5.4454,5.4103,5.4103,5.3724,5.3376,5.3123,5.2681,5.246,5.246,5.2586,5.2712,5.2785,5.2941,5.2896,5.2698,5.2698,5.2698,0.0,5.2698,5.2698,5.2698,5.2698,5.2544,5.2298,5.2298,5.2298,5.2298,5.2298,5.2483,5.2698,5.2698,5.2359,5.1836,5.1436,5.082,5.0236,4.9959,4.9682,4.9312,4.8635,4.8327,4.8112,4.7711,4.7096,4.6603,4.6603,4.6049,4.568,4.5926,4.5865,4.5741,4.5618,4.5372,4.5187,4.5187,4.4941,4.4918,4.5195,4.4641,4.4148,4.4024,4.3618,4.3279,4.2971,4.2602,4.2202,4.1801,4.1401,4.0935,4.0505,4.0105,3.989,3.989,3.9247,3.8908,3.8908,3.8631,3.8508,3.8508,3.8508,3.8508,5.5426,5.6978,5.7633,5.6426,5.3598,4.9666,0.0,3.9422,3.5007,3.0455,2.8316,2.7454,2.7971,2.8247,2.9334,3.2139,3.297,3.5132,4.051,4.2505,4.4889,0.0,0.0,5.3223,5.3952,5.549,5.6106,5.5353,5.5555,5.5789,5.5981,5.5254,5.4665,5.42,5.3671,5.3218,5.2776,5.227,5.2017,5.2017,5.2523,5.2786,5.2809,5.3321,5.3321,5.2922,5.2833,5.2819,0.0,5.2698,5.2698,5.2698,5.2698,5.2698,5.2698,5.2698,5.2698,5.2698,5.2698,5.2698,5.2698,5.2698,5.2698,5.2575,5.1898,5.1374,5.0944,5.0759,5.0389,5.002,4.9743,4.9004,4.8235,4.7958,4.725,4.6542,4.6357,4.5926,4.5588,4.5588,4.5988,4.6203,4.5926,4.5895,4.5895,4.5895,4.5711,4.5649,4.5865,4.5311,4.4795,4.4517,4.488,4.4849,4.4079,4.3593,4.3094,4.2633,4.2171,4.1678,4.112,4.0693,4.0447,4.0447,3.977,3.9431,3.9431,3.9216,3.9093,3.9093,3.9093,3.9093,5.3736,5.6184,5.7357,5.5081,5.2804,4.9493,4.3388,3.9043,3.5007,3.0455,2.8316,2.7282,2.7316,2.7902,2.8903,3.0455,3.2612,0.0,4.025,4.2347,4.4457,0.0,0.0,4.9405,5.1377,5.4234,5.5789,5.5353,5.6074,5.6575,5.6575,5.6575,5.5908,5.4423,5.42,5.3408,5.2049,5.2017,5.2017,5.2017,5.2017,5.2618,5.3789,5.3789,5.3627,5.3377,5.3188,5.3086,0.0,5.2788,5.2698,5.2698,5.2698,5.2698,5.2698,5.2698,5.2698,5.2698,5.2698,5.2698,5.2698,5.2698,5.2698,5.2575,5.1898,5.1713,5.1559,5.0882,4.9712,4.8789,4.9497,4.8666,4.7773,4.845,4.7588,4.6419,4.5741,4.5588,4.5588,4.5588,4.5588,4.5803,4.648,4.6573,4.6573,4.6573,4.6018,4.5834,4.648,4.5988,4.5834,4.648,4.6573,4.5495,4.2848,4.2633,4.2633,4.2602,4.2602,4.2602,4.2571,4.2571,4.2571,4.2571,4.1925,4.1586,4.1555,4.0847,4.0474,4.0474,4.0474,4.0474,4.7907,4.9947,5.1257,4.9528,4.7389,4.4656,4.0595,3.7146,3.38,3.0248,2.8316,2.7282,2.7282,2.7489,2.8834,3.2439,3.3647,0.0,0.0,0.0,0.0,4.6786,5.0995,5.4113,0.0,5.6045,5.6575,5.6387,5.7001,5.7483,5.7631,5.7483,5.6768,5.5336,5.4607,5.383,5.2994,5.2321,5.2017,5.2017,5.2523,5.2871,5.3067,5.3569,5.3627,5.3377,5.3334,5.3233,5.3086,5.3042,5.2863,5.2698,5.2698,5.2698,5.2698,5.2698,5.2698,5.2698,5.2698,5.2698,5.2637,5.2175,5.2329,5.2575,5.1898,5.1713,5.1559,5.0882,5.0389,4.9989,4.9743,4.9374,4.9097,4.9281,4.8296,4.7342,4.7619,4.6942,4.6142,4.568,4.5588,4.5495,4.5249,4.5988,4.6603,4.6603,4.7188,4.7558,4.7311,4.6696,4.6172,4.5926,4.5495,4.488,4.4018,4.3956,4.3371,4.2017,4.1925,4.1709,4.1181,4.1151,4.1151,4.1151,4.0935,4.0878,4.0878,4.0597,4.0505,4.0505,4.0505,4.0505,4.3733,4.6251,4.7603,4.6113,4.4035,4.1516,3.8444,3.5387,3.2421,2.9661,2.8144,2.7282,2.7282,2.7523,2.8627,3.1508,3.2904,0.0,0.0,0.0,0.0,4.6898,0.0,0.0,0.0,5.6683,5.7335,5.726,5.785,5.8315,5.8422,5.8351,5.7631,5.6303,5.5212,5.4244,5.3394,5.2733,5.2428,5.2428,5.2902,5.3134,5.3227,5.3699,5.3801,5.364,5.3584,5.3452,0.0,5.3233,5.3055,5.2863,5.2863,5.2819,5.2698,5.2698,5.2698,5.2698,5.2698,5.2698,5.2606,5.1929,5.1652,5.1498,5.1067,5.1128,5.1128,5.0174,4.9928,4.9866,4.9712,4.9497,4.9404,4.9928,4.922,4.8512,4.8912,4.8358,4.7496,4.6542,4.6357,4.6142,4.5464,4.6049,4.6603,4.6603,4.7527,4.8081,4.765,4.7465,4.7188,4.6788,4.6357,4.5895,4.5372,4.4918,4.4086,4.2786,4.2725,4.254,4.2078,4.2048,4.2048,4.2048,4.1801,4.1678,4.1678,4.1432,4.1274,4.1274,4.1274,4.1274,0.0,4.4009,4.5389,4.3931,4.1895,3.9514,3.6628,3.3731,0.0,2.8834,2.7799,2.7316,2.7435,2.7971,2.8523,2.8834,3.1282,0.0,0.0,3.9457,0.0,0.0,5.1133,0.0,5.3937,5.656,5.8067,5.785,5.8562,5.9012,5.9012,5.9012,5.8457,5.726,5.6001,5.4777,5.3531,5.3281,5.3186,5.3186,5.3186,5.3502,5.4103,5.4103,5.4103,5.4103,5.3919,5.3789,5.3789,5.354,5.3321,5.3086,5.3086,5.2953,5.2698,5.2698,5.2698,5.2698,5.2698,5.2698,5.2606,5.1929,5.079,4.9682,4.9682,5.0082,5.0266,4.8974,4.8604,4.8758,4.9435,4.9097,4.8974,5.0359,5.0174,4.9712,4.9805,4.9774,4.9374,4.8019,4.7742,4.7527,4.685,4.6788,4.6788,4.6757,4.7281,4.765,4.7619,4.8112,4.8481,4.8481,4.8481,4.7958,4.6696,4.5434,4.4702,4.461,4.461,4.461,4.461,4.461,4.461,4.461,4.3994,4.3655,4.3593,4.2971,4.2663,4.2602,4.2602,4.2602,3.3869,0.0,3.6939,3.6581,3.52,3.3731,0.0,3.1386,2.973,2.8627,2.7799,2.7627,2.8765,2.8661,2.9523,3.3041,3.4663,3.6525,3.941,4.4458,0.0,5.2895,5.5275,5.6748,5.7042,5.8114,5.8562,5.8067,5.8632,5.9012,5.9012,5.9012,5.8457,5.726,5.6581,5.5723,5.4473,5.4094,5.385,5.385,5.385,5.3945,5.4103,5.4103,5.4103,5.4103,5.406,5.3931,5.3789,5.3746,5.3484,5.3086,5.3086,5.2953,5.2698,5.2698,5.2698,5.2698,5.2698,5.2698,5.2606,5.1929,5.079,4.9682,4.9682,4.9404,4.9035,4.8696,4.8604,4.8666,4.882,4.8727,4.8974,5.0359,5.0174,4.9959,5.1005,5.082,5.0205,4.9374,4.9189,4.8974,4.8266,4.8604,4.8789,4.8235,4.8266,4.8173,4.7681,4.7281,4.7065,4.7065,4.7065,4.6942,4.6634,4.6296,4.568,4.4671,4.461,4.461,4.461,4.461,4.461,4.461,4.4456,4.4117,4.3593,4.3439,4.3094,4.2602,4.2602,4.2602,3.1076,3.2923,3.4545,3.418,3.3179,3.2214,3.1869,3.0351,2.8868,2.8489,0.0,2.7764,2.9248,2.9179,2.9937,3.311,3.5145,0.0,0.0,0.0,5.1679,5.4862,5.6811,5.8049,5.8459,5.884,5.8875,5.8527,5.884,5.9012,5.9012,5.9012,5.8562,5.7631,5.7335,5.6381,5.4813,5.4316,5.4103,5.4103,5.4103,5.4103,5.4103,5.4103,5.4103,5.4103,5.4103,5.4017,5.3962,5.3833,5.3571,5.3233,5.3131,5.2953,5.2698,5.2698,5.2698,5.2698,5.2698,5.2298,5.1713,5.1374,5.0297,4.9189,4.9189,4.8912,4.8604,4.8604,4.8604,4.8604,4.8604,4.8604,4.8881,4.9989,5.0205,5.042,5.1467,5.1652,5.1436,5.0759,5.0605,5.0297,4.9281,4.9435,4.9435,4.8727,4.8881,4.8974,4.8604,4.8235,4.7896,4.7558,4.725,4.6942,4.6634,4.6603,4.6296,4.5557,4.5495,4.5495,4.5495,4.5495,4.5372,4.5033,4.5033,4.4733,4.4086,4.4086,4.3864,4.3525,4.3525,4.3525,3.08,3.3076,3.4973,3.3973,3.3145,3.2386,3.1765,0.0,0.0,0.0,0.0,0.0,0.0,3.011,0.0,0.0,0.0,0.0,4.6389,4.9804,5.2701,5.5632,5.7219,5.8323,5.8944,5.9012,5.9012,5.9012,5.9012,5.9012,5.9012,5.9012,5.8702,5.8103,5.7887,5.6958,5.5155,5.4707,5.437,5.4231,5.4242,5.4242,5.4146,5.4103,5.4103,5.4103,5.4103,0.0,5.4103,5.3876,5.3627,5.3377,5.3188,5.2953,5.2698,5.2698,5.2698,5.2698,5.2698,5.1898,5.082,5.0728,4.9835,4.8758,4.8635,4.8604,4.8604,4.8604,4.8604,4.8604,4.8604,4.8604,4.882,4.9651,5.0266,5.0913,5.1682,5.2236,5.239,5.1805,5.1621,5.119,5.0051,4.9835,4.9589,4.8881,4.9189,4.9497,4.9374,4.9281,4.8974,4.8358,4.7804,4.7219,4.6634,4.6511,4.6449,4.6449,4.6542,4.6603,4.6603,4.6603,4.6326,4.5741,4.5741,4.5403,4.4764,4.4764,4.4702,4.461,4.461,4.461,3.2179,3.3835,3.4697,3.2662,3.1593,3.1007,3.0869,3.0075,0.0,0.0,0.0,0.0,0.0,3.2938,3.4318,0.0,0.0,4.55,0.0,0.0,5.4874,5.7253,0.0,5.8875,5.9012,5.9012,5.9012,5.9012,5.9012,5.9012,5.9012,5.9012,5.8702,5.8103,5.7887,5.7409,5.6575,5.6342,5.5701,5.4687,5.5008,5.4851,5.437,5.4189,5.4103,5.4103,0.0,5.4103,5.4103,5.3876,5.3627,5.3377,5.3188,5.2953,5.2698,5.2698,5.2698,5.2698,5.2698,5.2206,5.1436,5.0882,5.0174,4.9404,4.8789,4.8604,4.8604,4.8604,4.8604,4.8604,4.8604,4.8604,4.8943,5.0236,5.0636,5.1036,5.2298,5.2206,5.1836,5.1713,5.1251,5.079,5.0574,5.0543,5.0328,4.962,4.9097,4.8573,4.7989,4.7434,4.7034,4.6911,4.6819,4.6696,4.6603,4.608,4.5741,4.5741,4.6296,4.6603,4.6603,4.6603,4.6542,4.6449,4.6449,4.6111,4.5434,4.5434,4.5126,4.461,4.461,4.461,3.2007,3.311,3.3904,3.3697,3.3662,3.3628,3.3214,3.2524,0.0,0.0,0.0,0.0,0.0,0.0,3.7939,4.2216,0.0,4.843,5.1873,5.3598,5.5357,5.7633,5.8564,5.9012,5.9012,5.9012,5.9012,5.9012,5.9012,5.9012,5.9012,5.9012,5.8875,5.8597,5.8492,5.8139,5.7557,5.7777,5.7185,5.5781,5.5948,5.5708,5.509,5.4883,5.4591,5.4242,0.0,5.4103,5.4103,5.3876,5.3627,5.3377,5.3188,5.2953,5.2698,5.2698,5.2698,5.2698,5.2698,5.2267,5.159,5.0913,5.0236,4.9558,4.882,4.8604,4.8604,4.8604,4.8604,4.8604,4.8604,4.8604,4.8758,4.9404,4.9866,5.0328,5.0944,5.1128,5.1159,5.1159,5.0913,5.0697,5.0697,5.0697,5.0605,5.0266,4.9959,4.962,4.9312,4.8696,4.8112,4.7742,4.7373,4.7127,4.7127,4.685,4.6203,4.5126,4.5341,4.5495,4.5495,4.5495,4.5495,4.5495,4.5495,4.5341,4.5033,4.5033,4.4918,4.461,4.461,4.461,3.2283,3.2731,3.3317,3.5042,3.5628,3.587,3.618,3.5525,3.52,0.0,0.0,0.0,0.0,3.9077,0.0,4.6389,4.881,5.1016,5.3563,5.4701,5.6012,5.7943,5.8668,5.9012,5.9012,5.9012,5.9012,5.9012,5.9012,5.9012,5.9012,5.9012,5.9012,5.9012,5.884,5.8531,5.8043,5.8359,5.7904,5.6729,5.6691,5.6342,5.5741,5.5304,5.4851,5.4412,5.4157,5.4103,5.4103,5.3876,5.3702,5.3496,5.3188,5.2953,5.2698,5.2698,5.2698,5.2698,5.2698,5.2359,5.1805,5.0974,5.0328,4.9743,4.8881,4.8604,4.8604,4.8604,4.8604,4.8604,4.8604,4.8604,4.8666,4.882,4.9281,4.9712,4.9897,5.0205,5.0451,5.0451,5.0328,5.0205,5.0205,5.0205,5.0205,5.0205,5.0205,5.0205,5.0205,4.9743,4.922,4.8666,4.8142,4.7835,4.7835,4.7989,4.7373,4.5618,4.5372,4.5218,4.5064,4.4949,4.4818,4.4818,4.4702,4.461,4.461,4.461,4.461,4.461,4.461,4.4664,3.4352,3.3938,3.3421,3.5663,3.5214,3.5166,3.8594,3.8284,0.0,4.0032,0.0,0.0,0.0,4.3561,4.6596,4.8361,5.1735,5.4425,5.5322,5.6736,5.7978,5.884,5.8978,5.9012,5.9012,5.9012,5.9012,5.9012,5.9012,5.9012,5.9012,5.9012,5.9012,5.9012,5.8357,5.7944,5.791,5.7255,5.7021,5.7147,5.6958,5.6575,5.5941,5.4925,5.4423,5.4412,5.4157,5.4103,5.4103,5.3876,5.3789,5.3746,5.3264,5.2953,5.2698,5.2698,5.2698,5.2698,5.2698,5.2667,5.2421,5.1128,5.0667,5.0359,4.9004,4.8604,4.8604,4.8604,4.8604,4.8604,4.8604,4.8604,4.8789,4.9435,4.9651,4.9866,5.0482,5.0174,4.9743,4.9743,4.922,4.8758,4.8758,4.8758,4.8758,4.8758,4.8758,4.8758,4.8758,4.8727,4.8666,4.8635,4.8573,4.8543,4.8543,4.9158,4.9189,4.8358,4.7742,4.7096,4.648,4.5865,4.5526,4.5526,4.4949,4.461,4.461,4.461,4.461,4.461,4.461,4.491,3.2731,3.2972,3.3455,3.5732,3.6594,0.0,0.0,4.1457,4.2802,4.4147,4.4561,0.0,0.0,0.0,4.8465,4.9982,5.3046,5.546,5.6253,5.7253,5.8185,5.8909,5.9012,5.9012,5.9012,5.9012,5.9012,5.9012,5.9012,5.9012,5.9012,5.8564,5.8323,5.8323,5.7598,5.7219,5.7219,5.6943,5.6678,5.6391,5.6757,5.6371,5.5293,5.5264,5.4883,5.4412,5.4157,5.4103,5.4103,5.4017,5.3919,5.3746,5.3308,5.2675,5.2082,5.2082,5.1805,5.1528,5.1929,5.1805,5.1374,5.0851,5.042,4.9959,4.9435,4.9281,4.9374,4.9805,4.9897,4.9712,4.885,4.8604,4.8696,4.8943,4.9035,4.9097,4.9343,4.9189,4.9035,4.9035,4.8789,4.8604,4.8604,4.8604,4.8604,4.8604,4.8604,4.8604,4.8604,4.8604,4.8604,4.8604,4.9004,4.9281,4.9281,5.0297,5.0636,4.9959,4.885,4.7927,4.725,4.6973,4.6634,4.6234,4.5957,4.5834,4.5834,4.5834,4.6049,4.6449,4.6018,4.6203,3.1731,3.2007,3.28,3.5318,0.0,0.0,4.1733,4.4113,4.619,4.7734,4.8045,4.8051,4.8051,0.0,0.0,0.0,5.4011,5.6253,5.7047,5.7771,5.8426,5.8944,5.9012,5.9012,5.9012,5.9012,5.8909,5.8668,5.8668,5.8564,5.8323,5.784,5.7564,5.7564,5.684,5.6426,5.6426,5.6184,5.5685,5.4939,5.5614,5.5572,5.49,5.4947,5.4773,5.4412,5.4157,5.4103,5.4103,5.4103,5.3805,5.3345,5.3258,5.2485,5.1405,5.1621,5.1282,5.0759,5.1221,5.1067,5.0667,5.0451,5.0051,4.9682,4.9682,4.9682,4.9835,5.0513,5.0697,5.0482,4.9528,4.9281,4.922,4.9004,4.9127,4.9158,4.8696,4.8789,4.8881,4.8666,4.8604,4.8604,4.8604,4.8604,4.8604,4.8604,4.8604,4.8604,4.8604,4.8604,4.8604,4.8604,4.9251,4.9682,4.9682,5.0728,5.119,5.0728,4.9805,4.9066,4.8604,4.8389,4.805,4.7588,4.7342,4.725,4.725,4.725,4.7373,4.7588,4.7127,4.7157,3.1972,3.1248,3.1473,3.4456,0.0,0.0,4.4397,4.6052,4.7493,5.0528,4.9913,4.8844,4.8844,4.9465,0.0,5.1946,5.4805,5.7047,5.7805,5.853,5.9012,5.9012,5.9012,5.9012,5.9012,5.9012,5.8702,5.7943,5.7909,5.7564,5.684,5.6805,5.6771,5.6771,5.6012,5.5598,5.5598,5.4874,5.3913,5.2802,5.3328,5.4059,5.4829,5.3856,5.3776,5.438,5.4157,5.4103,5.4103,5.4103,5.3436,5.2473,5.3128,5.2275,5.0759,5.1436,5.1251,5.0667,5.0667,5.0667,5.0574,4.9897,4.9682,4.9682,4.9682,4.9682,4.9835,5.0513,5.0697,5.0728,5.0728,5.0728,5.0543,4.9866,5.0205,5.0328,4.8943,4.9189,4.9497,4.8758,4.8635,4.8635,4.8635,4.8635,4.8604,4.8635,4.8604,4.8604,4.8604,4.8604,4.8604,4.8604,4.9251,4.9682,4.9682,5.0297,5.0697,5.0697,5.0697,5.0697,5.0697,5.0051,4.9682,4.9682,4.8974,4.8635,4.8635,4.8635,4.8296,4.7619,4.7619,4.7619,3.0524,3.1593,0.0,3.549,0.0,0.0,0.0,4.8396,0.0,0.0,5.308,5.2046,5.2046,5.177,0.0,5.2873,5.515,5.7047,5.7805,5.853,5.9012,5.9012,5.9012,5.8806,5.8288,5.8254,5.7909,5.7185,5.7116,5.7047,5.6805,5.6253,5.5977,5.5977,5.5219,5.4839,5.4839,5.4632,5.3913,5.2802,5.2653,5.2631,5.2609,5.3154,5.3438,5.3492,5.3924,5.4103,5.4103,5.4103,5.3521,5.2636,5.2856,5.186,5.0423,5.0641,5.0268,4.9771,5.0237,5.0082,4.974,4.9884,4.9594,4.9274,4.957,5.002,5.0543,5.1221,5.1744,5.2113,5.2113,5.2113,5.1836,5.0667,5.0543,5.0574,5.0174,5.0236,5.0328,5.0112,4.9682,4.9528,4.9989,4.9281,4.8789,4.9281,4.8943,4.8604,4.8604,4.8604,4.8604,4.8604,4.882,4.8943,4.8943,4.9589,4.9989,4.9989,5.042,5.0482,5.002,4.9805,4.9682,4.9682,4.9466,4.962,5.0082,4.9589,4.9497,4.9743,4.8758,4.8573,3.111,3.2869,0.0,3.718,4.1354,4.5872,4.9361,0.0,0.0,0.0,5.4425,5.3494,5.377,5.2942,0.0,5.3667,5.5253,5.6598,5.7357,5.784,5.815,5.815,5.815,5.7943,5.7529,5.746,5.715,5.6391,5.6322,5.6219,5.5908,5.5426,5.5184,5.5184,5.4736,5.4494,5.4494,5.4271,5.3716,5.2802,5.2489,5.2076,5.1656,5.2188,5.2521,5.2712,5.3408,5.385,5.4103,5.4103,5.3406,5.2313,5.2596,5.156,4.9915,5.0195,4.9852,4.9394,4.9759,4.9634,4.9353,4.9626,4.9388,4.9078,4.9634,5.0229,5.082,5.1498,5.2206,5.2698,5.2698,5.2698,5.2452,5.1344,5.1313,5.1344,5.082,5.0913,5.1005,5.0759,5.0359,5.0205,5.0636,4.9989,4.9589,5.002,4.9712,4.9343,4.9066,4.9035,4.8943,4.8635,4.8604,4.8604,4.8604,4.9004,4.9251,4.9251,4.9651,4.9682,4.9281,4.9805,5.0082,5.0082,5.0082,5.0297,5.0697,5.0297,5.0314,5.0787,4.9916,4.9768,3.28,3.4628,3.7077,3.9422,4.2526,0.0,5.1287,5.3563,5.4805,5.546,0.0,5.3804,5.4494,5.3425,5.2877,5.4356,5.5184,5.5908,5.6702,5.6805,5.6805,5.6805,5.6805,5.6771,5.6702,5.6702,5.6357,5.5563,5.5497,5.5219,5.4563,5.4494,5.4494,5.4494,5.4494,5.4494,5.4494,5.398,5.3416,5.2871,5.2629,5.2241,5.1765,5.1378,5.1565,5.2222,5.2879,5.3503,5.4136,5.4051,5.3134,5.179,5.2418,5.1288,4.9434,5.0059,4.9903,4.934,4.934,4.934,4.934,4.9331,4.9169,4.9161,4.9801,5.0314,5.082,5.1498,5.2206,5.2698,5.2698,5.2698,5.2575,5.1959,5.2267,5.239,5.1159,5.1374,5.1621,5.1005,5.082,5.082,5.0882,5.0759,5.0697,5.0697,5.0697,5.0482,4.9866,4.9774,4.9528,4.8881,4.8758,4.8696,4.8696,4.8666,4.8604,4.8604,4.8604,4.8604,4.8604,4.9835,5.0543,5.0605,5.0605,5.0636,5.0697,5.0636,5.0661,5.079,5.0808,5.0866,3.2041,3.5007,0.0,4.1723,4.6493,5.1114,5.3494,5.4736,5.5426,5.5598,5.5357,5.5184,5.5324,5.4632,5.4322,5.5219,5.5529,5.5908,5.6702,5.6805,5.6805,5.6805,5.6805,5.6564,5.5943,5.5874,5.5563,5.4805,5.4736,5.4667,5.4529,5.4494,5.4494,5.4494,5.4494,5.4494,5.4494,5.398,5.3617,5.3483,5.2803,5.2454,5.2345,5.2675,5.3175,5.3793,5.3558,5.3696,5.4171,5.371,5.2901,5.1935,5.2092,5.1168,4.9773,4.993,4.9899,4.9773,4.9773,4.9773,4.9773,4.9613,4.9412,4.9334,4.9843,5.0314,5.082,5.1498,5.2206,5.2698,5.2698,5.2698,5.2667,5.2544,5.2606,5.2637,5.2329,5.239,5.2452,5.2298,5.1836,5.1652,5.2175,5.1405,5.0697,5.0697,5.0697,5.0636,5.0482,5.0482,5.042,5.0266,4.9774,4.9466,4.9466,4.8943,4.8604,4.8604,4.8604,4.8604,4.8604,4.8912,4.9312,4.9897,4.9897,5.0174,5.0697,5.0174,4.9932,4.9945,5.0053,5.0145,3.2938,0.0,0.0,4.5768,0.0,5.2601,5.4149,5.4805,5.5081,5.5081,5.5324,5.5598,5.5598,5.5012,5.4632,5.5012,5.5081,5.5219,5.5632,5.5701,5.5701,5.5701,5.5701,5.5529,5.5115,5.5081,5.4908,5.4529,5.4494,5.4494,5.4494,5.4494,5.4494,5.4494,5.4494,5.4494,5.4494,5.398,5.3717,5.3717,5.3247,5.3213,5.3449,5.2961,5.3165,5.3787,5.3226,5.3266,5.3703,5.3483,5.2667,5.1543,5.1891,5.1164,4.9892,4.9892,4.9892,4.9892,4.9892,4.9892,4.9892,4.9773,4.9613,4.9537,4.9978,5.0483,5.095,5.1541,5.2206,5.2698,5.2698,5.2698,5.2698,5.2698,5.2698,5.2698,5.2698,5.2698,5.2698,5.2698,5.2421,5.2298,5.2637,5.2144,5.1652,5.1652,5.1652,5.1528,5.1221,5.119,5.1067,5.0728,5.0389,5.0174,5.0174,4.9835,4.962,4.962,4.962,4.9466,4.9127,4.9127,4.9127,4.9158,4.9158,4.9552,5.031,4.9977,5.0196,5.0959,5.0999,5.129,3.349,0.0,4.2861,4.9321,5.1563,0.0,5.4011,5.4425,5.4494,5.4494,5.5012,5.5426,5.5426,5.4908,5.4494,5.4494,5.4494,5.4494,5.4494,5.4494,5.4494,5.4494,5.4494,5.4494,5.4494,5.4494,5.4494,5.4494,5.4494,5.4494,5.4494,5.4494,5.4494,5.4494,5.4494,5.4494,5.4494,5.398,5.375,5.3849,5.3849,5.4078,5.4463,5.318,5.2929,5.3459,5.288,5.2861,5.3266,5.3375,5.2545,5.1308,5.1796,5.1227,5.0089,4.9963,4.9892,4.9892,4.9892,4.9892,4.9892,4.9892,4.9773,4.973,5.0424,5.0807,5.1141,5.1894,5.2404,5.2729,5.2774,5.2698,5.2698,5.2698,5.2698,5.2698,5.2698,5.2698,5.2698,5.2698,5.2698,5.2698,5.2698,5.2698,5.2698,5.2698,5.2698,5.2513,5.1959,5.1867,5.1652,5.1097,5.0944,5.0882,5.0882,5.0759,5.0697,5.0697,5.0697,5.0451,4.9897,4.9866,4.9528,4.882,4.879,4.9178,4.9908,5.0026,5.0767,5.2128,5.2236,5.2659,3.08,0.0,4.4069,0.0,5.1183,5.2429,0.0,0.0,5.4494,0.0,5.4598,5.4667,5.4667,5.4563,5.4494,5.4494,5.4494,5.4494,5.4494,5.4494,5.4494,5.4494,5.4494,5.4494,5.4494,5.4494,5.4494,5.4494,5.4494,5.4494,5.4494,5.4494,5.4494,5.4494,5.4494,5.4494,5.4494,5.398,5.3948,5.4367,5.4367,5.4431,5.4494,5.4303,5.4242,5.4312,5.3753,5.3545,5.3533,5.3503,5.2917,5.2136,5.2027,5.1512,5.0753,5.0153,4.9892,4.9892,4.9892,4.9892,4.9892,4.9892,4.9773,4.9918,5.1548,5.1542,5.137,5.3259,5.3279,5.2743,5.2997,5.2877,5.2698,5.2698,5.2698,5.2698,5.2698,5.2698,5.2698,5.2698,5.2698,5.2698,5.2698,5.2698,5.2698,5.2698,5.2698,5.2667,5.2575,5.2575,5.2544,5.2452,5.1929,5.1559,5.1559,5.1036,5.0697,5.0697,5.0697,5.0667,5.0574,5.0574,5.0236,4.9558,4.9693,4.9789,4.9908,5.0576,5.1032,5.1257,5.1951,5.2343,3.3145,3.8444,4.3724,0.0,5.0493,5.139,5.3046,5.3667,5.4011,5.4425,5.4494,5.4494,5.4494,5.4494,5.4494,5.4494,5.4494,5.4494,5.4494,5.4494,5.4494,5.4494,5.4494,5.4494,5.4494,5.4494,5.4494,5.4494,5.4494,5.4494,5.4494,5.4494,5.4494,5.4494,5.4494,5.4494,5.4494,5.4271,5.4271,5.4494,5.4494,5.4494,5.4494,5.4494,5.4494,5.4463,5.3948,5.3619,5.3545,5.3964,5.3672,5.2926,5.2882,5.2669,5.2188,5.0813,5.0441,5.0525,5.0246,5.005,4.9892,4.9892,5.0105,5.0655,5.2103,5.2246,5.2286,5.3806,5.3716,5.3144,5.3233,5.3188,5.31,5.31,5.31,5.31,5.31,5.2877,5.2698,5.2698,5.2698,5.2698,5.2698,5.2698,5.2877,5.3346,5.3434,5.3434,5.3434,5.3434,5.3214,5.2743,5.2452,5.2458,5.2953,5.2268,5.2025,5.2528,5.2113,5.1884,5.1965,5.2008,5.1916,5.1724,5.0897,5.0485,5.0576,5.1401,5.1987,5.2449,5.2834,5.2972,0.0,0.0,4.1319,4.6872,4.8838,4.9976,0.0,0.0,5.3322,0.0,5.4218,5.4287,5.4494,5.4494,5.4494,5.4494,5.4494,5.4494,5.4494,5.4494,5.4494,5.4494,5.4494,5.4494,5.4494,5.4494,5.4494,5.4494,5.4494,5.4494,5.4494,5.4494,5.4494,5.4494,5.4494,5.4494,5.4494,5.4494,5.4494,5.4494,5.4494,5.4494,5.4494,5.4494,5.4494,5.4463,5.4078,5.3716,5.3517,5.4315,5.4259,5.3738,5.3583,5.356,5.3463,5.1652,5.1097,5.114,5.0838,5.0563,5.0292,5.0292,5.0858,5.1724,5.2702,5.3016,5.3212,5.4416,5.4077,5.3421,5.3496,5.3421,5.3377,5.3377,5.3552,5.3652,5.3465,5.3113,5.2877,5.2877,5.2877,5.2877,5.2877,5.3024,5.339,5.4008,5.4274,5.4401,5.4359,5.4317,5.4062,5.3434,5.3157,5.339,5.4274,5.3521,5.339,5.4274,5.3707,5.3444,5.3553,5.3563,5.3574,5.3545,5.2595,5.1926,5.1699,5.2302,5.2903,5.3518,5.3518,5.3518,0.0,3.38,0.0,4.2033,4.5699,4.8224,0.0,0.0,5.2463,5.3287,5.346,5.3667,5.4391,5.4494,5.4494,5.4494,5.4494,5.4494,5.4494,5.4494,5.4494,5.4494,5.4494,5.4494,5.4494,5.4494,5.4494,5.4494,5.4494,5.4494,5.4494,5.4494,5.4494,5.4494,5.4494,5.4494,5.4494,5.4494,5.4494,5.4494,5.4494,5.4494,5.4494,5.4494,5.4494,5.4494,5.4463,5.4175,5.3718,5.4194,5.4518,5.4549,5.3665,5.3761,5.4162,5.2666,5.1809,5.1443,5.1921,5.174,5.1327,5.1327,5.2118,5.3189,5.3767,5.3825,5.4009,5.5359,5.4585,5.3465,5.3702,5.3584,5.3377,5.3377,5.3965,5.4317,5.3565,5.3377,5.3377,5.3377,5.3377,5.3377,5.3377,5.4008,5.4485,5.438,5.5026,5.5442,5.5271,5.5231,5.5231,5.519,5.4443,5.4274,5.519,5.4443,5.4317,5.519,5.519,5.5158,5.5166,5.5166,5.4883,5.4251,5.4892,5.458,5.3265,5.3377,5.3484,5.3518,5.3518,5.3518,0.0,0.0,0.0,3.9341,4.2551,4.532,4.7355,4.9355,5.1011,5.177,5.2321,5.2873,5.3667,5.4184,5.4494,5.4494,5.4494,5.4494,5.4494,5.4494,5.4494,5.4494,5.408,5.3804,5.3804,5.3356,5.3015,5.3015,5.3015,5.3015,5.3015,5.3015,5.3015,5.3015,5.3529,5.4011,5.4494,5.4494,5.4494,5.4494,5.4494,5.4494,5.4494,5.4494,5.4494,5.4494,5.4494,5.4367,5.4276,5.4898,5.5518,5.5928,5.4734,5.4972,5.5689,5.3408,5.2629,5.2664,5.2455,5.2172,5.202,5.2518,5.3268,5.4164,5.5292,5.5628,5.5783,5.6685,5.6222,5.5385,5.5122,5.4842,5.4611,5.4611,5.5271,5.5796,5.5515,5.4475,5.3552,5.3421,5.3377,5.3565,5.4094,5.3836,5.4221,5.5955,5.5756,5.5603,5.6231,5.6192,5.5915,5.5353,5.5026,5.519,5.6034,5.5353,5.5231,5.6074,5.5636,5.5555,5.6113,5.6113,5.6288,5.6596,5.6422,5.5576,5.4137,5.4186,5.4194,5.4194,5.3721,5.3518,2.8558,0.0,0.0,0.0,0.0,4.1585,4.5665,4.7355,4.8596,5.039,5.1149,5.1804,5.2804,5.3425,5.3839,5.4115,5.3908,5.3736,5.3736,5.3736,5.3736,5.3736,5.3322,5.3011,5.3011,5.2498,5.2188,5.2188,5.2188,5.2188,5.2188,5.2188,5.2188,5.2188,5.2735,5.3356,5.4115,5.4149,5.4253,5.4494,5.4494,5.4494,5.4494,5.4494,5.4494,5.4494,5.4494,5.4494,5.4563,5.5046,5.5874,5.6669,5.5241,5.558,5.6532,5.4227,5.345,5.3483,5.3247,5.2975,5.2867,5.3906,5.467,5.5392,5.6668,5.7017,5.7005,5.7469,5.7105,5.6498,5.6139,5.5868,5.5796,5.608,5.6426,5.6768,5.6958,5.5756,5.4643,5.4517,5.4475,5.4643,5.5108,5.4902,5.5271,5.6925,5.6773,5.6696,5.7335,5.7331,5.6996,5.6348,5.6034,5.6152,5.6958,5.6231,5.6113,5.6958,5.6465,5.6426,5.6996,5.7067,5.7293,5.7881,5.7408,5.6684,5.5636,5.5166,5.4972,5.4972,5.4465,5.4262,0.0,0.0,0.0,0.0,0.0,0.0,4.4527,0.0,4.5208,4.9045,4.9838,5.0321,5.1908,5.2153,5.2394,5.3218,5.2701,5.2188,5.2188,5.2188,5.2188,5.2188,5.2153,5.2153,5.2153,5.2153,5.2119,5.2119,5.2119,5.2119,5.2119,5.2119,5.2153,5.2153,5.2153,5.2532,5.3356,5.3391,5.377,5.4494,5.4494,5.4494,5.4494,5.4494,5.4494,5.4494,5.4494,5.4494,5.4494,5.4494,5.5426,5.6633,5.5115,5.546,5.6598,5.5081,5.4175,5.3816,5.4303,5.4175,5.4022,5.5451,5.6229,5.6824,5.7749,5.7875,5.7647,5.7647,5.7183,5.6652,5.6652,5.6652,5.6844,5.7631,5.7372,5.7147,5.7704,5.7222,5.6652,5.6614,5.6614,5.6536,5.6381,5.7147,5.7631,5.7297,5.8135,5.8701,5.8525,5.849,5.8419,5.8207,5.7443,5.7185,5.7845,5.711,5.703,5.7845,5.7918,5.7918,5.7918,5.7918,5.7918,5.7918,5.7918,5.7918,5.7918,5.6461,5.5715,5.5715,5.5681,5.5681,2.7247,0.0,0.0,0.0,0.0,0.0,0.0,0.0,4.0618,4.5001,4.5898,4.701,5.0735,5.0976,5.0873,5.1632,5.2011,5.2188,5.2188,5.2188,5.2188,5.2188,5.1735,5.1395,5.1395,5.0942,5.0631,0.0,5.0631,5.0631,5.0631,5.0631,5.0873,5.139,5.1395,5.177,5.2528,5.3115,5.3494,5.3701,5.4253,5.4494,5.4494,5.4494,5.4494,5.4494,5.4494,5.4494,5.4494,5.4494,5.5426,5.6633,5.5115,5.546,5.6598,5.5081,5.4399,5.4303,5.4431,5.4743,5.5233,5.6229,5.6986,5.7672,5.8457,5.866,5.8588,5.8588,5.8487,5.8174,5.7631,5.7594,5.7704,5.7777,5.8103,5.8457,5.8632,5.8492,5.7995,5.6844,5.6614,5.6768,5.7297,5.6967,5.708,5.8317,5.7995,5.792,5.8631,5.8596,5.8419,5.8207,5.7991,5.7881,5.7881,5.7698,5.7662,5.7881,5.8027,5.8099,5.8099,5.8277,5.8277,5.8099,5.8277,5.8277,5.8099,5.704,5.6494,5.6494,5.5953,5.5681,2.7937,0.0,0.0,0.0,0.0,0.0,3.5594,3.6732,3.841,0.0,4.4311,4.5312,4.8631,4.8872,4.8941,4.9947,5.0499,5.0878,5.1222,5.1287,5.1287,5.1287,5.0907,5.0666,5.0666,5.0252,5.0011,5.0011,5.0011,5.0011,5.0011,5.0011,5.0218,5.0631,5.0666,5.1011,5.1705,5.2528,5.308,5.3425,5.4149,5.4494,5.4494,5.4494,5.4494,5.4494,5.4494,5.4494,5.4529,5.4839,5.5701,5.6667,5.546,5.5701,5.6598,5.5081,5.4494,5.4494,5.4494,5.4977,5.5805,5.6909,5.7564,5.8116,5.9185,5.9288,5.9012,5.9012,5.9012,5.8909,5.8422,5.8386,5.8457,5.8351,5.8667,5.9012,5.9012,5.9012,5.8702,5.7777,5.7594,5.7741,5.8137,5.7744,5.7744,5.8771,5.8351,5.8173,5.8806,5.8806,5.8666,5.849,5.8384,5.8277,5.8135,5.7991,5.7954,5.8135,5.8171,5.8241,5.8348,5.8455,5.8455,5.8348,5.8455,5.8455,5.8348,5.7763,5.7523,5.7523,5.7082,5.6807,2.9282,2.9455,0.0,0.0,3.0834,0.0,3.7008,3.7077,3.7215,0.0,4.331,4.3862,4.5734,4.6182,4.6631,4.7844,4.8396,4.8982,4.9873,5.0011,5.0011,5.0011,5.0011,5.0011,5.0011,5.0011,5.0011,5.0011,5.0011,5.0011,5.0011,5.0011,5.0011,5.0011,5.0011,5.0321,5.0976,5.1774,5.2563,5.3287,5.4115,5.4494,5.4494,5.4494,5.4494,5.4494,5.4494,5.4494,5.4563,5.5391,5.615,5.6736,5.5908,5.6115,5.6598,5.5081,5.4494,5.4529,5.4598,5.5115,5.5977,5.7426,5.7978,5.8288,5.9668,5.9564,5.9012,5.9012,5.9012,5.9012,5.9012,5.9012,5.9012,5.9012,5.9012,5.9012,5.9012,5.9012,5.9012,5.9012,5.9012,5.8944,5.884,5.8944,5.8944,5.884,5.8909,5.9012,5.9012,5.9012,5.8944,5.8806,5.8631,5.8525,5.849,5.8171,5.8099,5.849,5.8348,5.8348,5.8525,5.8561,5.8561,5.8525,5.8525,5.8525,5.8561,5.8525,5.849,5.849,5.849,5.8419,3.211,3.2593,3.2869,3.1489,0.0,0.0,3.0972,3.1662,3.349,0.0,3.6973,3.818,4.2147,4.3448,4.3759,4.3388,4.5906,4.8396,4.9804,5.0011,5.0011,5.0011,5.0011,5.0011,5.0011,5.0011,5.0011,5.0011,5.0011,5.0011,5.0011,5.0011,5.0011,5.0011,5.0011,5.008,5.0218,5.1533,5.2257,5.2429,5.3839,5.4494,5.4494,5.4494,5.4494,5.4494,5.4494,5.4494,5.4632,5.5977,5.6667,5.6736,5.5908,5.6115,5.6598,5.5081,5.4494,5.4598,5.5184,5.5908,5.6702,5.7598,5.8323,5.884,5.915,5.9116,5.9012,5.9012,5.9012,5.9012,5.9012,5.9012,5.9012,5.9012,5.9012,5.9012,5.9012,5.9012,5.9012,5.9012,5.9012,5.8978,5.8944,5.8978,5.8978,5.8944,5.8978,5.9012,5.9012,5.9012,5.8944,5.8806,5.8736,5.8666,5.8525,5.8419,5.8419,5.849,5.8596,5.8701,5.8736,5.8875,5.884,5.8736,5.8736,5.8806,5.8909,5.8631,5.849,5.849,5.849,5.849,3.38,3.38,3.3923,3.3145,0.0,0.0,0.0,3.18,3.2662,3.5697,3.5421,3.5718,3.9134,3.9756,4.0135,4.1274,4.3699,4.5837,4.6975,4.8803,5.0011,5.0011,5.0011,5.0011,5.0011,5.0011,5.0011,5.0011,5.0011,5.0011,5.0011,5.0011,5.0011,5.0011,5.0011,5.0011,5.0011,5.1429,5.2188,5.2222,5.377,5.4494,5.4494,5.4494,5.4494,5.4494,5.4494,5.4494,5.4632,5.615,5.6805,5.6771,5.6357,5.6219,5.6081,5.4943,5.4494,5.4632,5.5357,5.615,5.6909,5.7667,5.8392,5.9012,5.9012,5.9012,5.9012,5.9012,5.9012,5.9012,5.9012,5.9012,5.9012,5.9012,5.9012,5.9012,5.9012,5.9012,5.9012,5.9012,5.9012,5.9012,5.9012,5.9012,5.9012,5.9012,5.9012,5.9012,5.9012,5.9012,5.8978,5.8909,5.884,5.8771,5.8736,5.8596,5.8561,5.8736,5.8771,5.8806,5.8909,5.8944,5.8944,5.8909,5.8909,5.8909,5.9012,5.8806,5.8736,5.8736,5.8736,5.8736,0.0,0.0,0.0,0.0,0.0,3.349,0.0,0.0,0.0,0.0,0.0,0.0,0.0,0.0,0.0,3.8962,0.0,0.0,0.0,4.6148,0.0,4.8872,4.9286,4.9562,4.9562,4.9286,4.9321,4.9735,4.9355,4.9321,4.9769,4.9942,5.0011,5.0011,5.0011,5.0011,5.0011,5.1429,5.2188,5.2222,5.377,5.4494,5.4494,5.4494,5.4494,5.4494,5.4494,5.4494,5.4632,5.615,5.6702,5.6598,5.6736,5.6391,5.5736,5.4839,5.4494,5.4632,5.5529,5.6253,5.6943,5.784,5.853,5.9012,5.9012,5.9012,5.9012,5.9012,5.9012,5.9012,5.9012,5.9012,5.9012,5.9012,5.9012,5.9012,5.9012,5.9012,5.9012,5.9012,5.9012,5.9012,5.9012,5.9012,5.9012,5.9012,5.9012,5.9012,5.9012,5.9012,5.9012,5.9012,5.8909,5.8875,5.8978,5.8736,5.8702,5.8978,5.8909,5.8909,5.9012,5.9012,5.9012,5.9012,5.9012,5.9012,5.9012,5.9012,5.9012,5.9012,5.9012,5.8909,0.0,0.0,0.0,0.0,3.7008,0.0,0.0,0.0,3.3406,3.1818,0.0,0.0,0.0,0.0,0.0,0.0,0.0,0.0,3.8341,4.0963,4.3414,4.4794,4.6734,4.7948,4.7948,4.6707,4.6741,4.8775,4.7052,4.681,4.881,4.9631,5.0011,5.0011,5.0011,5.0011,5.0011,5.1429,5.2188,5.2222,5.377,5.4494,5.4494,5.4494,5.4494,5.4494,5.4494,5.4494,5.4632,5.615,5.6391,5.5805,5.6529,5.6736,5.6495,5.5046,5.4494,5.4701,5.615,5.6736,5.7047,5.8426,5.8944,5.9012,5.9012,5.9012,5.9012,5.9012,5.9012,5.9012,5.9012,5.9012,5.9012,5.9012,5.9012,5.9012,5.9012,5.9012,5.9012,5.9012,5.9012,5.9012,5.9012,5.9012,5.9012,5.9012,5.9012,5.9012,5.9012,5.9012,5.9012,5.9012,5.8978,5.8978,5.9012,5.8978,5.8944,5.9012,5.8978,5.8978,5.9012,5.9012,5.9012,5.9012,5.9012,5.9012,5.9012,5.9012,5.9012,5.9012,5.9012,5.8978,0.0,0.0,0.0,0.0,0.0,0.0,3.3544,0.0,3.2094,0.0,0.0,0.0,0.0,0.0,0.0,0.0,3.5007,0.0,0.0,0.0,4.0273,0.0,0.0,0.0,4.4975,4.4872,4.5354,4.6707,4.5561,4.5768,4.8017,4.8879,4.9528,5.0011,5.0011,5.0011,5.0011,5.1429,5.2188,5.2222,5.377,5.4494,5.4494,5.4494,5.4494,5.4494,5.4494,5.4736,5.5219,5.6357,5.6598,5.6322,5.6667,5.6529,5.5977,5.4908,5.477,5.5322,5.6426,5.7081,5.7598,5.8668,5.9012,5.9012,5.9012,5.9012,5.9012,5.9012,5.9012,5.9012,5.9012,5.9012,5.9012,5.9012,5.9012,5.9012,5.9012,5.9012,5.9012,5.9012,5.9012,5.9012,5.9012,5.9012,5.9012,5.9012,5.9012,5.9012,5.9012,5.9012,5.9012,5.9012,5.9012,5.9012,5.9012,5.9012,5.9012,5.9012,5.9012,5.9012,5.9012,5.9012,5.9012,5.9012,5.9012,5.9012,5.9012,5.9012,5.9012,5.9012,5.9012,5.9012,4.0653,0.0,0.0,0.0,0.0,0.0,0.0,0.0,0.0,0.0,0.0,0.0,0.0,0.0,0.0,0.0,0.0,3.4628,0.0,3.4855,0.0,0.0,0.0,0.0,0.0,4.262,4.3103,4.4699,4.3526,4.4009,4.6914,4.7982,4.8844,4.9666,4.9907,5.0011,5.0011,5.1429,5.2188,5.2222,5.377,5.4494,5.4494,5.4494,5.4494,5.4494,5.4494,5.4943,5.5667,5.646,5.6805,5.6805,5.6805,5.6322,5.5529,5.477,5.4977,5.5736,5.6529,5.7426,5.8288,5.884,5.9012,5.9012,5.9012,5.9012,5.9012,5.9012,5.9012,5.9012,5.9012,5.9012,5.9012,5.9012,5.9185,5.9323,5.9323,5.9495,5.9633,5.9633,5.9633,5.9633,5.9633,5.9288,5.9012,5.9012,5.9012,5.9012,5.9012,5.9012,5.9012,5.9012,5.9012,5.9012,5.9012,5.9012,5.9012,5.9012,5.9012,5.9012,5.9012,5.9012,5.9012,5.9012,5.9012,5.9012,5.9012,5.9012,5.9012,5.9012,5.9012,5.9012,0.0,0.0,0.0,3.8801,0.0,0.0,0.0,0.0,3.4869,0.0,0.0,0.0,0.0,0.0,0.0,0.0,0.0,0.0,0.0,0.0,0.0,0.0,0.0,0.0,0.0,3.941,3.9272,0.0,4.048,4.0733,4.5225,4.6914,4.8051,4.881,4.9597,5.0011,5.0011,5.1429,5.2188,5.2222,5.377,5.4494,5.4494,5.4494,5.4494,5.4494,5.4494,5.4943,5.5667,5.646,5.6805,5.6805,5.6805,5.6322,5.5529,5.477,5.4977,5.5736,5.6529,5.7771,5.8978,5.9012,5.9012,5.9012,5.9012,5.9012,5.9012,5.9012,5.9012,5.9012,5.9012,5.9012,5.9012,5.9012,5.9599,6.0151,6.0151,6.0737,6.122,6.122,6.122,6.122,6.122,6.0013,5.9012,5.9012,5.9012,5.9012,5.9012,5.9012,5.9012,5.9012,5.9012,5.9012,5.9012,5.9012,5.9012,5.9012,5.9012,5.9012,5.9012,5.9012,5.9012,5.9012,5.9012,5.9012,5.9012,5.9012,5.9012,5.9012,5.9012,5.9012,0.0,0.0,4.65,4.1664,0.0,0.0,0.0,0.0,0.0,0.0,0.0,0.0,0.0,0.0,0.0,0.0,0.0,0.0,0.0,0.0,0.0,0.0,0.0,0.0,0.0,0.0,0.0,4.0032,3.9203,4.0388,4.4458,4.6148,4.7534,4.8741,4.9597,5.0011,5.0011,5.1429,5.2188,5.2222,5.377,5.4494,5.4494,5.4494,5.4494,5.4494,5.4494,5.5219,5.6426,5.6702,5.6805,5.6805,5.6805,5.6012,5.4908,5.515,5.5736,5.6564,5.784,5.8599,5.9012,5.9012,5.9012,5.9012,5.9012,5.9012,5.9012,5.9012,5.9392,5.9806,5.9806,6.0151,6.053,6.053,6.0737,6.0944,6.0944,6.1116,6.1289,6.1289,6.1289,6.1289,6.1289,6.0875,6.0358,5.9875,5.9806,5.9599,5.9081,5.9012,5.9012,5.9012,5.9012,5.9012,5.9012,5.9012,5.9012,5.9012,5.9012,5.9012,5.9012,5.9012,5.9012,5.9012,5.9012,5.9012,5.9012,5.9012,5.9012,5.9012,5.9012,5.9012,4.9051,4.9258,0.0,4.463,4.3044,0.0,3.7443,0.0,3.8939,0.0,0.0,0.0,0.0,0.0,0.0,0.0,0.0,0.0,0.0,2.7696,0.0,0.0,0.0,0.0,0.0,0.0,3.6063,3.8422,3.7616,3.8789,0.0,4.5044,4.6741,4.7982,4.9321,5.0149,5.039,5.1567,5.2326,5.2666,5.3908,5.4494,5.4494,5.4494,5.4494,5.4529,5.4805,5.5632,5.6805,5.6805,5.6805,5.6771,5.6495,5.577,5.4943,5.5426,5.6288,5.7357,5.8599,5.9012,5.9012,5.9012,5.9012,5.9012,5.9012,5.9012,5.9081,5.9357,5.9806,6.0254,6.053,6.0944,6.1289,6.1289,6.153,6.1737,6.1737,6.1944,6.2117,6.2117,6.2117,6.2117,6.2117,6.2117,6.1772,6.0737,6.0599,6.0392,5.9875,5.9599,5.9426,5.9426,5.9185,5.9012,5.9012,5.9012,5.9012,5.9012,5.9012,5.9012,5.9012,5.9012,5.9012,5.9012,5.9012,5.9012,5.9012,5.9012,5.9012,5.9012,5.9012,5.9012]}]]